[[{"header":{"parameterUnit":"m.s-1","parameterCategory":1,"la1":30.6,"la2":28.766,"lo1":-90.7593,"lo2":-88.6598,"dy":0.0162,"dx":0.0183,"nx":116,"ny":114,"refTime":"2023-09-25T12:00:00:Z","depth":0,"parameterNumber":2,"parameterNumberName":"U-component_of_WINDS"},"data":[0.0,0.0,0.0,0.0,0.0,0.0,0.0,0.0,0.0,0.0,0.0,0.0,0.0,0.0,0.0,0.0,0.0,0.0,0.0,0.0,0.0,0.0,0.0,0.0,0.0,0.0,0.0,0.0,0.0,0.0,0.0,0.0,0.0,0.0,0.0,0.0,0.0,0.0,0.0,0.0,0.0,0.0,0.0,0.0,0.0,0.0,0.0,0.0,0.0,0.0,0.0,0.0,0.0,0.0,0.0,0.0,0.0,0.0,0.0,0.0,0.0,0.0,0.0,0.0,0.0,0.0,0.0,0.0,0.0,0.0,0.0,0.0,0.0,0.0,0.0,0.0,0.0,0.0,0.0,0.0,0.0,0.0,0.0,0.0,0.0,0.0,0.0,0.0,0.0,0.0,0.0,0.0,0.0,0.0,0.0,0.0,0.0,0.0,0.0,0.0,0.0,0.0,0.0,0.0,0.0,0.0,0.0,0.0,0.0,0.0,0.0,0.0,0.0,0.0,0.0,0.0,0.0,0.0,0.0,0.0,0.0,0.0,0.0,0.0,0.0,0.0,0.0,0.0,0.0,0.0,0.0,0.0,0.0,0.0,0.0,0.0,0.0,0.0,0.0,0.0,0.0,0.0,0.0,0.0,0.0,0.0,0.0,0.0,0.0,0.0,0.0,0.0,0.0,0.0,0.0,0.0,0.0,0.0,0.0,0.0,0.0,0.0,0.0,0.0,0.0,0.0,0.0,0.0,0.0,0.0,0.0,0.0,0.0,0.0,0.0,0.0,0.0,0.0,0.0,0.0,0.0,0.0,0.0,0.0,0.0,0.0,0.0,0.0,0.0,0.0,0.0,0.0,0.0,0.0,0.0,0.0,0.0,0.0,0.0,0.0,0.0,0.0,0.0,0.0,0.0,0.0,0.0,0.0,0.0,0.0,0.0,0.0,0.0,0.0,0.0,0.0,0.0,0.0,0.0,0.0,0.0,0.0,0.0,0.0,0.0,0.0,0.0,0.0,0.0,0.0,0.0,0.0,0.0,0.0,0.0,0.0,0.0,0.0,0.0,0.0,0.0,0.0,0.0,0.0,0.0,0.0,0.0,0.0,0.0,0.0,0.0,0.0,0.0,0.0,0.0,0.0,0.0,0.0,0.0,0.0,0.0,0.0,0.0,0.0,0.0,0.0,0.0,0.0,0.0,0.0,0.0,0.0,0.0,0.0,0.0,0.0,0.0,0.0,0.0,0.0,0.0,0.0,0.0,0.0,0.0,0.0,0.0,0.0,0.0,0.0,0.0,0.0,0.0,0.0,0.0,0.0,0.0,0.0,0.0,0.0,0.0,0.0,0.0,0.0,0.0,0.0,0.0,0.0,0.0,0.0,0.0,0.0,0.0,0.0,0.0,0.0,0.0,0.0,0.0,0.0,0.0,0.0,0.0,0.0,0.0,0.0,0.0,0.0,0.0,0.0,0.0,0.0,0.0,0.0,0.0,0.0,0.0,0.0,0.0,0.0,0.0,0.0,0.0,0.0,0.0,0.0,0.0,0.0,0.0,0.0,0.0,0.0,0.0,0.0,0.0,0.0,0.0,0.0,0.0,0.0,0.0,0.0,0.0,0.0,0.0,0.0,0.0,0.0,0.0,0.0,0.0,0.0,0.0,0.0,0.0,0.0,0.0,0.0,0.0,0.0,0.0,0.0,0.0,0.0,0.0,0.0,0.0,0.0,0.0,0.0,0.0,0.0,0.0,0.0,0.0,0.0,0.0,0.0,0.0,0.0,0.0,0.0,0.0,0.0,0.0,0.0,0.0,0.0,0.0,0.0,0.0,0.0,0.0,0.0,0.0,0.0,0.0,0.0,0.0,0.0,0.0,0.0,0.0,0.0,0.0,0.0,0.0,0.0,0.0,0.0,0.0,0.0,0.0,0.0,0.0,0.0,0.0,0.0,0.0,0.0,0.0,0.0,0.0,0.0,0.0,0.0,0.0,0.0,0.0,0.0,0.0,0.0,0.0,0.0,0.0,0.0,0.0,0.0,0.0,0.0,0.0,0.0,0.0,0.0,0.0,0.0,0.0,0.0,0.0,0.0,0.0,0.0,0.0,0.0,0.0,0.0,0.0,0.0,0.0,0.0,0.0,0.0,0.0,0.0,0.0,0.0,0.0,0.0,0.0,0.0,0.0,0.0,0.0,0.0,0.0,0.0,0.0,0.0,0.0,0.0,0.0,0.0,0.0,0.0,0.0,0.0,0.0,0.0,0.0,0.0,0.0,0.0,0.0,0.0,0.0,0.0,0.0,0.0,0.0,0.0,0.0,0.0,0.0,0.0,0.0,0.0,0.0,0.0,0.0,0.0,0.0,0.0,0.0,0.0,0.0,0.0,0.0,0.0,0.0,0.0,0.0,0.0,0.0,0.0,0.0,0.0,0.0,0.0,0.0,0.0,0.0,0.0,0.0,0.0,0.0,0.0,0.0,0.0,0.0,0.0,0.0,0.0,0.0,0.0,0.0,0.0,0.0,0.0,0.0,0.0,0.0,0.0,0.0,0.0,0.0,0.0,0.0,0.0,0.0,0.0,0.0,0.0,0.0,0.0,0.0,0.0,0.0,0.0,0.0,0.0,0.0,0.0,0.0,0.0,0.0,0.0,0.0,0.0,0.0,0.0,0.0,0.0,0.0,0.0,0.0,0.0,0.0,0.0,0.0,0.0,0.0,0.0,0.0,0.0,0.0,0.0,0.0,0.0,0.0,0.0,0.0,0.0,0.0,0.0,0.0,0.0,0.0,0.0,0.0,0.0,0.0,0.0,0.0,0.0,0.0,0.0,0.0,0.0,0.0,0.0,0.0,0.0,0.0,0.0,0.0,0.0,0.0,0.0,0.0,0.0,0.0,0.0,0.0,0.0,0.0,0.0,0.0,0.0,0.0,0.0,0.0,0.0,0.0,0.0,0.0,0.0,0.0,0.0,0.0,0.0,0.0,0.0,0.0,0.0,0.0,0.0,0.0,0.0,0.0,0.0,0.0,0.0,0.0,0.0,0.0,0.0,0.0,0.0,0.0,0.0,0.0,0.0,0.0,0.0,0.0,0.0,0.0,0.0,0.0,0.0,0.0,0.0,0.0,0.0,0.0,0.0,0.0,0.0,0.0,0.0,0.0,0.0,0.0,0.0,0.0,0.0,0.0,0.0,0.0,0.0,0.0,0.0,0.0,0.0,0.0,0.0,0.0,0.0,0.0,0.0,0.0,0.0,0.0,0.0,0.0,0.0,0.0,0.0,0.0,0.0,0.0,0.0,0.0,0.0,0.0,0.0,0.0,0.0,0.0,0.0,0.0,0.0,0.0,0.0,0.0,0.0,0.0,0.0,0.0,0.0,0.0,0.0,0.0,0.0,0.0,0.0,0.0,0.0,0.0,0.0,0.0,0.0,0.0,0.0,0.0,0.0,0.0,0.0,0.0,0.0,0.0,0.0,0.0,0.0,0.0,0.0,0.0,0.0,0.0,0.0,0.0,0.0,0.0,0.0,0.0,0.0,0.0,0.0,0.0,0.0,0.0,0.0,0.0,0.0,0.0,0.0,0.0,0.0,0.0,0.0,0.0,0.0,0.0,0.0,0.0,0.0,0.0,0.0,0.0,0.0,0.0,0.0,0.0,0.0,0.0,0.0,0.0,0.0,0.0,0.0,0.0,0.0,0.0,0.0,0.0,0.0,0.0,0.0,0.0,0.0,0.0,0.0,0.0,0.0,0.0,0.0,0.0,0.0,0.0,0.0,0.0,0.0,0.0,0.0,0.0,0.0,0.0,0.0,0.0,0.0,0.0,0.0,0.0,0.0,0.0,0.0,0.0,0.0,0.0,0.0,0.0,0.0,0.0,0.0,0.0,0.0,0.0,0.0,0.0,0.0,0.0,0.0,0.0,0.0,0.0,0.0,0.0,0.0,0.0,0.0,0.0,0.0,0.0,0.0,0.0,0.0,0.0,0.0,0.0,0.0,0.0,0.0,0.0,0.0,0.0,0.0,0.0,0.0,0.0,0.0,0.0,0.0,0.0,0.0,0.0,0.0,0.0,0.0,0.0,0.0,0.0,0.0,0.0,0.0,0.0,0.0,0.0,0.0,0.0,0.0,0.0,0.0,0.0,0.0,0.0,0.0,0.0,0.0,0.0,0.0,0.0,0.0,0.0,0.0,0.0,0.0,0.0,0.0,0.0,0.0,0.0,0.0,0.0,0.0,0.0,0.0,0.0,0.0,0.0,0.0,0.0,0.0,0.0,0.0,0.0,0.0,0.0,0.0,0.0,0.0,0.0,0.0,0.0,0.0,0.0,0.0,0.0,0.0,0.0,0.0,0.0,0.0,0.0,0.0,0.0,0.0,0.0,0.0,0.0,0.0,0.0,0.0,0.0,0.0,0.0,0.0,0.0,0.0,0.0,0.0,0.0,0.0,0.0,0.0,0.0,0.0,0.0,0.0,0.0,0.0,0.0,0.0,0.0,0.0,0.0,0.0,0.0,0.0,0.0,0.0,0.0,0.0,0.0,0.0,0.0,0.0,0.0,0.0,0.0,0.0,0.0,0.0,0.0,0.0,0.0,0.0,0.0,0.0,0.0,0.0,0.0,0.0,0.0,0.0,0.0,0.0,0.0,0.0,0.0,0.0,0.0,0.0,0.0,0.0,0.0,0.0,0.0,0.0,0.0,0.0,0.0,0.0,0.0,0.0,0.0,0.0,0.0,0.0,0.0,0.0,0.0,0.0,0.0,0.0,0.0,0.0,0.0,0.0,0.0,0.0,0.0,0.0,0.0,0.0,0.0,0.0,0.0,0.0,0.0,0.0,0.0,0.0,0.0,0.0,0.0,0.0,0.0,0.0,0.0,0.0,0.0,0.0,0.0,0.0,0.0,0.0,0.0,0.0,0.0,0.0,0.0,0.0,0.0,0.0,0.0,0.0,0.0,0.0,0.0,0.0,0.0,0.0,0.0,0.0,0.0,0.0,0.0,0.0,0.0,0.0,0.0,0.0,0.0,0.0,0.0,0.0,0.0,0.0,0.0,0.0,0.0,0.0,0.0,0.0,0.0,0.0,0.0,0.0,0.0,0.0,0.0,0.0,0.0,0.0,0.0,0.0,0.0,0.0,0.0,0.0,0.0,0.0,0.0,0.0,0.0,0.0,0.0,0.0,0.0,0.0,0.0,0.0,0.0,0.0,0.0,0.0,0.0,0.0,0.0,0.0,0.0,0.0,0.0,0.0,0.0,0.0,0.0,0.0,0.0,0.0,0.0,0.0,0.0,0.0,0.0,0.0,0.0,0.0,0.0,0.0,0.0,0.0,0.0,0.0,0.0,0.0,0.0,0.0,0.0,0.0,0.0,0.0,0.0,0.0,0.0,0.0,0.0,0.0,0.0,0.0,0.0,0.0,0.0,0.0,0.0,0.0,0.0,0.0,0.0,0.0,0.0,0.0,0.0,0.0,0.0,0.0,0.0,0.0,0.0,0.0,0.0,0.0,0.0,0.0,0.0,0.0,0.0,0.0,0.0,0.0,0.0,0.0,0.0,0.0,0.0,0.0,0.0,0.0,0.0,0.0,0.0,0.0,0.0,0.0,0.0,0.0,0.0,0.0,0.0,0.0,0.0,0.0,0.0,0.0,0.0,0.0,0.0,0.0,0.0,0.0,0.0,0.0,0.0,0.0,0.0,0.0,0.0,0.0,0.0,0.0,0.0,0.0,0.0,0.0,0.0,0.0,0.0,0.0,0.0,0.0,0.0,0.0,0.0,0.0,0.0,0.0,0.0,0.0,0.0,0.0,0.0,0.0,0.0,0.0,0.0,0.0,0.0,0.0,0.0,0.0,0.0,0.0,0.0,0.0,0.0,0.0,0.0,0.0,0.0,0.0,0.0,0.0,0.0,0.0,0.0,0.0,0.0,0.0,0.0,0.0,0.0,0.0,0.0,0.0,0.0,0.0,0.0,0.0,0.0,0.0,0.0,0.0,0.0,0.0,0.0,0.0,0.0,0.0,0.0,0.0,0.0,0.0,0.0,0.0,0.0,0.0,0.0,0.0,0.0,0.0,0.0,0.0,0.0,0.0,0.0,0.0,0.0,0.0,0.0,0.0,1.4158,1.4129,0.0,0.0,0.0,0.0,0.0,0.0,0.0,0.0,0.0,0.0,0.0,0.0,0.0,0.0,0.0,0.0,0.0,0.0,0.0,0.0,0.0,0.0,0.0,0.0,0.0,0.0,0.0,0.0,0.0,0.0,0.0,0.0,0.0,0.0,0.0,0.0,0.0,0.0,1.45,1.4708,1.5084,1.527,1.526,1.5111,0.0,0.0,0.0,0.0,0.0,0.0,0.0,0.0,0.0,0.0,0.0,0.0,0.0,0.0,0.0,0.0,0.0,0.0,0.0,0.0,0.0,0.0,0.0,0.0,0.0,0.0,0.0,0.0,0.0,0.0,0.0,0.0,0.0,0.0,0.0,0.0,0.0,0.0,0.0,0.0,0.0,0.0,0.0,0.0,0.0,0.0,0.0,0.0,0.0,0.0,0.0,0.0,0.0,0.0,0.0,0.0,0.0,0.0,0.0,0.0,0.0,0.0,0.0,0.0,0.0,0.0,0.0,0.0,0.0,0.0,1.5159,1.4736,0.0,0.0,0.0,0.0,0.0,0.0,0.0,0.0,0.0,0.0,0.0,0.0,0.0,0.0,0.0,0.0,0.0,0.0,0.0,0.0,0.0,0.0,0.0,1.45,1.45,1.45,1.45,1.45,0.0,0.0,0.0,0.0,0.0,0.0,0.0,1.45,1.45,1.45,1.4684,1.5142,1.5888,1.6333,1.6225,1.5674,1.5917,0.0,0.0,0.0,0.0,0.0,0.0,0.0,0.0,0.0,0.0,0.0,0.0,0.0,0.0,0.0,0.0,0.0,0.0,0.0,0.0,0.0,0.0,0.0,0.0,0.0,0.0,0.0,0.0,0.0,0.0,0.0,0.0,0.0,0.0,0.0,0.0,0.0,0.0,0.0,0.0,0.0,0.0,0.0,0.0,0.0,0.0,0.0,0.0,0.0,0.0,0.0,0.0,0.0,0.0,0.0,0.0,0.0,0.0,0.0,0.0,0.0,0.0,0.0,1.6431,1.6832,1.7799,1.7589,1.7328,1.7051,1.6756,1.5938,1.4798,1.5262,0.0,0.0,0.0,0.0,0.0,0.0,0.0,0.0,0.0,0.0,0.0,0.0,0.0,0.0,0.0,0.0,0.0,0.0,0.0,0.0,0.0,1.45,1.45,1.45,1.45,1.45,1.45,0.0,0.0,0.0,0.0,0.0,1.45,1.45,1.45,1.45,1.5434,1.6122,1.658,1.7213,1.7644,1.7854,1.7458,1.7871,1.8843,0.0,0.0,0.0,0.0,0.0,0.0,0.0,0.0,0.0,0.0,0.0,0.0,0.0,0.0,0.0,0.0,0.0,0.0,0.0,0.0,0.0,0.0,0.0,0.0,0.0,0.0,0.0,0.0,0.0,0.0,0.0,0.0,0.0,0.0,0.0,0.0,0.0,0.0,0.0,0.0,0.0,1.3692,1.3266,0.0,0.0,0.0,0.0,0.0,0.0,0.0,0.0,0.0,0.0,0.0,0.0,0.0,1.4959,1.5705,1.6239,1.67,1.7125,1.7701,1.7957,1.7887,1.808,1.8154,1.8094,1.8293,0.0,1.5433,1.5067,0.0,0.0,0.0,0.0,0.0,0.0,0.0,0.0,0.0,0.0,0.0,0.0,0.0,0.0,0.0,0.0,0.0,0.0,0.0,0.0,0.0,1.4909,1.5175,1.5175,1.5993,1.6057,1.4957,1.5324,0.0,0.0,0.0,1.3941,1.3941,1.3941,1.4327,1.5125,1.642,1.7445,1.8241,1.8743,1.9321,1.9929,1.9683,1.9315,1.8791,1.8057,0.0,0.0,0.0,0.0,0.0,0.0,0.0,0.0,0.0,0.0,0.0,0.0,0.0,0.0,0.0,0.0,0.0,0.0,0.0,0.0,0.0,0.0,0.0,0.0,0.0,0.0,0.0,0.0,0.0,0.0,0.0,0.0,0.0,0.0,0.0,0.0,0.0,0.0,0.0,1.3755,1.4056,1.3333,1.3727,1.3766,0.0,0.0,0.0,0.0,0.0,0.0,0.0,0.0,0.0,1.389,1.4456,1.5003,1.5499,1.6204,1.6359,1.6013,1.6497,1.6531,1.6171,1.6212,1.6338,1.6565,1.6447,1.5704,1.4646,1.5519,1.5325,1.4473,0.0,0.0,0.0,0.0,1.4069,1.4252,0.0,0.0,0.0,0.0,0.0,0.0,0.0,0.0,0.0,0.0,0.0,0.0,1.4931,1.546,1.5971,1.6431,1.726,1.718,1.5871,1.5885,1.5292,1.3837,1.3493,1.3381,1.3496,1.3646,1.4329,1.5546,1.6956,1.8141,1.911,1.9654,2.0183,2.0709,2.1005,2.0498,1.9321,1.8609,1.8155,1.7846,0.0,0.0,0.0,0.0,0.0,0.0,0.0,0.0,0.0,0.0,0.0,0.0,0.0,0.0,0.0,0.0,0.0,0.0,0.0,0.0,0.0,0.0,0.0,0.0,0.0,0.0,0.0,0.0,0.0,0.0,0.0,0.0,0.0,0.0,0.0,0.0,0.0,1.3869,1.4204,1.3273,1.3951,1.4097,0.0,0.0,0.0,0.0,0.0,0.0,1.3529,1.2971,1.3002,1.3826,1.424,1.457,1.4834,1.5587,1.5605,1.4969,1.5237,1.5197,1.4849,1.4784,1.4907,1.5117,1.4881,1.4453,1.4098,1.521,1.4885,1.3656,1.3337,1.301,1.282,1.3373,1.378,1.4049,0.0,0.0,0.0,0.0,0.0,0.0,0.0,0.0,0.0,0.0,0.0,1.4931,1.6085,1.6135,1.675,1.8401,1.7465,1.6946,1.7359,1.5688,1.4646,1.4551,1.3445,1.3047,1.3487,1.4059,1.4695,1.5419,1.6634,1.7594,1.8279,1.9179,1.9507,1.9358,2.051,2.1272,2.163,2.0079,1.9311,1.8989,1.7415,0.0,0.0,0.0,0.0,0.0,0.0,0.0,0.0,0.0,0.0,0.0,0.0,0.0,0.0,0.0,0.0,0.0,0.0,0.0,0.0,0.0,0.0,0.0,0.0,0.0,0.0,0.0,0.0,0.0,0.0,0.0,0.0,0.0,0.0,0.0,0.0,0.0,0.0,1.3228,1.4709,0.0,0.0,0.0,0.0,1.355,1.3563,1.3801,1.4314,1.3756,1.3696,1.4249,1.3746,1.3587,1.3876,1.4408,1.4683,1.4627,1.4885,1.5026,1.4991,1.5099,1.5122,1.5008,1.5104,1.4924,1.4457,1.329,1.2611,1.2244,1.1591,1.2076,1.314,1.3013,1.3803,1.4787,0.0,0.0,0.0,0.0,0.0,0.0,0.0,0.0,1.45,1.45,1.4955,1.5505,1.6109,1.7047,1.8106,1.9237,1.9333,1.8934,1.8016,1.6818,1.5584,1.433,1.3074,1.2645,1.3166,1.4224,1.5269,1.6239,1.7521,1.8602,1.9438,1.9757,2.0091,2.0369,2.0803,2.1003,2.0976,2.0343,1.9941,1.955,1.7811,1.7049,0.0,0.0,0.0,0.0,0.0,0.0,0.0,0.0,0.0,0.0,0.0,0.0,0.0,0.0,0.0,0.0,0.0,0.0,0.0,0.0,0.0,0.0,0.0,0.0,0.0,0.0,0.0,0.0,0.0,0.0,0.0,0.0,0.0,0.0,0.0,0.0,0.0,1.4063,1.517,0.0,1.4445,1.4034,1.3739,1.3554,1.3122,1.2951,1.3105,1.2816,1.2802,1.3057,1.3089,1.3076,1.3099,1.3295,1.3003,1.229,1.238,1.2104,1.1474,1.1431,1.1437,1.1474,1.1431,1.1372,1.1266,1.0706,1.1219,1.2391,1.2353,1.2324,1.2256,1.2349,1.2767,1.3226,0.0,0.0,0.0,0.0,0.0,0.0,0.0,0.0,1.4317,1.4308,1.4995,1.5808,1.6622,1.7847,1.9105,2.0331,2.0148,1.9479,1.8316,1.6688,1.5088,1.3613,1.2765,1.2465,1.2759,1.4339,1.5618,1.6582,1.7741,1.8716,1.9486,1.9585,1.983,2.0232,2.0574,2.0581,2.0378,2.0414,2.0125,1.9514,1.8102,1.7663,1.7693,0.0,0.0,0.0,0.0,0.0,0.0,0.0,0.0,0.0,0.0,0.0,0.0,0.0,0.0,0.0,0.0,0.0,0.0,0.0,0.0,0.0,0.0,0.0,0.0,0.0,0.0,0.0,0.0,0.0,0.0,0.0,0.0,0.0,0.0,1.4335,1.5062,1.4895,1.5597,1.5704,1.4766,1.4051,1.3543,1.3339,1.2835,1.253,1.2584,1.215,1.1912,1.1949,1.1796,1.1676,1.1567,1.1563,1.1172,1.0416,1.0416,1.0067,0.9424,0.9383,0.9386,0.9424,0.9383,0.9389,0.9419,0.9337,1.0133,1.1423,1.1629,1.1534,1.1388,1.16,1.194,1.2197,0.0,0.0,0.0,0.0,0.0,0.0,0.0,1.394,1.3963,1.3909,1.4626,1.5831,1.7688,1.8465,1.966,2.172,1.9669,1.8283,1.8286,1.5153,1.3056,1.2529,1.2588,1.2555,1.2385,1.4439,1.5788,1.6344,1.7129,1.781,1.8312,1.8602,1.8735,1.8773,1.9681,2.0093,2.0116,2.0367,1.9885,1.8891,1.826,1.8357,1.8756,0.0,0.0,0.0,0.0,0.0,0.0,0.0,0.0,0.0,0.0,0.0,0.0,0.0,0.0,0.0,0.0,0.0,0.0,0.0,0.0,0.0,0.0,0.0,0.0,0.0,0.0,0.0,0.0,0.0,0.0,0.0,0.0,0.0,1.2907,1.4724,1.5892,1.5616,1.5998,1.5782,1.4503,1.3369,1.2789,1.2947,1.2816,1.2787,1.2809,1.1895,1.1217,1.0969,1.0015,0.9438,0.931,0.931,0.931,0.9315,0.9307,0.9304,0.9313,0.943,0.9416,0.931,0.943,0.9416,0.931,0.9304,0.9307,0.9299,0.9149,0.973,1.0668,1.0703,1.128,1.1823,0.0,0.0,0.0,0.0,0.0,0.0,0.0,1.3516,1.3645,1.3872,1.5114,1.6425,1.7613,1.891,2.0218,2.1628,1.9494,1.8032,1.7931,1.4895,1.2863,1.2378,1.2975,1.3629,1.431,1.5471,1.6432,1.7159,1.7768,1.8245,1.8614,1.8874,1.9098,1.9292,1.9752,1.9948,1.9957,1.9843,1.9829,1.9797,1.852,1.8372,1.8751,0.0,0.0,0.0,0.0,0.0,0.0,0.0,0.0,0.0,0.0,0.0,0.0,0.0,0.0,0.0,0.0,0.0,0.0,0.0,0.0,0.0,0.0,0.0,0.0,0.0,0.0,0.0,0.0,0.0,0.0,0.0,1.3034,1.3666,1.3882,1.5213,1.5933,1.5301,1.5581,1.5263,1.3939,1.331,1.2685,1.1887,1.1888,1.1539,1.0624,1.0454,1.0224,0.9919,0.9783,0.9642,0.9438,0.9435,0.9481,0.9605,0.9389,0.9351,0.9435,0.9381,0.9337,0.9304,0.934,0.9386,0.943,0.934,0.9356,0.9424,0.9304,0.9382,0.9553,0.9553,0.9648,0.9726,0.0,0.0,0.0,0.0,0.0,0.0,0.0,1.3126,1.3257,1.3429,1.4966,1.6422,1.7385,1.8848,1.9918,2.0317,1.837,1.6773,1.5928,1.3568,1.2179,1.2122,1.3382,1.4441,1.5246,1.638,1.7249,1.7853,1.8251,1.865,1.905,1.9201,1.9473,1.9842,1.9896,1.9947,2.0065,1.9793,1.9844,2.0052,1.9029,1.9074,1.9579,1.8219,1.7948,1.8129,1.6693,1.6615,1.6987,1.5705,0.0,0.0,0.0,0.0,0.0,0.0,0.0,0.0,0.0,0.0,0.0,0.0,0.0,0.0,0.0,0.0,0.0,0.0,0.0,0.0,0.0,0.0,0.0,0.0,1.2669,1.3171,1.3793,1.4934,1.5386,1.4506,1.4256,1.3835,1.2962,1.2217,1.1514,1.0869,1.0903,1.0588,0.9783,0.9919,0.9881,0.9611,0.9742,0.9688,0.9489,0.9575,0.9583,0.9514,0.9424,0.9391,0.9408,0.9337,0.9304,0.9304,0.9304,0.9345,0.9405,0.9334,0.9345,0.0,0.0,0.0,0.0,0.0,0.9022,0.8908,0.0,0.0,0.0,0.0,0.0,0.0,0.0,1.2752,1.2846,1.2847,1.4479,1.5984,1.6926,1.8258,1.8879,1.8389,1.6657,1.4858,1.3121,1.184,1.1448,1.2141,1.3846,1.5089,1.571,1.7165,1.8088,1.8342,1.8632,1.9044,1.9497,1.9564,1.9866,2.035,2.0144,2.0165,2.0428,2.0162,2.0038,2.0038,1.9757,2.0119,2.0684,1.9405,1.9007,1.883,1.6686,1.594,1.5895,1.5762,0.0,0.0,0.0,0.0,0.0,0.0,0.0,0.0,0.0,0.0,0.0,0.0,0.0,0.0,0.0,0.0,0.0,0.0,0.0,0.0,0.0,0.0,0.0,0.0,1.1863,1.2022,1.2991,1.4048,1.432,1.3424,1.2667,1.2095,1.1726,1.0689,0.998,0.998,0.998,0.9929,0.9807,0.9915,0.0,0.0,0.0,0.9693,0.9508,0.9641,0.9552,0.9364,0.9432,0.9416,0.9323,0.931,0.9304,0.9304,0.9304,0.9304,0.9304,0.9304,0.9296,0.9272,0.9122,0.9071,0.906,0.906,0.8989,0.8897,0.0,0.0,0.0,0.0,0.0,0.0,0.0,1.2338,1.2617,1.3132,1.4422,1.5455,1.5861,1.6611,1.7172,1.7431,1.5163,1.3187,1.1903,1.1562,1.2141,1.3767,1.4805,1.5897,1.7103,1.7829,1.8342,1.8607,1.9116,1.94,1.9509,1.9944,2.0325,2.0634,2.0797,2.1021,2.1262,2.0984,2.0996,2.1166,2.067,2.0445,2.0361,1.988,1.9691,1.962,1.8906,1.8549,1.8266,1.7406,1.6766,1.6248,1.5745,1.4499,0.0,0.0,0.0,0.0,0.0,0.0,0.0,0.0,0.0,0.0,0.0,0.0,0.0,0.0,0.0,0.0,0.0,0.0,0.0,1.2053,1.2471,1.257,1.2209,1.2447,1.2642,1.2682,1.2498,1.1889,1.0651,1.0196,0.998,0.998,0.998,0.9929,0.9807,0.9915,0.9867,0.9533,0.9726,0.9772,0.9673,0.9597,0.9593,0.9693,0.0,0.0,0.9449,0.9348,0.9304,0.9304,0.9304,0.9304,0.9304,0.9304,0.925,0.9119,0.9,0.8892,0.8874,0.8874,0.8826,0.8818,0.0,0.0,0.0,0.0,0.0,0.0,0.0,1.2211,1.242,1.2752,1.368,1.4407,1.4723,1.5103,1.5246,1.5019,1.3006,1.1684,1.151,1.1988,1.3021,1.4636,1.5849,1.6891,1.7689,1.8373,1.8784,1.8911,1.9304,1.957,1.9721,2.012,2.0452,2.0718,2.0978,2.1172,2.1305,2.1305,2.1383,2.1444,2.1063,2.0814,2.0645,2.024,2.0036,1.9815,1.9243,1.8893,1.8587,1.7892,1.7264,1.6703,1.6126,1.5217,1.4172,0.0,0.0,0.0,0.0,0.0,0.0,0.0,0.0,0.0,0.0,0.0,0.0,0.0,0.0,1.0699,1.1364,0.0,1.0955,1.1657,1.1786,1.1638,1.1228,1.1259,1.1338,1.1344,1.1324,1.0994,1.0162,1.0057,0.998,0.998,0.998,0.9929,0.9807,0.9856,0.9821,0.9622,0.969,0.9699,0.9616,0.9616,0.9576,0.9531,0.9451,0.9394,0.9391,0.9332,0.9304,0.9304,0.9304,0.9304,0.9304,0.9304,0.9237,0.9092,0.9033,0.8932,0.8819,0.8908,0.8913,0.8878,0.0,0.0,0.0,0.0,0.0,0.0,0.0,1.2162,1.2246,1.2384,1.2862,1.3283,1.3565,1.3619,1.3263,1.232,1.119,1.0869,1.1689,1.2689,1.387,1.5276,1.6712,1.7659,1.798,1.8723,1.9134,1.9183,1.9503,1.9775,1.9965,2.0265,2.0525,2.0791,2.1002,2.1154,2.1262,2.1444,2.1577,2.1631,2.125,2.1129,2.1111,2.0531,2.0116,1.9796,1.9122,1.8535,1.8094,1.7833,1.7277,1.6656,1.6322,1.5895,1.5198,1.3639,1.3553,0.0,0.0,0.0,0.0,0.0,0.0,0.0,0.0,1.0206,1.0471,1.0328,1.0271,1.0504,1.1304,1.091,1.0582,1.1048,1.0827,1.0547,1.046,1.0514,1.0457,1.0226,1.0204,1.0144,0.9962,0.9967,0.9972,0.9948,0.9967,0.9918,0.9775,0.9788,0.9726,0.9641,0.966,0.9624,0.9489,0.96,0.9511,0.934,0.9416,0.94,0.9304,0.9304,0.9304,0.9304,0.9304,0.9304,0.9304,0.9304,0.925,0.913,0.913,0.9033,0.8867,0.9027,0.9038,0.8971,0.0,0.0,0.0,0.0,0.0,0.0,0.0,0.0,1.2061,1.2663,1.2557,1.244,1.2468,1.1968,1.1255,1.0304,1.0918,1.1713,1.2503,1.3357,1.4515,1.6112,1.703,1.775,1.8233,1.8826,1.9219,1.9455,1.9969,2.0235,2.0271,2.0537,2.0803,2.1051,2.1081,2.1365,2.18,2.1601,2.1782,2.2145,2.1395,2.1244,2.1383,2.0609,2.0116,1.9872,1.9533,1.8633,1.7587,1.7547,1.6865,1.6037,1.6239,1.5603,1.4686,1.3996,1.3205,1.251,1.2337,1.1685,1.094,1.045,0.992,0.9678,0.0,1.0394,1.0624,1.1004,1.0756,1.0563,1.0848,1.0518,1.031,1.0462,1.045,1.0473,1.0628,1.0435,1.0231,1.0207,1.0204,1.0112,0.9842,0.9918,0.9937,0.9826,0.9921,0.9924,0.9739,0.9783,0.9647,0.9356,0.9451,0.95,0.9487,0.9391,0.9386,0.9465,0.937,0.9315,0.9304,0.9304,0.9304,0.9304,0.9304,0.9304,0.9304,0.9304,0.9296,0.9285,0.9285,0.9207,0.9063,0.909,0.909,0.9095,0.0,0.0,0.0,0.0,0.0,0.0,0.0,0.0,0.0,1.1854,1.1506,1.1151,1.0924,1.0517,1.0089,0.9701,1.0364,1.1346,1.262,1.3604,1.492,1.6676,1.7556,1.8131,1.8511,1.8917,1.9237,1.9497,1.989,2.0162,2.0319,2.0579,2.0761,2.0869,2.1027,2.1311,2.168,2.1722,2.1873,2.203,2.1534,2.1311,2.1107,1.9541,1.9074,1.914,1.8554,1.7786,0.0,1.6489,1.603,1.5704,1.597,1.5547,1.473,1.3773,1.3234,1.2751,1.1842,1.1331,1.0816,0.9853,0.9839,0.997,0.9677,0.9905,1.0176,1.011,1.0078,1.0194,1.0525,1.0522,1.053,1.0582,1.059,1.0577,1.0539,1.028,1.0019,0.981,0.9848,0.9851,0.975,0.9845,0.9853,0.9804,0.9913,0.9919,0.972,0.9715,0.9606,0.9313,0.9353,0.9381,0.9381,0.9329,0.9329,0.9381,0.9329,0.9304,0.9304,0.9304,0.9304,0.9304,0.9304,0.9304,0.9304,0.9304,0.876,0.7953,0.7964,0.7377,0.6745,0.8547,0.9111,0.9008,0.0,0.0,0.0,0.0,0.0,0.0,0.0,0.0,0.0,0.0,1.0782,1.0195,0.9726,0.9577,0.95,0.95,0.9991,1.0924,1.2376,1.3556,1.4926,1.6579,1.763,1.8263,1.8487,1.8583,1.8915,1.9497,1.9,1.9058,1.9622,1.9456,1.9398,1.9374,1.9613,2.0124,2.0755,2.0495,2.0689,2.1095,2.0365,1.9895,1.9466,1.769,1.7064,1.7085,1.6535,1.6104,1.5615,1.4593,1.4209,1.4142,1.4346,1.4169,1.3713,1.2683,1.2483,1.2283,1.0936,1.0625,1.0444,0.9372,0.9585,0.9882,0.9301,0.9552,0.9865,0.9594,0.9758,0.998,1.0286,1.0446,1.0498,1.0498,1.0498,1.0479,1.0307,1.0076,0.9802,0.9476,0.9457,0.9459,0.9461,0.9644,0.9739,0.9704,0.9845,0.9867,0.9668,0.969,0.9594,0.9313,0.9304,0.9304,0.9304,0.9304,0.9304,0.9304,0.9304,0.9085,0.8649,0.8213,0.8016,0.8026,0.8026,0.7973,0.7871,0.7871,0.7225,0.618,0.6084,0.5421,0.4786,0.6938,0.7655,0.7601,0.0,0.0,0.0,0.0,0.0,0.0,0.0,0.0,0.0,0.0,0.0,0.0,0.0,0.9348,0.95,0.95,0.9991,1.0755,1.1852,1.3159,1.4407,1.5499,1.7079,1.7919,1.7931,1.7603,1.8103,1.9497,1.7031,1.6543,1.7852,1.6608,1.6051,1.606,1.6191,1.7217,1.8767,1.7299,1.7676,1.911,1.7216,1.6301,1.5952,1.491,1.3985,1.3294,1.3379,1.3425,1.3164,1.1641,1.0923,1.0649,1.0669,1.0793,1.0844,1.0423,1.0393,1.032,0.9472,0.9306,0.9287,0.8973,0.8779,0.876,0.9196,0.9546,0.9875,1.0125,1.0185,1.0196,1.0207,1.0117,1.0002,1.0002,1.0002,1.0002,0.9994,0.9829,0.9624,0.934,0.9076,0.8892,0.8844,0.9365,0.9663,0.9506,0.9712,0.9702,0.9506,0.9643,0.9594,0.9313,0.9304,0.9304,0.9304,0.9304,0.9304,0.9304,0.9304,0.8504,0.7016,0.5528,0.4842,0.4855,0.4855,0.4606,0.427,0.427,0.4235,0.4164,0.3847,0.3882,0.4095,0.3848,0.3984,0.4241,0.0,0.0,0.0,0.0,0.0,0.0,0.0,0.0,0.0,0.0,0.0,0.0,0.0,0.0,0.0,0.0,0.9835,1.0406,1.1304,1.2617,1.3756,1.4666,1.6241,1.7092,1.7092,1.6704,1.6715,1.725,1.5715,1.5733,1.7184,1.5889,1.6382,1.825,1.7456,1.8087,1.9767,1.9242,1.9266,1.9582,1.875,1.7675,1.6374,1.4466,1.3238,1.2252,0.0,0.9881,1.0834,0.9866,0.9575,0.9701,1.0005,0.9911,0.9631,0.9414,0.9381,0.9323,0.9015,0.9211,0.9396,0.8936,0.9119,0.9423,0.9582,0.984,1.0082,1.0082,0.9892,0.9729,0.9729,0.9628,0.9571,0.9652,0.9734,0.9813,0.985,0.9696,0.9436,0.9032,0.9022,0.8545,0.726,0.8443,0.9329,0.9362,0.962,0.9696,0.95,0.9641,0.9109,0.782,0.7776,0.727,0.6253,0.6253,0.6253,0.6253,0.5993,0.5592,0.5049,0.425,0.3896,0.3918,0.3918,0.3855,0.3774,0.3774,0.3145,0.2165,0.2042,0.1458,0.063,0.052,0.0416,0.0626,0.0,0.0,0.0,0.0,0.0,0.0,0.0,0.0,0.0,0.0,0.0,0.0,0.0,0.0,0.0,0.0,0.0,0.9913,1.0629,1.1749,1.2589,1.3056,1.4445,1.5077,1.4815,1.4218,1.4164,1.471,1.3167,1.3192,1.4632,1.3527,1.402,1.5862,1.5174,1.5824,1.7423,1.7259,1.7093,1.6915,1.6458,1.5242,1.3466,1.1778,1.074,0.0,0.7388,0.7254,0.8152,0.7654,0.7653,0.7921,0.8122,0.8142,0.8084,0.7989,0.8142,0.8358,0.8546,0.8894,0.9232,0.9126,0.9468,0.9821,0.991,1.0055,1.0079,0.9873,0.9579,0.9307,0.9136,0.8932,0.8859,0.9071,0.9171,0.9294,0.9455,0.8946,0.8397,0.804,0.7606,0.683,0.5621,0.6503,0.7296,0.7646,0.7891,0.7933,0.781,0.7896,0.7392,0.6221,0.6181,0.5635,0.4509,0.4473,0.4399,0.4253,0.3452,0.3081,0.3031,0.2238,0.1859,0.1862,0.1862,0.1814,0.1758,0.1758,0.1138,0.0172,0.0034,-0.0548,-0.1312,-0.1437,-0.1638,-0.1502,0.0,0.0,0.0,0.0,0.0,0.0,0.0,0.0,0.0,0.0,0.0,0.0,0.0,0.0,0.0,0.0,0.0,0.0,0.9811,1.0605,1.0983,1.0803,1.1848,1.2088,1.1301,1.0471,1.0709,1.2024,0.9621,0.9172,1.0527,0.9672,0.9372,0.9547,0.9864,1.0847,1.2274,1.1825,1.1615,1.1556,1.0819,0.9465,0.7835,0.7356,0.6801,0.6259,0.5911,0.5634,0.5376,0.5186,0.5294,0.5463,0.5214,0.5668,0.6306,0.6339,0.6823,0.7476,0.8077,0.8454,0.881,0.9542,0.9764,0.9867,1.0125,1.0076,0.9881,0.9516,0.9234,0.8873,0.8399,0.8034,0.7889,0.8183,0.8206,0.8316,0.8631,0.7537,0.6636,0.6471,0.5046,0.4047,0.394,0.3713,0.3799,0.4348,0.4604,0.4721,0.4664,0.4715,0.4719,0.4591,0.4549,0.4327,0.3851,0.3849,0.3632,0.3232,0.1745,0.1048,0.0999,-0.05,-0.1164,-0.1168,-0.1168,-0.133,-0.1616,-0.1616,-0.1616,-0.1683,-0.2054,-0.1953,-0.1683,-0.2054,-0.2188,-0.2159,0.0,0.0,0.0,0.0,0.0,0.0,0.0,0.0,0.0,0.0,0.0,0.0,0.0,0.0,0.0,0.0,0.0,0.0,0.9005,0.9943,1.0131,0.9296,1.0778,1.1077,0.9942,0.9552,0.9427,0.96,0.8309,0.8353,0.9614,0.8455,0.9076,1.1141,1.0314,1.0789,1.2231,1.2101,1.1934,1.1711,1.1327,1.0277,0.8858,0.8285,0.7327,0.6259,0.5911,0.5684,0.5531,0.5371,0.5464,0.5633,0.5579,0.5935,0.6455,0.6905,0.7448,0.8002,0.8572,0.9073,0.9459,0.9729,0.9848,0.9943,0.9832,0.9639,0.9359,0.891,0.8345,0.7782,0.7421,0.6629,0.6065,0.6163,0.5792,0.5553,0.5752,0.5455,0.5023,0.452,0.4148,0.3328,0.1786,0.1681,0.1316,0.0357,0.2543,0.3996,0.4242,0.4327,0.3923,0.2955,0.2633,0.1856,0.0619,0.0291,0.0109,0.0,-0.0692,-0.1013,-0.1001,-0.1682,-0.1975,-0.1925,-0.1925,-0.1978,-0.2054,-0.2054,-0.2054,-0.2054,-0.2155,-0.2121,-0.2054,-0.2155,-0.2188,-0.219,0.0,0.0,0.0,0.0,0.0,0.0,0.0,0.0,0.0,0.0,0.0,0.0,0.0,0.0,0.0,0.0,0.0,0.0,0.0,0.942,0.9291,0.8143,0.8939,0.8866,0.7673,0.7384,0.7254,0.7245,0.6759,0.6921,0.7655,0.7068,0.7666,0.9219,0.8652,0.8914,0.9817,1.0294,1.0053,0.0,0.0,0.8873,0.7541,0.7213,0.66,0.588,0.5688,0.5706,0.5835,0.5869,0.5925,0.5996,0.6127,0.6574,0.7163,0.7636,0.8152,0.8647,0.9157,0.9576,0.9851,0.9968,0.9932,0.9775,0.9432,0.9166,0.878,0.8035,0.7603,0.7201,0.6713,0.5784,0.5125,0.5195,0.4601,0.4151,0.4237,0.3745,0.3142,0.2669,0.2042,0.1218,0.0035,-0.018,-0.0581,-0.1419,0.0519,0.1756,0.178,0.1979,0.1681,0.078,0.055,-0.0073,-0.1131,-0.1495,-0.1678,-0.1678,-0.1896,-0.1992,-0.1968,-0.217,-0.2245,-0.22,-0.2186,-0.2204,-0.2188,-0.2188,-0.2188,-0.2188,-0.2188,-0.2188,-0.2188,-0.2188,-0.218,-0.2168,0.0,0.0,0.0,0.0,0.0,0.0,0.0,0.0,0.0,0.0,0.0,0.0,0.0,0.0,0.0,0.0,0.0,0.0,0.0,0.0,0.8607,0.7374,0.7154,0.6564,0.5479,0.5128,0.5085,0.5339,0.5343,0.5389,0.5508,0.5744,0.5845,0.5876,0.6149,0.6369,0.6552,0.7481,0.7227,0.6242,0.7002,0.6542,0.5395,0.0,0.5395,0.5399,0.544,0.5687,0.6038,0.6439,0.6514,0.6522,0.6855,0.7429,0.8072,0.8424,0.8819,0.926,0.9685,0.9899,1.0063,1.0136,0.9875,0.9476,0.8973,0.8641,0.8119,0.7138,0.6977,0.6792,0.6134,0.5256,0.4644,0.467,0.3859,0.3217,0.3149,0.2062,0.113,0.0833,-0.0437,-0.1313,-0.135,-0.166,-0.1893,-0.1853,-0.119,-0.0895,-0.1267,-0.093,-0.0929,-0.126,-0.1284,-0.1459,-0.1858,-0.215,-0.2296,-0.2296,-0.2296,-0.228,-0.2284,-0.2222,-0.2191,-0.2193,-0.22,-0.2188,-0.2188,-0.2188,-0.2188,-0.2188,-0.2188,-0.2188,-0.2188,-0.2188,-0.2171,-0.2115,0.0,0.0,0.0,0.0,0.0,0.0,0.0,0.0,0.0,0.0,1.0834,0.993,0.0,0.0,0.0,0.0,0.0,0.0,0.0,0.0,0.0,0.7505,0.7428,0.6885,0.5758,0.5453,0.5207,0.4991,0.4981,0.4994,0.5021,0.5072,0.5095,0.5099,0.5149,0.5251,0.5386,0.5583,0.5612,0.5566,0.5725,0.5631,0.5395,0.5395,0.0,0.0,0.5654,0.5569,0.5521,0.6633,0.7118,0.7364,0.7752,0.8156,0.8554,0.9014,0.9353,0.9614,0.975,0.9962,1.0128,0.9907,0.9526,0.909,0.8739,0.8033,0.7294,0.6782,0.6282,0.588,0.5575,0.4802,0.3917,0.3073,0.2041,0.1094,0.0332,-0.0276,-0.0776,-0.1146,-0.1485,-0.1822,-0.2078,-0.2213,-0.2256,-0.2232,-0.1828,-0.1623,-0.1698,-0.1644,-0.1627,-0.1683,-0.1679,-0.1859,-0.2223,-0.226,-0.2296,-0.2296,-0.2296,-0.2269,-0.2218,-0.2213,-0.2215,-0.2196,-0.2191,0.0,-0.2188,-0.2188,-0.2188,-0.2188,-0.2188,-0.2188,-0.2188,-0.2188,-0.2185,-0.2177,0.0,0.0,0.0,0.0,0.0,0.0,0.0,1.2616,1.2525,1.2266,1.1555,1.0666,0.9597,0.9064,0.0,0.0,0.0,0.0,0.0,0.0,0.0,0.0,0.7646,0.7245,0.6487,0.618,0.5998,0.5942,0.0,0.5688,0.5679,0.5296,0.511,0.5096,0.4811,0.4762,0.4892,0.497,0.5089,0.5247,0.5361,0.5395,0.5395,0.0,0.0,0.0,0.5502,0.5457,0.5474,0.6232,0.6819,0.7369,0.8132,0.8581,0.894,0.9296,0.9527,0.9744,0.9883,1.0066,1.0161,0.994,0.9444,0.8843,0.8266,0.7527,0.6806,0.6108,0.577,0.5524,0.5243,0.46,0.3742,0.2671,0.1651,0.0573,-0.0636,-0.1082,-0.149,-0.1957,-0.2026,-0.2114,-0.2296,-0.236,-0.2372,-0.2358,-0.2197,-0.21,-0.21,-0.2125,-0.2105,-0.2078,-0.2078,-0.215,-0.2296,-0.2296,-0.2296,-0.2296,-0.2296,-0.2282,-0.2254,-0.2224,-0.2195,-0.22,-0.2202,-0.2188,-0.2188,-0.2188,-0.2188,-0.2188,-0.2188,-0.2188,-0.2188,-0.2188,-0.2178,-0.2129,0.0,0.0,0.0,0.0,0.0,0.0,0.0,1.3099,1.3034,1.2875,1.2326,1.1585,1.0593,0.9532,0.8865,0.0,0.0,0.0,0.0,0.0,0.0,0.0,0.0,0.0,0.0,0.0,0.0,0.6905,0.6568,0.0,0.0,0.0,0.0,0.0,0.4859,0.4692,0.4748,0.4852,0.5004,0.0,0.0,0.5395,0.0,0.0,0.0,0.0,0.0,0.5359,0.5409,0.5808,0.6262,0.6858,0.7883,0.8598,0.9092,0.928,0.9529,0.9753,0.9924,1.0013,1.009,0.9943,0.9312,0.8564,0.7837,0.7116,0.638,0.5597,0.5402,0.5308,0.505,0.4638,0.3935,0.2695,0.1789,0.0696,-0.0873,-0.1369,-0.1788,-0.2216,-0.2303,-0.2289,-0.2295,-0.236,-0.2413,-0.2369,-0.2369,-0.2369,-0.2369,-0.2369,-0.2358,-0.2297,-0.2296,-0.2296,-0.2296,-0.2296,-0.2296,-0.2296,-0.2296,-0.2293,-0.2286,-0.224,-0.2216,-0.2207,-0.2188,-0.2198,-0.2197,-0.2191,-0.2188,-0.2188,-0.2188,-0.2188,-0.2188,-0.2188,-0.2173,-0.2118,0.0,0.0,0.0,0.0,0.0,0.0,0.0,1.3099,1.3159,1.3304,1.3021,1.2525,1.1811,1.0202,0.9071,0.0,0.0,0.0,0.0,0.0,0.0,0.0,0.0,0.0,0.0,0.0,0.0,0.6902,0.6558,0.0,0.0,0.0,0.0,0.0,0.0,0.5104,0.4886,0.4899,0.0,0.0,0.0,0.0,0.0,0.0,0.0,0.0,0.0,0.5268,0.4989,0.5811,0.589,0.5788,0.6695,0.7812,0.8841,0.8863,0.9267,0.9734,0.9783,0.9823,0.9777,0.9593,0.8913,0.8134,0.7622,0.6733,0.5899,0.5553,0.5264,0.5036,0.5004,0.5046,0.4531,0.2783,0.2059,0.1081,-0.0757,-0.1566,-0.2033,-0.2193,-0.226,-0.2305,-0.2294,-0.236,-0.2367,-0.2302,-0.23,-0.23,-0.23,-0.23,-0.2299,-0.2296,-0.2296,-0.2296,-0.2296,-0.2296,-0.2296,-0.2296,-0.2296,-0.2283,-0.2294,-0.2289,-0.2272,-0.2209,-0.221,-0.2196,0.0,-0.22,-0.2188,-0.2188,-0.2188,-0.2188,-0.2188,-0.2188,-0.2186,-0.218,0.0,0.0,0.0,0.0,0.0,0.0,1.3272,1.334,1.3534,1.4059,1.3647,1.3201,1.2901,1.1637,1.0436,0.9482,0.0,0.0,0.0,0.0,0.0,0.0,0.0,0.0,0.0,0.0,0.8059,0.7925,0.7791,0.0,0.0,0.0,0.0,0.0,0.0,0.5584,0.5152,0.5352,0.0,0.0,0.0,0.0,0.0,0.0,0.0,0.0,0.0,0.0,0.4835,0.5116,0.5201,0.5242,0.5471,0.6342,0.7433,0.8159,0.8647,0.9005,0.9408,0.9637,0.9726,0.9454,0.8856,0.8147,0.7522,0.6601,0.5814,0.5504,0.5196,0.4998,0.4998,0.4691,0.3996,0.2706,0.1859,0.0844,-0.0716,-0.13,-0.1706,-0.2093,-0.2206,-0.2242,-0.2288,-0.2307,-0.2345,-0.2297,-0.2296,-0.2296,-0.2296,-0.2296,-0.2296,-0.2296,-0.2296,-0.2296,-0.2296,-0.2296,-0.2296,-0.2296,-0.2296,-0.229,-0.2315,-0.2298,-0.2284,-0.227,-0.2221,-0.22,0.0,-0.2201,-0.2188,-0.2188,-0.2188,-0.2188,-0.2188,-0.2188,-0.2188,-0.2186,0.0,0.0,0.0,0.0,0.0,1.304,1.3447,1.3493,1.373,1.4369,1.404,1.3737,1.3686,1.2605,1.1472,1.048,0.9422,0.0,0.0,0.0,0.0,0.0,0.0,0.0,0.0,0.0,0.8752,0.8659,0.8691,0.8616,0.0,0.0,0.7536,0.725,0.0,0.0,0.0,0.0,0.0,0.0,0.0,0.0,0.0,0.0,0.0,0.0,0.0,0.0,0.0,0.0,0.0,0.4781,0.4679,0.5188,0.6065,0.7212,0.7881,0.8329,0.8889,0.9277,0.9462,0.9209,0.8674,0.8035,0.7351,0.649,0.576,0.5458,0.4997,0.464,0.464,0.4007,0.3192,0.2297,0.1451,0.0486,-0.0716,-0.1207,-0.1566,-0.1984,-0.2097,-0.2182,-0.2268,-0.2276,-0.2296,-0.2296,-0.2296,-0.2296,-0.2296,-0.2296,-0.2296,-0.2296,-0.2296,-0.2296,-0.2296,-0.2296,-0.2296,-0.2296,-0.2296,-0.2296,-0.2295,-0.2312,-0.2299,-0.2288,-0.2245,-0.2217,0.0,-0.2211,-0.2197,-0.2188,-0.2188,-0.2188,-0.2188,-0.2188,-0.2188,-0.2188,0.0,0.0,0.0,0.0,0.0,0.0,1.3447,1.3493,1.3649,1.4055,1.41,1.4087,1.4087,1.2718,1.1798,1.1777,1.0559,0.0,0.0,0.0,0.0,0.0,0.0,0.0,0.0,0.0,0.8791,0.8791,0.8934,0.8995,0.8981,0.8711,0.8259,0.7675,0.0,0.0,0.0,0.0,0.0,0.0,0.0,0.0,0.0,0.0,0.0,0.0,0.0,0.0,0.0,0.0,0.0,0.0,0.0,0.4599,0.492,0.5992,0.6988,0.7815,0.8296,0.86,0.8814,0.8811,0.8239,0.7581,0.71,0.6339,0.5645,0.5441,0.4547,0.3811,0.3811,0.3109,0.2249,0.1436,0.0865,0.0179,-0.0777,-0.1364,-0.175,-0.1873,-0.1972,-0.2057,-0.2179,-0.2263,-0.2296,-0.2296,-0.2296,-0.2296,-0.2296,-0.2296,-0.2296,-0.2296,-0.2296,-0.2296,-0.2296,-0.2296,-0.2296,-0.2296,-0.2296,-0.2296,-0.2296,-0.2296,-0.2317,-0.2291,-0.229,-0.2256,0.0,-0.22,-0.2216,-0.2188,-0.2188,-0.2188,-0.2188,-0.2188,-0.2188,-0.2188,0.0,0.0,0.0,0.0,0.0,0.0,0.0,1.3088,1.3232,1.3639,1.3698,1.3792,1.4062,1.3417,1.2928,1.283,1.0677,0.0,0.0,0.0,0.0,0.0,0.0,0.0,0.0,0.0,0.8891,0.9078,0.9116,0.9212,0.9337,0.9259,0.895,0.8441,0.8223,0.7715,0.0,0.0,0.0,0.0,0.0,0.0,0.0,0.0,0.0,0.0,0.0,0.0,0.0,0.0,0.0,0.0,0.0,0.0,0.0,0.5079,0.5867,0.6599,0.6565,0.7162,0.7458,0.617,0.6007,0.5872,0.4909,0.4223,0.3743,0.3579,0.3218,0.2913,0.2913,0.2231,0.1516,0.1033,0.0344,-0.0357,-0.1002,-0.129,-0.1546,-0.1868,-0.2096,-0.2235,-0.2273,-0.2274,-0.2296,-0.2296,-0.2296,-0.2296,-0.2296,-0.2296,-0.2296,-0.2296,-0.2296,-0.2296,-0.2296,-0.2296,-0.2296,-0.2296,-0.2296,-0.2296,-0.2296,-0.2296,-0.2291,-0.2281,-0.2242,-0.2214,-0.2193,-0.2186,-0.2197,-0.2188,-0.2188,-0.2188,-0.2188,-0.2188,-0.2188,-0.2188,0.0,0.0,0.0,0.0,0.0,0.0,0.0,1.2905,1.2981,1.3232,1.3271,1.3437,1.3821,1.3366,1.3059,1.3139,1.1246,0.0,0.0,0.0,0.0,0.0,0.0,0.0,0.0,0.8791,0.8931,0.9197,0.9324,0.9502,0.972,0.9676,0.9489,0.9194,0.8841,0.8341,0.0,0.0,0.0,0.0,0.0,0.0,0.529,0.0,0.0,0.0,0.0,0.0,0.0,0.0,0.0,0.0,0.0,0.0,0.0,0.0,0.5046,0.548,0.5352,0.5697,0.5804,0.4648,0.4586,0.457,0.3721,0.3208,0.2862,0.2737,0.2348,0.2055,0.2055,0.1312,0.0637,0.0416,-0.0191,-0.0745,-0.111,-0.1317,-0.1571,-0.1896,-0.2136,-0.2271,-0.2246,-0.2277,-0.2296,-0.2296,-0.2296,-0.2296,-0.2296,-0.2296,-0.2296,-0.2296,-0.2296,-0.2296,-0.2296,-0.2296,-0.2296,-0.2296,-0.2296,-0.2296,-0.2296,-0.2296,-0.229,-0.2315,-0.2242,-0.2214,0.0,-0.2187,-0.2199,-0.2188,-0.2188,-0.2181,-0.2171,-0.2171,-0.2171,-0.2171,0.0,0.0,0.0,0.0,0.0,0.0,0.0,1.2905,1.2905,1.2905,1.2905,1.304,1.3418,1.273,1.243,1.2854,0.0,0.0,0.0,0.0,0.0,0.0,0.0,0.0,0.8804,0.8791,0.8945,0.923,0.9546,0.984,1.0132,1.0021,0.9953,0.9888,0.9181,0.8743,0.8415,0.0,0.0,0.0,0.0,0.0,0.0,0.0,0.0,0.0,0.0,0.0,0.0,0.0,0.0,0.0,0.0,0.0,0.0,0.0,0.0,0.0,0.0,0.433,0.4042,0.3914,0.3754,0.3537,0.324,0.2924,0.0,0.254,0.181,0.1216,0.1201,0.0373,-0.0315,-0.0338,-0.0721,-0.1031,-0.1122,-0.1484,-0.1787,-0.1992,-0.2126,-0.221,-0.2201,-0.2246,-0.2296,-0.2296,-0.2296,-0.2296,-0.2296,-0.2296,-0.2295,-0.2293,-0.2295,-0.2296,-0.2296,-0.2296,-0.2296,-0.2296,-0.2296,-0.2295,-0.2293,-0.2293,-0.2314,0.0,-0.2286,-0.2252,-0.22,-0.2198,-0.2214,-0.2188,-0.2188,-0.2171,-0.2112,-0.2112,-0.2112,-0.2112,0.0,0.0,0.0,0.0,0.0,0.0,0.0,0.0,0.0,0.0,1.2905,1.2944,1.303,1.2864,1.2785,0.0,0.0,0.0,0.0,0.0,0.0,0.0,0.0,0.0,0.8804,0.8791,0.9065,0.9579,0.9667,0.9962,1.0492,1.0665,1.05,1.0038,0.9764,0.8881,0.7552,0.675,0.0,0.0,0.0,0.0,0.0,0.0,0.0,0.0,0.5173,0.4974,0.0,0.0,0.0,0.0,0.0,0.0,0.0,0.0,0.3946,0.3519,0.3534,0.0,0.3414,0.2133,0.1843,0.1688,0.0,0.0747,0.0672,0.0636,0.0453,0.0298,0.0309,-0.002,-0.0384,-0.0639,-0.091,-0.1173,-0.1432,-0.1749,-0.1976,-0.2064,-0.2204,-0.224,-0.2204,-0.2259,-0.2296,-0.2296,-0.2296,-0.2296,-0.2296,-0.2296,-0.2287,-0.2301,-0.2285,-0.2296,-0.2296,-0.2296,-0.2296,-0.2296,-0.2296,-0.2285,-0.23,-0.23,-0.2285,-0.222,-0.2232,-0.2213,-0.2198,-0.2209,-0.2195,-0.2188,-0.2188,-0.2183,-0.2177,-0.2177,-0.2177,-0.2177,0.0,0.0,0.0,0.0,0.0,0.0,0.0,0.0,0.0,0.0,0.0,0.0,0.0,0.0,0.0,0.0,0.0,0.0,0.0,0.0,0.0,0.0,0.0,0.951,0.891,0.8831,0.9098,0.9701,0.9701,1.0069,1.0771,1.0814,1.0711,1.0485,0.9949,0.9069,0.7927,0.6851,0.6243,0.0,0.5144,0.0,0.0,0.0,0.0,0.0,0.5179,0.497,0.0,0.4639,0.4466,0.43,0.0,0.0,0.0,0.0,0.3775,0.3199,0.3199,0.2837,0.2233,0.1329,0.0895,0.0576,0.0098,0.0,0.0,0.0,0.0,-0.004,-0.0165,-0.0345,-0.0574,-0.0889,-0.1132,-0.1389,-0.1654,-0.1853,-0.2015,-0.2147,-0.2214,-0.224,-0.2248,-0.2278,-0.2296,-0.2296,-0.2296,-0.2296,-0.2296,-0.2296,-0.2283,-0.2292,-0.2318,-0.229,-0.2313,-0.2313,-0.2313,-0.2313,-0.2313,-0.2298,-0.2271,-0.2285,-0.2274,-0.2209,-0.2213,-0.22,-0.2198,-0.2201,-0.2188,-0.2188,-0.2188,-0.218,-0.2167,-0.2167,-0.2167,-0.2167,0.0,0.0,0.0,0.0,0.0,0.0,0.0,0.0,0.0,0.0,0.0,0.0,0.0,0.0,0.0,0.0,0.0,0.0,0.0,0.0,0.0,0.0,0.0,0.974,0.9202,0.8956,0.9119,0.9701,0.9741,1.0169,1.0938,1.0847,1.0854,1.0905,0.9924,0.9164,0.8506,0.7027,0.6286,0.6009,0.4952,0.0,0.0,0.0,0.0,0.0,0.0,0.0,0.0,0.4664,0.4491,0.43,0.43,0.0,0.0,0.0,0.0,0.0,0.3031,0.2084,0.1101,0.1105,0.0545,0.0,0.0,-0.002,-0.0039,0.0,-0.0059,-0.0159,-0.0368,-0.0598,-0.084,-0.1079,-0.1362,-0.1617,-0.1794,-0.1875,-0.2002,-0.2163,-0.2183,-0.2233,-0.2263,-0.2282,-0.2288,-0.2283,-0.2287,-0.2288,-0.2283,-0.2283,-0.227,-0.2278,-0.2269,-0.227,-0.2277,-0.2286,-0.2288,-0.2284,-0.2284,-0.2268,-0.2204,-0.2265,-0.226,-0.2195,0.0,0.0,-0.2191,-0.2199,-0.2186,-0.2181,-0.2186,-0.217,-0.211,-0.2114,-0.2116,-0.2116,0.0,0.0,0.0,0.0,0.0,0.0,0.0,0.0,0.0,0.0,0.0,0.0,0.0,0.0,0.0,0.0,0.0,0.0,0.0,0.0,0.0,1.1955,1.1208,1.0596,1.0111,0.9357,0.9214,0.9701,0.9927,1.0247,1.0673,1.1377,1.133,1.0633,0.9854,0.8836,0.7643,0.6764,0.6124,0.5639,0.4941,0.0,0.0,0.0,0.0,0.0,0.0,0.0,0.0,0.4773,0.4563,0.43,0.43,0.0,0.0,0.0,0.0,0.0,0.2271,0.1703,0.1095,0.1099,0.0543,0.0,0.0,-0.0136,-0.0196,-0.0039,-0.0319,-0.0554,-0.0428,-0.0743,-0.1082,-0.1171,-0.1508,-0.1792,-0.1956,-0.203,-0.2089,-0.211,-0.2155,-0.2189,-0.222,-0.2252,-0.2287,-0.2226,-0.2283,-0.2286,-0.2225,-0.2224,-0.221,-0.2215,-0.2208,-0.221,-0.2215,-0.2265,-0.2278,-0.2217,-0.2217,-0.2201,-0.2207,-0.2212,-0.2197,-0.2202,0.0,-0.2195,-0.2195,-0.219,-0.2173,-0.2119,-0.2178,-0.217,-0.2112,-0.2172,-0.2181,-0.2181,0.0,0.0,0.0,0.0,0.0,0.0,0.0,0.0,0.0,0.0,0.0,0.0,0.0,0.0,0.0,0.0,0.0,0.0,0.0,0.0,0.0,1.2541,1.1626,1.0887,1.0421,0.956,0.9367,0.992,1.0038,1.0347,1.0818,1.1226,1.1032,1.0285,0.9475,0.8596,0.7639,0.6547,0.5835,0.5392,0.0,0.0,0.0,0.0,0.0,0.0,0.0,0.0,0.0,0.0,0.4523,0.4233,0.3825,0.0,0.0,0.0,0.0,0.0,0.1559,0.1044,0.0477,0.0332,0.0137,-0.0062,-0.0323,-0.0365,-0.0369,-0.0415,-0.0608,-0.077,-0.0826,-0.1007,-0.1243,-0.1487,-0.1724,-0.1878,-0.1995,-0.2031,-0.2071,-0.2102,-0.2113,-0.2146,-0.2202,-0.2242,-0.2225,-0.2212,-0.2223,-0.2225,-0.2211,-0.221,-0.2197,-0.2201,-0.2195,-0.2188,-0.221,-0.2219,-0.2234,-0.2186,-0.2186,-0.2205,-0.221,-0.2193,-0.2183,-0.2188,0.0,-0.2188,-0.2188,-0.2188,-0.218,-0.2168,-0.2183,-0.218,-0.2169,-0.2183,-0.2178,-0.2165,0.0,0.0,0.0,0.0,0.0,0.0,0.0,0.0,0.0,0.0,0.0,0.0,0.0,0.0,0.0,0.0,0.0,0.0,0.0,0.0,1.2905,1.2905,1.1962,1.1247,1.0787,0.9811,0.9569,1.0098,1.0187,1.0521,1.1089,1.0972,1.0615,1.0055,0.9091,0.826,0.7516,0.6265,0.5486,0.5075,0.0,0.0,0.0,0.0,0.0,0.0,0.0,0.0,0.0,0.0,0.0,0.0,0.0,0.0,0.0,0.203,0.1377,0.0843,0.0837,0.043,-0.0056,-0.0305,-0.0223,-0.0193,-0.062,-0.0639,-0.0621,-0.0796,-0.0916,-0.1039,-0.1183,-0.127,-0.142,-0.1761,-0.1892,-0.1934,-0.2003,-0.2046,-0.2075,-0.2112,-0.212,-0.2147,-0.2183,-0.2196,-0.2197,-0.219,-0.2196,-0.2197,-0.2189,-0.2183,-0.2169,-0.2179,-0.216,-0.2184,-0.2178,-0.2167,-0.2182,-0.2189,-0.2189,-0.2211,-0.2189,-0.2213,-0.221,-0.2188,-0.2188,-0.2188,-0.2188,-0.2181,-0.2174,-0.2167,-0.2167,-0.2167,-0.2167,-0.2167,-0.2156,-0.2112,0.0,0.0,0.0,0.0,0.0,0.0,0.0,0.0,0.0,0.0,0.0,0.0,0.0,0.0,0.0,0.0,0.0,0.0,0.0,0.0,1.2905,1.2905,1.2463,1.2037,1.1617,1.0333,0.9811,1.0098,1.041,1.0845,1.1366,1.0858,1.0437,1.0048,0.8796,0.7669,0.6635,0.585,0.515,0.456,0.4519,0.0,0.0,0.0,0.0,0.0,0.0,0.0,0.0,0.0,0.0,0.0,0.0,0.0,0.1244,0.1193,0.0656,0.0085,0.0072,0.0036,-0.0055,-0.0252,-0.03,-0.0374,-0.0705,-0.0924,-0.1016,-0.0914,-0.125,-0.1479,-0.1241,-0.1463,-0.1706,-0.1859,-0.1954,-0.2001,-0.2091,-0.2157,-0.2178,-0.2184,-0.2185,-0.2188,-0.2195,-0.2187,-0.2191,-0.2197,-0.2187,-0.2191,-0.2197,-0.2134,-0.2118,-0.2116,-0.2123,-0.2121,-0.2112,-0.2115,-0.213,-0.2192,-0.2192,-0.219,-0.2188,-0.219,-0.219,-0.2188,-0.2188,-0.2188,-0.2186,-0.2124,-0.2096,-0.2103,-0.2103,-0.2103,-0.2103,-0.2103,-0.212,-0.211,0.0,0.0,0.0,0.0,0.0,0.0,0.0,0.0,0.0,0.0,0.0,0.0,0.0,0.0,0.0,0.0,0.0,0.0,0.0,1.2905,1.2905,1.2905,1.2007,1.1488,1.1448,1.0877,1.0516,1.041,1.0539,1.0707,1.0891,1.0474,0.9938,0.9246,0.8129,0.7108,0.6174,0.5357,0.4849,0.461,0.4528,0.4583,0.0,0.0,0.0,0.0,0.0,0.0,0.0,0.0,0.3437,0.288,0.2128,0.1528,0.1008,0.0555,0.0219,0.0,0.0,0.0,-0.0094,-0.0459,-0.054,-0.0632,-0.0909,-0.1069,-0.1196,-0.1368,-0.1572,-0.1705,-0.1589,-0.1679,-0.1781,-0.1875,-0.1976,-0.2061,-0.2104,-0.2119,-0.2126,-0.2126,-0.2143,-0.2131,-0.2131,-0.2141,-0.2143,-0.2132,-0.2142,-0.2143,-0.2132,-0.212,-0.2114,-0.2114,-0.2089,-0.2089,-0.2114,-0.21,-0.2106,-0.2132,-0.215,-0.2126,-0.2126,-0.2126,-0.217,-0.2188,-0.2188,-0.2177,-0.2125,-0.2114,-0.2091,-0.2096,-0.2096,-0.2084,-0.2038,-0.2089,-0.2604,-0.3175,0.0,0.0,0.0,0.0,0.0,0.0,0.0,0.0,0.0,0.0,0.0,0.0,0.0,0.0,0.0,0.0,0.0,0.0,1.2895,1.2905,1.2905,1.2905,1.1942,1.1382,1.1291,1.1095,1.0758,1.0311,1.0311,1.0311,1.0311,1.0074,0.9504,0.8636,0.7717,0.6788,0.5883,0.5045,0.4671,0.4623,0.4532,0.4552,0.0,0.0,0.0,0.0,0.0,0.0,0.0,0.0,0.297,0.2442,0.1425,0.0945,0.0648,0.0151,0.0,-0.0017,-0.0084,-0.0088,-0.0185,-0.0579,-0.0756,-0.0876,-0.1084,-0.1227,-0.1412,-0.1669,-0.1762,-0.1814,-0.1815,-0.1811,-0.1814,-0.1892,-0.2024,-0.2107,-0.2105,-0.2118,-0.212,-0.211,-0.2091,-0.2107,-0.2097,-0.2087,-0.2082,-0.2082,-0.2465,-0.2524,-0.21,-0.284,-0.3095,-0.2669,-0.3079,-0.3119,-0.2688,-0.2715,-0.249,-0.2082,-0.249,-0.2475,-0.2095,-0.2095,-0.2139,-0.2159,-0.2159,-0.2147,-0.2094,-0.2084,-0.2063,-0.2068,-0.2068,-0.2275,-0.2569,-0.2186,-0.2882,-0.3877,0.0,0.0,0.0,0.0,0.0,0.0,0.0,0.0,0.0,0.0,0.0,0.0,0.0,0.0,0.0,0.0,0.0,0.0,1.2854,1.2905,1.2905,1.2893,1.2503,1.1978,1.1291,1.0892,1.0358,0.9701,0.9701,0.9701,0.9701,0.9701,0.923,0.8358,0.7615,0.6729,0.5748,0.5002,0.4617,0.4508,0.4508,0.4508,0.4508,0.0,0.0,0.0,0.0,0.0,0.0,0.0,0.2512,0.1708,0.1232,0.058,0.0,0.0,0.0,-0.0051,-0.0236,-0.0292,-0.0353,-0.0544,-0.0846,-0.1121,-0.1195,-0.1402,-0.1634,-0.1781,-0.1821,-0.1834,-0.1927,-0.1894,-0.1854,-0.1916,-0.2036,-0.2138,-0.2104,-0.2168,-0.2209,-0.2112,-0.2108,-0.2129,-0.2131,-0.2067,-0.2049,-0.2049,-0.3274,-0.3442,-0.2101,-0.4495,-0.5304,-0.397,-0.5194,-0.5293,-0.4026,-0.4027,-0.3337,-0.2049,-0.3369,-0.3363,-0.2128,-0.2128,-0.2128,-0.2128,-0.2128,-0.2128,-0.2126,-0.2062,-0.2033,-0.2008,-0.2008,-0.2774,-0.3753,-0.2468,-0.2863,-0.4027,0.0,0.0,0.0,0.0,0.0,0.0,0.0,0.0,0.0,0.0,0.0,0.0,0.0,0.0,0.0,0.0,0.0,0.0,1.24,1.2727,1.2725,1.2348,1.1644,1.0986,1.0392,0.9709,0.9473,0.9701,0.9701,0.9701,0.9679,0.9172,0.8507,0.7724,0.6803,0.5986,0.5273,0.4773,0.464,0.4775,0.4681,0.4702,0.4772,0.0,0.0,0.0,0.0,0.0,0.0,0.0,0.0,0.0,0.0509,0.0174,0.0,0.0,0.0,-0.0017,-0.0067,-0.0087,-0.0182,-0.057,-0.0784,-0.0991,-0.1391,-0.157,-0.1955,-0.2987,-0.3217,-0.3497,-0.4453,-0.4633,-0.4625,-0.4634,-0.4723,-0.4449,-0.3565,-0.3459,-0.3463,-0.3447,-0.3382,-0.3729,-0.4675,-0.4747,-0.4734,-0.4734,-0.5104,-0.5157,-0.4768,-0.5492,-0.5709,-0.5316,-0.5681,-0.5726,-0.5351,-0.5346,-0.5128,-0.4734,-0.5135,-0.468,-0.3455,-0.4369,-0.4807,-0.4791,-0.3862,-0.3934,-0.4711,-0.374,-0.3338,-0.3325,-0.3325,-0.357,-0.3845,-0.3479,-0.4196,-0.5197,0.0,0.0,0.0,0.0,0.0,0.0,0.0,0.0,0.0,0.0,0.0,0.0,0.0,0.0,0.0,0.0,0.0,0.0,0.0,1.2238,1.2072,1.1978,1.0889,1.0032,0.9536,0.9048,0.8985,0.9339,0.9339,0.9392,0.9491,0.8889,0.8199,0.7461,0.6696,0.5863,0.501,0.4823,0.4765,0.4811,0.4796,0.4821,0.4886,0.0,0.0,0.0,0.0,0.0,0.0,0.0,0.0,0.0,0.0198,0.0,0.0,0.0,0.0,-0.0034,-0.0188,-0.0249,-0.0375,-0.0837,-0.1022,-0.133,-0.2178,-0.2458,-0.2921,-0.4288,-0.4563,-0.4843,-0.5684,-0.5825,-0.5806,-0.5845,-0.5829,-0.5561,-0.4863,-0.4717,-0.4717,-0.4748,-0.4709,-0.5,-0.5762,-0.5782,-0.5746,-0.5711,-0.6183,-0.6257,-0.5745,-0.6748,-0.713,-0.6605,-0.7141,-0.7168,-0.6575,-0.6573,-0.6309,-0.5762,-0.6243,-0.6092,-0.5357,-0.5729,-0.5915,-0.5902,-0.5115,-0.5183,-0.585,-0.5027,-0.4702,-0.4702,-0.4702,-0.4702,-0.4702,-0.4702,-0.5192,-0.5865,0.0,0.0,0.0,0.0,0.0,0.0,0.0,0.0,0.0,0.0,0.0,0.0,0.0,0.0,0.0,0.0,0.0,0.0,0.0,0.0,1.1129,1.165,1.0249,0.9251,0.8818,0.8791,0.8791,0.8791,0.8791,0.8898,0.9107,0.8679,0.8098,0.7384,0.6946,0.605,0.4909,0.5011,0.4906,0.4719,0.4828,0.4892,0.4886,0.4748,0.0,0.0,0.0,0.0,0.0,0.0,0.0,0.0,0.0166,0.0,0.0,0.0,0.0,-0.0085,-0.0471,-0.062,-0.0772,-0.1189,-0.1543,-0.2145,-0.3502,-0.3971,-0.4462,-0.5621,-0.5928,-0.6017,-0.6211,-0.6172,-0.6169,-0.6211,-0.6122,-0.6029,-0.6046,-0.5994,-0.5963,-0.6027,-0.6027,-0.6025,-0.6041,-0.5976,-0.5891,-0.5772,-0.6881,-0.7036,-0.5837,-0.8191,-0.9019,-0.7802,-0.9069,-0.9112,-0.779,-0.776,-0.7109,-0.5866,-0.7036,-0.759,-0.754,-0.6642,-0.6152,-0.6069,-0.62,-0.611,-0.5896,-0.6018,-0.608,-0.608,-0.608,-0.608,-0.608,-0.608,-0.608,-0.6263,0.0,0.0,0.0,0.0,0.0,0.0,0.0,0.0,0.0,0.0,0.0,0.0,0.0,0.0,0.0,0.0,0.0,0.0,0.0,0.0,1.0842,1.0702,0.9675,0.9018,0.8804,0.8791,0.8791,0.8791,0.8791,0.8669,0.8397,0.785,0.7265,0.6681,0.591,0.5325,0.4889,0.4708,0.4654,0.4708,0.4724,0.4813,0.4886,0.4748,0.4629,0.0,0.0,0.0,0.0,0.0,0.0,0.0,0.0044,0.0,0.0,0.0,0.0,-0.0068,-0.0357,-0.0462,-0.0586,-0.1103,-0.2173,-0.3653,-0.5827,-0.6479,-0.6744,-0.7112,-0.7199,-0.7552,-0.8594,-0.8784,-0.8766,-0.8654,-0.8619,-0.8243,-0.7229,-0.7054,-0.7054,-0.7084,-0.7084,-0.7479,-0.8491,-0.8577,-0.8575,-0.8547,-0.8807,-0.8852,-0.8561,-0.9113,-0.9298,-0.9029,-0.9322,-0.9342,-0.9017,-0.9017,-0.8852,-0.8558,-0.8852,-0.8968,-0.8971,-0.8737,-0.8139,-0.7305,-0.8457,-0.7795,-0.5988,-0.7029,-0.7459,-0.7459,-0.7459,-0.7459,-0.7459,-0.7459,-0.7459,-0.7477,0.0,0.0,0.0,0.0,0.0,0.0,0.0,0.0,0.0,0.0,0.0,0.0,0.0,0.0,0.0,0.0,0.0,0.0,0.0,0.0,0.9816,0.9411,0.9081,0.887,0.8804,0.8791,0.8791,0.8791,0.8514,0.8368,0.8371,0.7382,0.6835,0.6658,0.5776,0.5203,0.4899,0.4819,0.4748,0.4712,0.4769,0.4875,0.4941,0.4459,0.4219,0.3991,0.2739,0.0,0.0,0.0,0.0,0.0,0.0,0.0,0.0,0.0,0.0,-0.0068,-0.0407,-0.052,-0.08,-0.1887,-0.3267,-0.4834,-0.661,-0.7576,-0.8164,-0.8338,-0.8405,-0.8667,-0.9382,-0.95,-0.9473,-0.9424,-0.9349,-0.9095,-0.8433,-0.8297,-0.8279,-0.8346,-0.8352,-0.862,-0.9247,-0.9301,-0.9271,-0.9174,-0.9167,-0.9167,-0.9167,-0.9264,-0.9301,-0.9301,-0.9373,-0.9376,-0.9301,-0.9301,-0.9264,-0.9167,-0.9167,-0.9167,-0.9174,-0.9317,-0.9072,-0.8493,-0.9278,-0.8828,-0.7627,-0.8319,-0.862,-0.8626,-0.869,-0.8323,-0.7843,-0.8541,-0.8437,-0.7969,0.0,0.0,0.0,0.0,0.0,0.0,0.0,0.0,0.0,0.0,0.0,0.0,0.0,0.0,0.0,0.0,0.0,0.0,0.0,0.0,0.0,0.8391,0.8638,0.8791,0.8791,0.8699,0.8665,0.8691,0.8003,0.7865,0.824,0.7026,0.6544,0.6695,0.588,0.5291,0.4943,0.5011,0.4899,0.4715,0.4815,0.4933,0.4934,0.4117,0.3771,0.352,0.1954,0.1257,0.0952,0.0245,0.0,0.0,0.0,0.0,0.0,0.0,0.0,-0.0085,-0.0455,-0.0678,-0.1227,-0.3048,-0.4393,-0.56,-0.6907,-0.8065,-0.8912,-0.9114,-0.9264,-0.9373,-0.9373,-0.9373,-0.9362,-0.931,-0.9226,-0.9189,-0.9286,-0.9223,-0.9192,-0.9289,-0.9306,-0.9256,-0.9155,-0.9145,-0.9066,-0.8919,-0.8912,-0.8912,-0.8912,-0.9052,-0.9145,-0.9145,-0.9267,-0.9271,-0.9145,-0.9145,-0.9055,-0.8912,-0.8912,-0.8912,-0.8919,-0.9195,-0.9345,-0.9373,-0.9396,-0.941,-0.941,-0.941,-0.941,-0.9427,-0.9551,-0.8918,-0.8092,-0.9341,-0.9143,-0.8371,0.0,0.0,0.0,0.0,0.0,0.0,0.0,0.0,0.0,0.0,0.0,0.0,0.0,0.0,0.0,0.0,0.0,0.0,1.0429,0.0,0.0,0.866,0.8753,0.8791,0.8791,0.8282,0.8113,0.8287,0.7203,0.6778,0.6943,0.6464,0.6167,0.6013,0.5429,0.5138,0.5056,0.485,0.4724,0.4708,0.4714,0.4731,0.4688,0.4037,0.3648,0.327,0.1895,0.1198,0.0827,0.0216,0.0,0.0,0.0,0.0,0.0,0.0,0.0,-0.0068,-0.0358,-0.0782,-0.1696,-0.409,-0.4912,-0.572,-0.7949,-0.8588,-0.8757,-0.8909,-0.9083,-0.9241,-0.9241,-0.9241,-0.9172,-0.899,-0.8953,-0.8946,-0.8967,-0.8953,-0.8946,-0.8967,-0.897,-0.8963,-0.894,-0.894,-0.8933,-0.8912,-0.8912,-0.8912,-0.8912,-0.8929,-0.894,-0.894,-0.896,-0.896,-0.894,-0.894,-0.8929,-0.8912,-0.8912,-0.8912,-0.8912,-0.8953,-0.9066,-0.922,-0.9352,-0.941,-0.941,-0.941,-0.941,-0.9427,-0.9551,-0.9489,-0.9384,-0.9677,-0.9697,-0.9539,0.0,0.0,0.0,0.0,0.0,0.0,0.0,0.0,0.0,0.0,0.0,0.0,0.0,0.0,0.0,1.131,1.1217,1.0745,0.9797,0.9139,0.8761,0.8705,0.876,0.8791,0.8791,0.8216,0.7949,0.8029,0.6886,0.6423,0.6572,0.6012,0.5786,0.5836,0.5517,0.5342,0.5247,0.503,0.4875,0.4775,0.4365,0.4194,0.4075,0.3027,0.2451,0.2098,0.1133,0.061,0.0349,0.0097,0.0,0.0,0.0,0.0,0.0,0.0,0.0,-0.0068,-0.0413,-0.0772,-0.1597,-0.3918,-0.4694,-0.5467,-0.768,-0.834,-0.853,-0.8737,-0.8859,-0.893,-0.9018,-0.9032,-0.9011,-0.8923,-0.8912,-0.8912,-0.8912,-0.8912,-0.8912,-0.8912,-0.8912,-0.8912,-0.8912,-0.8912,-0.8912,-0.8912,-0.8912,-0.8912,-0.8912,-0.8912,-0.8912,-0.8912,-0.8912,-0.8912,-0.8912,-0.8912,-0.8912,-0.8912,-0.8912,-0.8912,-0.8912,-0.8912,-0.8946,-0.9035,-0.9103,-0.9133,-0.9133,-0.9133,-0.9133,-0.9147,-0.9296,-0.9383,-0.94,-0.952,-0.9574,-0.9554,0.0,0.0,0.0,0.0,0.0,0.0,0.0,0.0,0.0,0.0,0.0,0.0,0.0,0.0,0.0,0.0,1.1262,1.0553,0.9589,0.9007,0.8722,0.8773,0.8788,0.8725,0.8573,0.8024,0.7667,0.7498,0.6576,0.6162,0.6207,0.5728,0.5585,0.5734,0.5617,0.5484,0.5385,0.518,0.4942,0.4646,0.4038,0.3682,0.3387,0.214,0.1515,0.1207,0.0539,0.0,0.0,0.0,0.0,0.0,0.0,0.0,0.0,0.0,0.0,-0.0085,-0.0425,-0.0677,-0.135,-0.3505,-0.4278,-0.5072,-0.721,-0.7903,-0.8175,-0.8523,-0.8598,-0.8645,-0.8767,-0.8858,-0.8912,-0.8912,-0.8912,-0.8896,-0.8858,-0.8885,-0.8882,-0.8804,-0.8828,-0.8838,-0.8798,-0.8831,-0.8852,-0.8852,-0.8889,-0.8892,-0.8855,-0.8852,-0.8835,-0.8798,-0.8794,-0.8794,-0.8794,-0.8835,-0.8872,-0.8912,-0.8912,-0.8912,-0.8912,-0.8912,-0.8912,-0.8912,-0.8912,-0.8912,-0.8912,-0.8912,-0.8912,-0.8926,-0.9124,-0.921,-0.9228,-0.9352,-0.941,-0.9403,0.0,0.0,0.0,0.0,0.0,0.0,0.0,0.0,0.0,0.0,0.0,0.0,1.2296,1.2181,1.2174,1.2174,1.168,1.1019,1.0216,0.9242,0.8781,0.8974,0.8864,0.0,0.7957,0.7547,0.7027,0.6387,0.6071,0.5754,0.5463,0.5678,0.5724,0.56,0.547,0.5402,0.5385,0.518,0.0,0.0,0.0,0.338,0.2677,0.1904,0.1473,0.1207,0.0539,0.0,0.0,0.0,0.0,0.0,0.0,0.0,0.0,0.0,0.0,0.0,-0.0254,-0.0457,-0.1102,-0.3124,-0.3838,-0.4633,-0.6898,-0.743,-0.7607,-0.8196,-0.8318,-0.8362,-0.8505,-0.8716,-0.8912,-0.8912,-0.8912,-0.8862,-0.8716,-0.8821,-0.8804,-0.854,-0.8632,-0.8665,-0.852,-0.8635,-0.8723,-0.8723,-0.8828,-0.8848,-0.873,-0.8723,-0.8655,-0.8536,-0.8532,-0.8532,-0.8532,-0.8648,-0.8767,-0.8912,-0.8912,-0.8912,-0.8912,-0.8912,-0.8912,-0.8912,-0.8912,-0.8912,-0.8912,-0.8912,-0.8912,-0.8926,-0.9124,-0.921,-0.9228,-0.9352,-0.941,-0.939,0.0,0.0,0.0,0.0,0.0,0.0,0.0,0.0,0.0,0.0,0.0,0.0,0.0,1.2644,1.2515,1.2168,1.1205,1.0313,0.9607,0.9145,0.8931,0.8995,0.887,0.8578,0.8102,0.7493,0.6924,0.6432,0.5864,0.5526,0.5398,0.5489,0.5524,0.5481,0.5505,0.5525,0.5515,0.5358,0.0,0.0,0.0,0.0,0.0,0.0,0.0,0.0,0.0,0.0,0.0,0.0,0.0,0.0,0.0,0.0,0.0,0.0,0.0,-0.0051,-0.0253,-0.041,-0.0872,-0.2285,-0.3228,-0.4196,-0.5662,-0.6484,-0.7107,-0.7614,-0.7794,-0.7913,-0.8128,-0.8442,-0.8645,-0.8645,-0.8645,-0.8625,-0.857,-0.8611,-0.8604,-0.8522,-0.853,-0.854,-0.8512,-0.8621,-0.8669,-0.857,-0.8706,-0.8726,-0.857,-0.8564,-0.8537,-0.8509,-0.8509,-0.8509,-0.8509,-0.8537,-0.8591,-0.8648,-0.872,-0.8767,-0.8767,-0.8865,-0.8912,-0.8912,-0.8912,-0.8912,-0.8912,-0.8912,-0.8912,-0.8916,-0.8967,-0.9015,-0.9022,-0.9048,-0.9071,-0.9061,0.0,0.0,0.0,0.0,0.0,0.0,0.0,0.0,0.0,0.0,0.0,0.0,0.0,0.0,1.248,1.1731,1.0736,0.9852,0.9172,0.9048,0.8982,0.8929,0.8718,0.8351,0.7838,0.7262,0.6663,0.6031,0.5652,0.5415,0.53,0.5371,0.5395,0.5399,0.5227,0.5133,0.0,0.0,0.0,0.3145,0.0,0.0,0.0908,0.0,0.0,0.0,0.0,0.0,0.0,0.0,0.0,0.0,0.0,0.0,0.0,0.0,0.0,-0.0034,-0.0169,-0.0354,-0.0795,-0.2008,-0.2917,-0.3857,-0.5111,-0.5925,-0.6539,-0.7066,-0.7227,-0.7404,-0.7726,-0.7977,-0.8185,-0.8309,-0.8333,-0.8333,-0.8333,-0.8333,-0.8333,-0.8333,-0.8333,-0.8333,-0.8333,-0.8472,-0.852,-0.8444,-0.855,-0.8567,-0.8444,-0.836,-0.8289,-0.8191,-0.8282,-0.8333,-0.8333,-0.841,-0.8461,-0.8509,-0.8584,-0.8632,-0.8638,-0.8767,-0.8835,-0.8838,-0.8889,-0.8912,-0.8912,-0.8912,-0.8912,-0.8912,-0.8912,-0.8912,-0.8912,-0.8912,-0.8912,-0.8912,0.0,0.0,0.0,0.0,0.0,0.0,0.0,0.0,0.0,1.3717,0.0,0.0,0.0,0.0,0.0,1.09,1.0308,0.9714,0.9062,0.8996,0.893,0.8805,0.8393,0.7827,0.7105,0.6821,0.6171,0.5119,0.5435,0.5424,0.511,0.5307,0.5395,0.5329,0.4605,0.4151,0.3932,0.0,0.3045,0.1575,0.0,0.089,0.027,0.0,0.0,0.0,0.0,0.0,0.0,0.0,0.0,0.0,0.0,0.0,0.0,0.0,0.0,0.0,0.0,0.0,0.0,-0.2312,-0.2913,-0.3615,-0.5364,-0.5757,-0.5944,-0.6552,-0.6678,-0.6814,-0.728,-0.7365,-0.7512,-0.7898,-0.7986,-0.7978,-0.7978,-0.7978,-0.7978,-0.7978,-0.7978,-0.7978,-0.7978,-0.817,-0.8284,-0.8277,-0.8413,-0.843,-0.8284,-0.8084,-0.7871,-0.7607,-0.7854,-0.7978,-0.7978,-0.818,-0.8352,-0.8488,-0.8498,-0.8502,-0.8505,-0.8635,-0.8703,-0.8713,-0.8838,-0.8902,-0.8902,-0.8909,-0.8912,-0.8912,-0.8912,-0.8912,-0.8912,-0.8912,-0.8912,-0.8912,0.0,0.0,0.0,0.0,0.0,0.0,1.5119,1.472,1.4211,0.0,0.0,0.0,1.3042,1.2439,1.1698,1.0814,1.0239,0.9806,0.9524,0.9015,0.8696,0.8653,0.7944,0.7324,0.6823,0.6495,0.6042,0.5456,0.5462,0.5404,0.5314,0.5375,0.511,0.4589,0.4234,0.3413,0.231,0.2928,0.0,0.1374,0.1323,0.0806,0.0,0.0,0.0,0.0,0.0,0.0,0.0,0.0,0.0,0.0,0.0,0.0,0.0,0.0,0.0,0.0,0.0,0.0,0.0,0.0,0.0,0.0,-0.4368,-0.4783,-0.5077,-0.5882,-0.612,-0.6288,-0.6546,-0.6692,-0.6784,-0.6906,-0.7366,-0.7723,-0.7723,-0.7723,-0.7723,-0.7723,-0.7723,-0.7723,-0.7723,-0.7929,-0.7989,0.0,-0.8018,-0.8027,-0.7801,-0.7743,-0.7685,-0.76,-0.7678,-0.7723,-0.7723,-0.7865,-0.7957,-0.8001,-0.8247,-0.8355,-0.8359,-0.8505,-0.8547,-0.8554,-0.8706,-0.8747,-0.8754,-0.8865,-0.8912,-0.8912,-0.8912,-0.8912,-0.8912,-0.8912,-0.8912,-0.8912,0.0,0.0,0.0,0.0,0.0,0.0,1.4455,1.4083,1.372,0.0,0.0,0.0,1.2391,1.1726,1.1127,1.0651,1.0128,0.9644,0.9266,0.883,0.8443,0.8069,0.741,0.688,0.65,0.6137,0.5813,0.5521,0.5442,0.5395,0.5395,0.5093,0.4672,0.4151,0.0,0.0,0.0,0.0,0.0,0.0,0.0755,0.0,0.0,0.0,0.0,0.0,0.0,0.0,0.0,0.0,0.0,0.0,0.0,0.0,0.0,0.0,0.0,0.0,0.0,0.0,0.0,0.0,0.0,0.0,-0.4337,-0.458,-0.4668,-0.554,-0.5783,-0.5911,-0.6125,-0.623,-0.6308,-0.6412,-0.6773,-0.7105,-0.7295,-0.7265,-0.7272,-0.7371,-0.7334,-0.737,-0.7492,-0.7658,-0.7716,-0.7607,-0.7732,-0.7729,-0.7516,-0.7563,-0.7543,-0.7391,-0.7533,-0.757,-0.7529,-0.7648,-0.7753,-0.7814,-0.7994,-0.8113,-0.818,-0.8352,-0.842,-0.843,-0.855,-0.8615,-0.8628,-0.8754,-0.8852,-0.8912,-0.8912,-0.8912,-0.8912,-0.8912,-0.8912,-0.8912,0.0,0.0,0.0,1.5153,1.5017,1.4636,1.3601,1.3423,1.3323,0.0,1.2369,1.175,1.1354,1.0898,1.0581,1.0523,1.0,0.9406,0.8738,0.8545,0.8103,0.732,0.6832,0.644,0.614,0.577,0.5521,0.5395,0.5395,0.5342,0.5226,0.4572,0.4084,0.368,0.0,0.0,0.0,0.0,0.0,0.0,0.0,0.0,0.0,0.0,0.0,0.0,0.0,0.0,0.0,0.0,0.0,0.0,0.0,0.0,0.0,0.0,0.0,0.0,0.0,0.0,0.0,0.0,-0.2251,0.0,-0.4761,-0.4784,-0.4554,-0.5401,-0.5583,-0.5644,-0.589,-0.5951,-0.6008,-0.6201,-0.6238,-0.6386,-0.6793,-0.6749,-0.6756,-0.7012,-0.6921,-0.6966,-0.7267,-0.7308,-0.7376,-0.7492,-0.7499,-0.7441,-0.7328,-0.7441,-0.7367,-0.7055,-0.7367,-0.7475,-0.7345,-0.7492,-0.7638,-0.7763,-0.7794,-0.7851,-0.7969,-0.815,-0.8243,-0.8253,-0.8396,-0.8468,-0.8495,-0.8621,-0.8747,-0.8889,-0.8902,-0.8912,-0.8912,-0.8912,-0.8912,-0.8912,0.0,0.0,0.0,1.4971,1.4538,1.4101,1.3768,1.3575,1.3267,1.2689,1.2203,1.1786,1.1487,1.1378,1.1117,1.0614,0.9938,0.9477,0.9336,0.8164,0.7399,0.7223,0.631,0.578,0.5714,0.554,0.5428,0.5395,0.5395,0.5007,0.4267,0.4132,0.3347,0.2043,0.1608,0.0,0.0,0.0,0.0,0.0,0.0,0.0,0.0,0.0,0.0,0.0,0.0,0.0,0.0,0.0,0.0,0.0,0.0,0.0,0.0,0.0,0.0,0.0,0.0,0.0,0.0,0.0,0.0,0.0,-0.4141,-0.4481,-0.4654,-0.5306,-0.544,-0.5457,-0.5515,-0.561,-0.5684,-0.5732,-0.5835,-0.6047,-0.6518,-0.6457,-0.643,-0.6603,-0.6498,-0.6477,-0.6651,-0.678,-0.6844,-0.6875,-0.6878,-0.6861,-0.6834,-0.6955,-0.6955,-0.6793,-0.7053,-0.7137,-0.6995,-0.7282,-0.7454,-0.7481,-0.7699,-0.7767,-0.7692,-0.7834,-0.7902,-0.7909,-0.8037,-0.8197,-0.8349,-0.8495,-0.8618,-0.874,-0.8865,-0.8912,-0.8912,-0.8912,-0.8912,-0.8912,0.0,0.0,1.459,1.4384,1.4095,1.3841,1.3678,1.3278,1.2929,1.2722,1.2125,1.1531,1.1101,1.1052,1.0753,1.0015,0.9604,0.9053,0.8253,0.7474,0.6854,0.6416,0.5894,0.5567,0.5504,0.5442,0.5395,0.5395,0.4938,0.447,0.3982,0.318,0.2327,0.1425,0.099,0.0,0.0,0.0,0.0,0.0,0.0,0.0,0.0,0.0,0.0,-0.0017,-0.0118,-0.0152,-0.0152,-0.0152,-0.0084,0.0,0.0,-0.0067,-0.0135,0.0,-0.0067,-0.0135,0.0,0.0,0.0,-0.14,0.0,0.0,0.0,-0.4359,-0.46,-0.5355,-0.5446,-0.5419,-0.5494,-0.5494,-0.5494,-0.5494,-0.5552,-0.5705,-0.6008,-0.6049,-0.6076,-0.6148,-0.6093,-0.6107,-0.6237,-0.6302,-0.64,-0.6495,-0.6566,-0.6607,-0.6607,-0.6732,-0.678,-0.6702,-0.6823,-0.6901,-0.6908,-0.7075,-0.7224,-0.7396,-0.7546,-0.7594,-0.7604,-0.7746,-0.7811,-0.7797,-0.7949,-0.8057,-0.8167,-0.8342,-0.8447,-0.8513,-0.871,-0.8845,-0.8912,-0.8912,-0.8912,-0.8912,1.4587,0.0,0.0,1.3912,1.3871,1.3799,1.361,1.3077,1.2677,1.2643,1.1714,1.0888,1.0396,1.0199,0.982,0.9144,0.8943,0.8295,0.7026,0.6749,0.6334,0.563,0.5583,0.5504,0.5395,0.5259,0.5176,0.5123,0.4234,0.368,0.3447,0.2143,0.1358,0.1023,0.0488,0.0,0.0,0.0,0.0,-0.0051,0.0,-0.0034,0.0,-0.0051,-0.0051,-0.0084,-0.027,-0.0337,-0.0337,-0.0303,-0.0185,-0.0051,-0.0051,-0.0169,0.0,0.0,0.0,0.0,0.0,0.0,0.0,0.0,0.0,-0.2324,0.0,0.0,0.0,-0.5422,-0.5481,-0.5433,-0.5539,-0.5477,-0.5385,-0.5354,-0.5375,-0.5429,-0.5488,-0.5627,-0.5728,-0.5755,-0.5735,-0.5776,-0.591,-0.5951,-0.6037,-0.6182,-0.6297,-0.6375,-0.6406,-0.6532,-0.6617,-0.6617,-0.6671,-0.6759,-0.686,-0.6894,-0.7043,-0.7348,-0.7379,-0.7444,-0.7516,-0.7662,-0.7743,-0.7777,-0.7875,-0.7987,-0.8098,-0.8249,-0.8369,-0.8475,-0.8617,-0.8733,-0.8869,-0.8869,-0.8885,-0.8912,1.4572,1.4192,0.0,0.0,1.4116,1.4017,1.388,1.3579,1.297,1.1812,1.0436,0.9524,0.945,0.8758,0.8304,0.0,0.7617,0.7148,0.7073,0.6243,0.5699,0.56,0.5491,0.5408,0.5395,0.4755,0.4337,0.4168,0.3397,0.2544,0.1608,0.1424,0.0906,0.0152,0.0067,0.0,0.0,0.0,-0.0101,0.0,-0.027,-0.0152,0.0,-0.0202,-0.027,-0.0286,-0.0421,-0.0472,-0.0455,0.0,-0.0286,-0.027,0.0,-0.0286,-0.0303,-0.027,0.0,0.0,0.0,0.0,0.0,0.0,-0.2326,0.0,0.0,0.0,-0.5443,-0.543,0.0,-0.5399,-0.5419,0.0,0.0,-0.5163,-0.529,-0.5334,-0.5183,-0.5331,-0.5494,-0.5613,-0.5511,-0.5504,-0.5627,-0.5752,-0.5833,-0.5854,-0.5867,-0.5935,-0.6052,-0.6246,-0.6351,-0.6351,-0.6586,-0.6709,-0.6725,-0.684,-0.6985,-0.7148,-0.7305,-0.7309,-0.7152,-0.7353,-0.7519,-0.7624,-0.7641,-0.7918,-0.8361,-0.8379,-0.8643,-0.8969,-0.8654,-0.8601,-0.871,-0.871,-0.8794,-0.8912,1.4177,1.3887,0.0,0.0,1.3678,1.3467,1.3644,1.2903,1.1973,1.0942,1.0263,0.969,0.9176,0.0,0.0,0.0,0.0,0.6597,0.0,0.0,0.0,0.5491,0.5425,0.5395,0.5395,0.4569,0.4084,0.3999,0.2644,0.1742,0.129,0.0789,0.0353,0.0,-0.0118,0.0,-0.0169,0.0,-0.027,0.0,0.0,0.0,0.0,-0.0388,-0.0489,-0.059,-0.0657,-0.0674,-0.0657,0.0,-0.0506,0.0,0.0,0.0,0.0,0.0,0.0,0.0,0.0,0.0,0.0,0.0,0.0,0.0,-0.4197,0.0,-0.5481,0.0,0.0,0.0,0.0,0.0,0.0,0.0,-0.5351,-0.5371,-0.529,-0.5354,-0.5419,-0.5484,-0.5433,-0.5419,-0.5484,-0.5528,-0.5562,-0.5562,-0.5647,-0.5705,-0.5772,-0.5915,-0.6052,-0.6125,-0.6228,-0.6393,-0.6586,-0.6719,-0.685,-0.6995,-0.7144,-0.7181,-0.7102,-0.7299,-0.743,-0.7495,-0.7697,-0.7978,-0.8304,-0.8447,-0.8689,-0.8912,-0.8726,-0.8733,-0.8833,-0.889,-0.8858,-0.8791,1.4066,0.0,0.0,0.0,1.3386,1.3031,1.2915,1.2073,1.1146,1.0333,0.9849,0.9342,0.8715,0.8325,0.0,0.0,0.6269,0.5865,0.0,0.0,0.4974,0.0,0.0,0.0,0.4669,0.3849,0.3363,0.3261,0.176,0.099,0.0923,0.0303,0.0,0.0,0.0,-0.0253,-0.0303,0.0,-0.0404,-0.0573,-0.0472,-0.064,-0.0909,-0.0674,-0.0708,-0.0876,-0.0876,-0.0876,-0.0876,-0.0826,-0.0708,0.0,-0.0825,0.0,-0.1111,0.0,0.0,0.0,-0.116,0.0,0.0,0.0,0.0,0.0,0.0,0.0,0.0,0.0,0.0,0.0,0.0,0.0,0.0,0.0,0.0,-0.5382,-0.5321,-0.5368,-0.5395,-0.5395,-0.5395,-0.5395,-0.5395,-0.5395,-0.5395,-0.5395,-0.5481,-0.5562,-0.5607,-0.5688,-0.5813,-0.5944,-0.5991,-0.6133,-0.6453,-0.6583,-0.6736,-0.6908,-0.6991,-0.7058,-0.7098,-0.7258,-0.7352,-0.7422,-0.7717,-0.8019,-0.8328,-0.859,-0.8829,-0.9023,-0.9023,-0.9003,-0.8983,-0.9083,-0.8985,-0.8831,1.4484,1.4154,0.0,0.0,1.3494,1.3,1.16,1.1334,1.0989,1.0126,0.8716,0.0,0.0,0.0,0.0,0.0,0.0,0.4698,0.4534,0.0,0.3868,0.0,0.0,0.3851,0.0,0.2245,0.1776,0.139,0.0673,0.0236,0.0034,0.0017,0.0,0.0,0.0,-0.0118,-0.0303,-0.0303,-0.0489,-0.0792,-0.0792,-0.1295,-0.1963,0.0,-0.0909,-0.1092,-0.1092,0.0,0.0,-0.0859,-0.0792,0.0,0.0,0.0,0.0,0.0,0.0,0.0,0.0,0.0,0.0,-0.3751,0.0,0.0,0.0,0.0,-0.5559,0.0,0.0,0.0,0.0,0.0,0.0,0.0,0.0,0.0,0.0,-0.5283,-0.5395,-0.5395,-0.5395,-0.5395,-0.5395,-0.5395,-0.5395,-0.5395,-0.5399,-0.5467,-0.56,-0.561,-0.5661,-0.5803,-0.5934,-0.6105,-0.6306,-0.645,-0.663,-0.6908,-0.6911,-0.6964,-0.7095,-0.7102,-0.7205,-0.7419,-0.762,-0.8032,-0.8618,-0.8879,-0.9223,-0.9579,-0.9579,-0.9414,-0.9172,-0.911,-0.9086,-0.9083,0.0,0.0,0.0,0.0,0.0,1.1841,1.0807,1.0539,1.0206,0.9552,0.9015,0.0,0.0,0.6489,0.5673,0.0,0.0,0.3548,0.3505,0.379,0.0,0.0,0.0,0.3568,0.0,0.0,0.1441,0.1307,0.0488,0.0067,0.0,0.0,0.0,0.0,0.0,-0.0286,0.0,0.0,0.0,0.0,0.0,-0.2264,-0.2062,0.0,-0.2014,-0.2497,-0.2497,-0.2497,0.0,-0.2415,-0.2383,-0.2432,-0.2681,-0.2765,-0.2798,-0.3032,-0.3099,-0.3082,0.0,0.0,-0.3885,-0.4134,0.0,0.0,0.0,0.0,0.0,0.0,0.0,0.0,0.0,0.0,0.0,0.0,0.0,0.0,0.0,-0.5361,-0.5395,-0.5395,-0.5395,-0.5395,-0.5395,-0.5395,-0.5395,-0.5395,-0.5395,-0.5419,-0.547,-0.5474,-0.5525,-0.5657,-0.5803,-0.5934,-0.6105,-0.6369,-0.6546,-0.6627,-0.6729,-0.6833,-0.6957,-0.6957,-0.706,-0.7221,-0.7645,-0.8075,-0.8497,-0.8902,-0.9288,-0.9603,-0.9603,-0.9554,-0.945,-0.9394,-0.932,-0.9228,1.3191,0.0,0.0,0.0,0.0,0.0,0.0,0.0,0.0,0.0,0.881,0.0,0.6931,0.0,0.5351,0.0,0.3357,0.2835,0.2915,0.2985,0.0,0.2231,0.273,0.2618,0.0,0.0,0.0,0.0,0.0269,0.0,0.0,0.0,0.0,-0.0017,0.0,-0.0371,-0.0522,-0.0858,-0.1428,0.0,0.0,-0.3065,0.0,0.0,-0.2848,-0.2848,0.0,-0.3199,-0.3199,-0.3199,-0.3199,-0.3251,-0.3499,-0.3582,-0.3651,-0.3901,-0.3984,-0.3984,-0.3984,-0.4337,0.0,-0.4688,-0.504,0.0,-0.5395,0.0,-0.5562,0.0,0.0,0.0,0.0,0.0,0.0,0.0,0.0,0.0,0.0,-0.5395,-0.5395,-0.5395,-0.5395,-0.5395,-0.5395,-0.5395,-0.5395,-0.5395,-0.5395,-0.5395,-0.5395,-0.5395,-0.544,-0.5522,-0.5698,-0.5847,-0.5927,-0.6267,-0.6463,-0.6495,-0.673,-0.6864,-0.6908,-0.7048,-0.7101,-0.7139,-0.7676,-0.8084,-0.8434,-0.8909,-0.9307,-0.9603,-0.9603,-0.9603,-0.9591,-0.9554,-0.9493,-0.9418,1.2558,1.1903,0.0,0.0,1.0767,0.0,0.0,0.0,0.9089,0.0,0.8055,0.7102,0.5999,0.5608,0.4836,0.3368,0.266,0.2412,0.2671,0.1991,0.0,0.0,0.1452,0.1082,0.0017,0.0,0.0,0.0,0.0,0.0,0.0,0.0,0.0,-0.0017,-0.0219,0.0,-0.0623,-0.1527,-0.2012,-0.228,-0.3015,-0.3701,-0.4303,-0.4337,-0.3468,-0.2296,-0.3049,-0.3316,-0.3316,-0.3316,-0.3316,-0.3434,-0.4137,-0.4353,-0.4486,-0.5193,-0.5395,-0.5395,-0.5395,-0.5395,-0.5395,-0.5395,-0.5395,0.0,0.0,0.0,-0.5562,0.0,0.0,0.0,0.0,0.0,0.0,0.0,0.0,0.0,0.0,0.0,-0.5395,-0.5395,-0.5395,-0.5395,-0.5395,-0.5395,-0.5395,-0.5395,-0.5395,-0.5395,0.0,-0.5395,-0.5395,-0.5395,-0.5658,-0.5789,-0.5789,-0.6113,-0.6361,-0.6504,-0.69,-0.7021,-0.6932,-0.7319,-0.7363,-0.7143,-0.7676,-0.808,-0.8423,-0.8905,-0.9299,-0.9591,-0.9599,-0.9603,-0.9603,-0.9611,-0.9653,-0.9627,1.1454,1.1012,1.046,0.0,0.9809,0.9712,0.0,0.0,0.0,0.0,0.7667,0.7109,0.5684,0.4801,0.3793,0.2512,0.1486,0.0,0.0,0.0,0.0,0.0352,0.0917,0.0836,0.0017,0.0051,0.0051,0.0,0.0,0.0,0.0,0.0,-0.0084,-0.0219,0.0,-0.0757,-0.1561,-0.1794,-0.2613,-0.3801,-0.4539,-0.4622,-0.4353,0.0,-0.4539,-0.3835,-0.4572,-0.4841,-0.4841,-0.4841,-0.4841,-0.4874,-0.5057,-0.5126,-0.516,-0.5345,-0.5395,-0.5395,-0.5395,-0.5395,-0.5395,-0.5395,-0.5395,-0.5395,0.0,0.0,0.0,0.0,0.0,0.0,0.0,0.0,0.0,0.0,0.0,0.0,0.0,0.0,0.0,-0.5395,0.0,-0.5395,-0.5395,-0.5395,-0.5395,-0.5395,-0.5395,-0.5395,-0.5395,-0.5395,-0.5395,-0.5395,-0.5562,-0.5644,-0.5644,-0.5939,-0.6166,-0.6358,-0.6704,-0.6984,-0.7204,-0.7311,-0.7371,-0.7415,-0.7746,-0.7994,-0.8222,-0.8858,-0.9226,-0.9461,-0.9551,-0.9603,-0.962,-0.977,-0.9702,-0.9565,1.0807,1.0319,0.9803,0.9269,0.0,0.0,0.8504,0.83,0.0,0.7371,0.6957,0.0,0.4731,0.3764,0.2732,0.1457,0.0762,0.0,0.0785,0.0,0.0,0.0564,0.0598,0.0428,0.0017,0.0,0.0,0.0,0.0,0.0,0.0,-0.0084,-0.0185,0.0,0.0,-0.116,-0.1462,-0.2163,-0.3182,-0.437,-0.511,-0.516,0.0,-0.5243,-0.5182,-0.4924,-0.5266,-0.5395,-0.5395,-0.5395,-0.5395,-0.5395,-0.5395,-0.5395,-0.5395,-0.5395,-0.5395,-0.5395,-0.5395,-0.5395,-0.5395,-0.5395,-0.5395,-0.5395,-0.5395,-0.5463,-0.5498,0.0,-0.5463,-0.5498,0.0,0.0,0.0,0.0,0.0,0.0,0.0,0.0,0.0,0.0,-0.5395,-0.5395,-0.5395,-0.5395,-0.5395,-0.5395,-0.5395,-0.5395,-0.5395,-0.5395,-0.5395,-0.5395,-0.5637,-0.5749,-0.5684,-0.604,-0.6268,-0.6395,-0.6847,-0.7157,-0.7311,-0.7573,-0.7614,-0.7529,-0.7874,-0.8061,-0.8136,-0.8727,-0.9148,-0.942,-0.9555,-0.9603,-0.9616,-0.9738,-0.9718,-0.9699,1.0361,0.9725,0.9251,0.0,0.0,0.0,0.0,0.7417,0.0,0.6998,0.0,0.4713,0.3415,0.2714,0.1782,0.0472,0.0351,0.058,0.1094,0.0418,0.0345,0.1099,0.0396,0.0,0.0,-0.0034,-0.0034,0.0,0.0,0.0,-0.0051,-0.0219,0.0,0.0,0.0,0.0,0.0,-0.275,-0.3768,-0.4503,-0.5143,-0.5405,-0.5423,-0.5435,-0.5508,-0.5621,-0.55,-0.5442,-0.5423,-0.5402,-0.5395,-0.5395,-0.5395,-0.5395,-0.5395,-0.5395,-0.5395,-0.5395,-0.5395,-0.5395,-0.5395,-0.5395,-0.5395,-0.5395,-0.5395,-0.5395,-0.5395,-0.5395,-0.5395,-0.5395,0.0,0.0,0.0,0.0,0.0,0.0,0.0,0.0,0.0,0.0,0.0,0.0,-0.5395,-0.5395,-0.5395,-0.5395,-0.5395,-0.5395,0.0,0.0,-0.5395,-0.5395,-0.5759,-0.5907,-0.5833,-0.6239,-0.6494,-0.6613,-0.7144,-0.7402,-0.7429,-0.796,-0.7981,-0.7613,-0.8025,-0.8175,-0.814,-0.8636,-0.9068,-0.9433,-0.9563,-0.9603,-0.9603,-0.9603,-0.9721,-0.9854,0.9506,0.8974,0.0,0.0,0.0,0.7362,0.6148,0.6249,0.6191,0.5418,0.4652,0.3629,0.2258,0.1989,0.1417,0.018,0.0065,0.0,0.0,0.0,0.0,0.0227,0.0074,0.0,0.0,-0.0171,-0.0169,0.0,0.0,0.0,-0.0253,0.0,0.0,0.0,0.0,0.0,-0.3704,-0.3984,0.0,-0.5226,-0.5342,-0.547,-0.5569,-0.557,-0.5649,-0.5768,-0.5798,-0.5713,-0.5549,-0.5436,-0.5395,-0.5395,-0.5395,-0.5395,-0.5395,-0.5395,-0.5395,-0.5395,-0.5395,-0.5395,-0.5395,-0.5395,-0.5395,-0.5395,-0.5395,-0.5395,-0.5395,-0.5395,-0.5395,-0.5395,-0.5395,0.0,0.0,0.0,0.0,0.0,0.0,0.0,0.0,0.0,0.0,-0.5395,0.0,-0.5395,-0.5395,-0.5395,-0.5395,0.0,0.0,0.0,-0.5395,0.0,-0.5576,-0.5772,0.0,0.0,-0.6454,-0.7161,-0.7312,-0.763,-0.8048,-0.8141,-0.8157,-0.8091,-0.8157,-0.8194,-0.8222,-0.8811,-0.9259,-0.9559,-0.9591,-0.9603,-0.9603,-0.9603,-0.9624,-0.9692,0.9075,0.0,0.0,0.0,0.0,0.0,0.0,0.5164,0.4848,0.4243,0.3318,0.2409,0.1626,0.1128,0.0628,0.0045,0.0,0.0,0.0,0.0,0.0,0.0,0.0,-0.0054,-0.0158,-0.0256,-0.0253,-0.0152,0.0,0.0,-0.032,0.0,0.0,-0.1929,0.0,-0.3074,0.0,0.0,0.0,-0.4867,-0.5388,-0.5676,-0.5759,-0.5831,-0.5964,-0.6109,-0.6154,-0.6021,-0.5841,-0.5714,-0.566,-0.566,-0.566,-0.566,-0.5644,-0.5541,-0.5504,-0.5491,-0.5428,-0.5395,-0.5395,-0.5395,-0.5395,-0.5395,-0.5395,-0.5395,-0.5395,-0.5395,-0.5395,-0.5395,-0.5395,-0.5395,0.0,0.0,0.0,0.0,0.0,0.0,0.0,0.0,0.0,0.0,0.0,0.0,0.0,0.0,0.0,0.0,0.0,0.0,-0.5433,0.0,0.0,0.0,-0.599,0.0,-0.6583,-0.7203,-0.7343,-0.7683,-0.8201,-0.8336,-0.8336,-0.8201,-0.8336,-0.8336,-0.825,-0.8854,-0.9198,-0.9348,-0.953,-0.9603,-0.9579,-0.9455,-0.9381,-0.9457,0.8718,0.8015,0.0,0.0,0.7056,0.6105,0.5063,0.4208,0.3552,0.3179,0.2094,0.1258,0.1046,0.0418,0.0,0.0,0.0,0.0,0.0,0.0,0.0,0.0,-0.0037,-0.0198,-0.0508,-0.0597,-0.069,0.0,0.0,0.0,0.0,0.0,0.0,0.0,0.0,0.0,0.0,0.0,-0.4672,-0.4685,-0.5528,-0.5912,-0.6004,-0.6168,-0.6349,-0.6515,-0.6517,-0.6422,-0.6275,-0.6173,-0.6031,-0.5905,-0.5905,-0.5905,-0.5872,-0.5719,-0.5633,-0.5583,-0.5471,-0.5428,-0.5395,-0.5395,-0.5395,-0.5395,-0.5395,-0.5395,-0.5395,-0.5395,-0.5395,-0.5395,-0.5395,-0.5395,0.0,0.0,0.0,0.0,0.0,0.0,0.0,0.0,0.0,0.0,-0.5395,0.0,0.0,0.0,0.0,0.0,-0.5395,0.0,0.0,0.0,0.0,-0.6042,-0.6103,0.0,-0.6763,-0.7276,-0.7389,-0.7739,-0.8292,-0.8498,-0.8476,-0.8292,-0.8498,-0.8516,-0.8422,-0.8909,-0.9141,-0.9238,-0.9494,-0.9603,-0.9579,-0.9356,-0.9261,-0.9229,0.8168,0.0,0.0,0.0,0.0,0.5312,0.4416,0.3545,0.2746,0.2047,0.1115,0.0402,0.0156,0.0045,0.0,0.0,0.0,0.0,0.0,0.0,0.0,0.0,-0.0166,-0.0557,-0.1188,-0.1564,-0.1995,0.0,0.0,-0.2079,0.0,0.0,0.0,0.0,0.0,0.0,0.0,-0.4937,-0.5078,-0.5691,-0.5957,-0.615,-0.6283,-0.6544,-0.6727,-0.6854,-0.6919,-0.6922,-0.6906,-0.6907,-0.6448,-0.5905,-0.5905,-0.5905,-0.5888,-0.5872,-0.5736,-0.56,-0.5583,-0.5488,-0.5395,-0.5395,-0.5395,-0.5395,-0.5395,-0.5395,-0.5395,-0.5395,-0.5395,-0.5395,-0.5395,-0.5395,-0.5395,0.0,0.0,0.0,0.0,0.0,-0.5395,-0.5395,0.0,0.0,-0.5395,-0.5395,0.0,0.0,-0.5395,0.0,0.0,0.0,0.0,-0.5607,-0.5859,-0.614,-0.6447,-0.6477,-0.6953,-0.7829,-0.7655,-0.7935,-0.8564,-0.859,-0.859,-0.8564,-0.859,-0.8751,-0.9024,-0.9084,-0.9287,-0.9555,-0.9591,-0.9603,-0.9603,-0.9579,-0.9406,-0.9189,0.0,0.0,0.0,0.0,0.0,0.0,0.0,0.2541,0.1879,0.0852,0.0404,0.0112,0.0022,0.0,0.0,0.0,0.0,0.0,0.0,0.0,0.0,0.0,-0.0572,-0.1077,-0.1468,-0.2159,-0.2415,0.0,0.0,0.0,0.0,0.0,0.0,0.0,0.0,-0.5353,-0.5159,-0.551,-0.5784,-0.6003,-0.6281,-0.6525,-0.6738,-0.6925,-0.7033,-0.7094,-0.7238,-0.7171,-0.7006,-0.7006,-0.672,-0.638,-0.6372,-0.6301,-0.6185,-0.6103,-0.6017,-0.593,-0.5818,-0.5739,-0.5673,-0.5554,-0.5521,-0.5504,-0.5412,-0.5395,-0.5395,-0.5395,-0.5395,-0.5423,-0.5498,-0.5457,-0.5395,-0.5395,0.0,0.0,0.0,0.0,0.0,-0.5395,0.0,-0.5395,0.0,-0.5395,0.0,0.0,0.0,0.0,0.0,0.0,0.0,-0.5715,0.0,-0.6132,-0.6381,-0.6499,-0.6905,-0.7604,-0.7638,-0.7982,-0.859,-0.859,-0.859,-0.8594,-0.8674,-0.88,-0.895,-0.9189,-0.936,-0.9498,-0.9563,-0.9603,-0.955,-0.9229,-0.9051,-0.8929,0.6959,0.0,0.5893,0.0,0.4281,0.3206,0.2395,0.1777,0.1076,0.0135,0.0,0.0,0.0,0.0,0.0,0.0,0.0,0.0,0.0,0.0,-0.0138,-0.0455,-0.1051,0.0,-0.2358,-0.299,-0.3208,-0.2985,-0.3474,0.0,0.0,0.0,0.0,0.0,-0.5823,-0.5753,-0.5224,-0.5975,-0.6272,-0.6272,-0.6566,-0.6836,-0.7069,-0.7229,-0.7297,-0.7299,-0.7439,-0.734,-0.7139,-0.7086,-0.6933,-0.677,-0.6652,-0.6518,-0.6383,-0.628,-0.6231,-0.6165,-0.602,-0.5938,-0.5872,-0.5719,-0.5683,-0.568,-0.5651,-0.5577,-0.5524,-0.5515,-0.5491,-0.5494,-0.5586,-0.5481,-0.5395,-0.5395,0.0,0.0,0.0,-0.5395,0.0,0.0,-0.5395,-0.5395,-0.5395,-0.5395,0.0,0.0,0.0,0.0,0.0,0.0,0.0,0.0,0.0,0.0,-0.6393,-0.6574,-0.6904,-0.7396,-0.7605,-0.7945,-0.8427,-0.8484,-0.8537,-0.8598,-0.8747,-0.883,-0.8926,-0.9254,-0.9433,-0.947,-0.9551,-0.9603,-0.9554,-0.908,-0.8874,-0.8765,0.6141,0.6707,0.6742,0.4759,0.3571,0.2865,0.2721,0.1457,0.0381,0.0045,0.0,0.0,0.0,0.0,0.0,0.0,0.0,0.0,0.0,0.0,-0.0466,0.0,0.0,-0.2403,-0.4136,-0.4245,-0.4703,-0.5555,0.0,0.0,-0.5767,0.0,-0.6089,-0.6273,-0.6296,-0.6296,-0.6273,-0.6296,-0.6412,-0.6614,-0.6807,-0.7019,-0.7219,-0.7426,-0.7499,-0.7499,-0.7503,-0.7499,-0.7471,-0.7262,-0.7102,-0.6922,-0.6534,-0.6404,-0.6404,-0.6404,-0.6301,-0.6194,-0.6194,-0.605,-0.5905,-0.5888,-0.5888,-0.5953,-0.6139,-0.5979,-0.579,-0.5801,-0.5684,-0.5607,-0.5607,-0.5481,-0.5395,-0.5395,0.0,0.0,0.0,-0.5395,0.0,-0.5395,-0.5395,-0.5395,-0.5395,-0.5395,0.0,0.0,0.0,0.0,0.0,0.0,0.0,-0.58,-0.6117,0.0,-0.6602,-0.674,-0.6995,-0.741,-0.7609,-0.7814,-0.8003,-0.8211,-0.8415,-0.8598,-0.8747,-0.8903,-0.9108,-0.9307,-0.9486,-0.9599,-0.9603,-0.9603,-0.9579,-0.9286,-0.9031,-0.8751,0.6715,0.5577,0.4554,0.4371,0.2705,0.1375,0.1342,0.0666,0.0112,0.0022,0.0,0.0,0.0,0.0,0.0,0.0,0.0,-0.0248,0.0,-0.1019,-0.1484,-0.238,-0.3028,-0.3633,-0.4194,-0.4839,-0.5101,-0.4917,0.0,0.0,0.0,-0.6185,-0.6233,-0.63,-0.63,-0.63,-0.63,-0.6451,-0.6618,-0.6826,-0.7022,-0.7215,-0.7407,-0.7484,-0.7503,-0.7503,-0.7503,-0.7407,-0.7281,-0.7116,-0.6941,-0.6754,-0.6481,-0.6404,-0.6404,-0.6404,-0.6367,-0.6334,-0.6334,-0.6284,-0.6218,-0.6132,-0.6171,-0.6241,-0.6199,-0.6206,-0.624,-0.6331,-0.6133,-0.5965,-0.6067,-0.579,-0.5535,-0.5535,-0.5463,0.0,-0.5395,0.0,-0.5395,-0.5395,-0.5395,-0.5395,-0.5395,-0.5395,0.0,0.0,0.0,0.0,0.0,0.0,0.0,0.0,-0.705,0.0,-0.6602,-0.6878,-0.7134,-0.741,-0.7891,-0.8208,-0.8419,-0.8572,-0.8621,-0.8615,-0.903,-0.9176,-0.9112,-0.9307,-0.9486,-0.9591,-0.949,-0.9518,-0.9579,-0.9311,-0.9133,-0.9006,0.6378,0.4701,0.3185,0.2981,0.1562,0.0445,0.0443,0.0184,0.0,0.0,0.0,0.0,0.0,0.0,0.0,0.0,-0.0295,-0.0742,-0.1376,-0.1821,-0.2485,-0.348,-0.4026,-0.447,-0.479,-0.5375,0.0,-0.5045,-0.5771,-0.6185,-0.63,-0.63,-0.63,-0.63,-0.63,-0.63,-0.6319,-0.6505,-0.6714,-0.6922,-0.7123,-0.7315,-0.7503,-0.7503,-0.7503,-0.7503,-0.7503,-0.737,-0.7181,-0.7049,-0.6873,-0.6664,-0.646,-0.6404,-0.6404,-0.6404,-0.6404,-0.6404,-0.6404,-0.6404,-0.6403,-0.6384,-0.645,-0.6587,-0.6855,-0.7269,-0.7612,-0.7602,-0.71,-0.6694,-0.6777,-0.6138,-0.56,-0.56,-0.549,-0.5395,-0.5395,0.0,-0.5395,0.0,0.0,0.0,0.0,-0.5395,-0.5436,0.0,0.0,0.0,0.0,0.0,-0.7304,-0.7132,-0.7641,-0.7533,-0.6714,-0.6992,-0.7238,-0.7434,-0.7886,-0.8203,-0.8387,-0.8613,-0.8702,-0.8708,-0.92,-0.9339,-0.9233,-0.9409,-0.9527,-0.9591,-0.9502,-0.9527,-0.9579,-0.9311,-0.9212,-0.9137,0.521,0.3942,0.2503,0.0928,0.0287,0.0,0.0,0.0,0.0,0.0,0.0,-0.0022,-0.0087,-0.0109,-0.0129,-0.0189,0.0,0.0,-0.1749,-0.2504,-0.348,-0.4727,-0.4673,-0.4987,-0.5802,-0.5817,-0.5823,-0.5833,-0.6141,-0.63,-0.63,-0.63,-0.63,-0.63,-0.63,-0.6293,-0.6321,-0.6511,-0.6711,-0.6889,-0.7107,-0.7298,-0.7467,-0.7467,-0.7467,-0.7467,-0.7467,-0.7334,-0.7145,-0.7041,-0.6865,-0.6647,-0.6472,-0.642,-0.642,-0.6408,-0.6404,-0.6404,-0.6416,-0.642,-0.6464,-0.6668,-0.6772,-0.7045,-0.7938,-0.8902,-0.9575,-0.9372,-0.8437,-0.7655,-0.7655,-0.656,-0.5665,-0.5715,-0.5568,-0.5445,-0.5491,-0.5458,-0.5428,0.0,0.0,0.0,-0.5492,-0.5452,-0.5459,0.0,0.0,0.0,0.0,0.0,-0.7688,-0.7606,-0.7941,-0.774,-0.6922,-0.7115,-0.732,-0.754,-0.7747,-0.7902,-0.8024,-0.8435,-0.8688,-0.8801,-0.9217,-0.9396,-0.94,-0.9535,-0.9591,-0.9599,-0.9587,-0.9591,-0.9579,-0.9307,-0.9236,-0.9183,0.0,0.0,0.0938,0.0281,0.007,0.0,0.0,0.0,0.0,0.0,0.0,-0.0245,-0.0914,-0.1165,-0.1533,-0.2088,-0.176,-0.2102,-0.3429,-0.3967,-0.4669,-0.5567,-0.5629,-0.5749,-0.5939,-0.5957,-0.6034,-0.619,-0.6265,-0.63,-0.63,-0.63,-0.63,-0.63,-0.63,-0.6308,-0.6303,-0.6513,-0.663,-0.67,-0.6955,-0.7082,-0.7114,-0.7114,-0.7114,-0.7114,-0.7114,-0.6986,-0.6834,-0.6959,-0.6762,-0.6485,-0.6599,-0.6631,-0.6603,-0.6444,-0.6404,-0.6428,-0.6578,-0.6623,-0.6672,-0.6882,-0.7468,-0.8088,-0.8473,-0.9223,-0.982,-0.9763,-0.8924,-0.8202,-0.8202,-0.7108,-0.638,-0.6893,-0.6299,-0.5954,-0.647,-0.6099,-0.5723,0.0,-0.5643,-0.5904,-0.6411,-0.6013,-0.5958,0.0,0.0,-0.7776,-0.8801,-0.9605,-0.9575,-0.8607,-0.8412,-0.795,-0.7142,-0.7285,-0.7533,-0.789,-0.8098,-0.8208,-0.8235,-0.8597,-0.871,-0.8676,-0.9192,-0.9303,-0.9197,-0.9372,-0.9502,-0.9587,-0.9498,-0.9502,-0.9603,-0.9529,-0.9505,-0.9455,0.3025,0.159,0.037,0.0046,0.0,0.0,0.0,0.0,-0.0134,-0.0546,-0.0621,-0.0863,-0.1425,-0.1881,-0.2462,-0.3197,-0.2941,-0.321,-0.4307,-0.487,-0.5397,-0.5921,-0.5932,-0.5876,-0.5812,-0.5944,-0.6105,-0.63,-0.63,-0.63,-0.63,-0.63,-0.63,-0.63,-0.6393,-0.644,-0.6451,-0.6757,-0.6812,-0.6765,-0.7005,-0.7047,-0.7006,-0.7006,-0.7006,-0.7006,-0.7006,-0.6926,-0.6848,-0.6955,-0.6861,-0.6697,-0.6799,-0.6831,-0.6811,-0.6709,-0.6681,-0.6701,-0.6812,-0.6841,-0.696,-0.7507,-0.8368,-0.9219,-0.9685,-1.0426,-1.1,-1.1,-1.0194,-0.9506,-0.9506,-0.8382,-0.7568,-0.7929,-0.7357,-0.6863,-0.6892,-0.6535,-0.6122,-0.5733,-0.5785,-0.6005,-0.6448,-0.6569,-0.6655,-0.6726,-0.8006,0.0,-0.9213,-1.0229,-1.0302,-0.9254,-0.9137,-0.8502,-0.7313,-0.7486,-0.7637,-0.7772,-0.8036,-0.8207,-0.8304,-0.8635,-0.8816,-0.8855,-0.9245,-0.9347,-0.925,-0.9429,-0.9539,-0.9591,-0.9518,-0.9539,-0.9603,-0.9603,-0.9603,-0.9579,0.2549,0.1373,0.0308,0.0046,0.0,0.0,0.0,-0.0247,-0.0641,-0.1227,-0.1684,-0.1966,-0.2017,-0.2664,-0.3372,-0.4021,-0.4229,-0.4491,-0.4822,-0.5449,-0.585,-0.5959,-0.5873,-0.5769,-0.5627,-0.587,-0.6076,-0.6265,-0.6289,-0.63,-0.63,-0.63,-0.63,-0.63,-0.6505,-0.6607,-0.6624,-0.6988,-0.7043,-0.6878,-0.7051,-0.7037,-0.691,-0.6939,-0.6947,-0.6951,-0.6951,-0.6967,-0.7006,-0.7006,-0.7006,-0.701,-0.702,-0.7033,-0.7033,-0.7033,-0.7049,-0.7061,-0.7037,-0.7139,-0.7446,-0.824,-0.9266,-1.0252,-1.0937,-1.1725,-1.2305,-1.2305,-1.1528,-1.0821,-1.0785,-0.9678,-0.8814,-0.8916,-0.8479,-0.7973,-0.7499,0.0,-0.6898,-0.6369,-0.6356,-0.645,-0.6542,-0.7371,-0.7636,-0.6957,-0.9103,-1.0219,-0.9769,-1.0616,-1.0677,-0.974,-0.9704,-0.8995,-0.7465,-0.7729,-0.7775,-0.7548,-0.7914,-0.8166,-0.8304,-0.8635,-0.8882,-0.9068,-0.929,-0.9388,-0.9356,-0.9543,-0.9603,-0.9603,-0.9603,-0.9603,-0.9603,-0.9603,-0.9603,-0.9603,0.1001,0.0585,0.0319,0.005,0.0,0.0,0.0,-0.1387,-0.2164,-0.1394,-0.3126,-0.4199,-0.3548,-0.4375,-0.5067,-0.5307,-0.5409,-0.5475,-0.5548,-0.5968,-0.6089,-0.5847,-0.592,-0.5907,-0.5772,-0.592,-0.6022,-0.6045,-0.6216,-0.63,-0.63,-0.63,-0.63,-0.63,-0.6505,-0.6603,-0.6611,-0.6846,-0.687,-0.6743,-0.676,-0.6668,-0.6518,-0.6681,-0.6742,-0.6754,-0.6754,-0.6865,-0.7006,-0.7006,-0.7006,-0.7016,-0.7135,-0.7165,-0.7165,-0.7165,-0.7285,-0.7385,-0.7224,-0.7789,-0.8463,-0.8623,-0.9804,-1.0943,-1.1074,-1.1725,-1.2305,-1.2305,-1.1638,-1.0979,-1.0761,-0.9849,-0.9303,-0.9875,-0.9282,-0.9019,-0.9753,0.0,-0.8885,-0.8613,-0.87,-0.8735,-0.8648,-0.9081,-0.9319,-0.9203,-1.0352,-1.1151,-1.1329,-1.2068,-1.1782,-1.0249,-0.934,-0.8514,-0.7736,-0.8057,-0.8061,-0.7763,-0.8256,-0.8435,-0.8304,-0.8635,-0.8814,-0.8858,-0.9233,-0.9295,-0.9165,-0.9466,-0.9603,-0.9603,-0.9603,-0.9603,-0.9603,-0.9603,-0.9603,-0.9603,0.0323,0.0174,0.0149,0.0025,0.0,0.0,0.0,-0.1149,-0.201,-0.1954,-0.3373,-0.4467,-0.4639,-0.5139,-0.5595,-0.5954,-0.5883,-0.5825,-0.5862,-0.589,-0.5889,-0.5803,-0.5718,-0.5674,-0.5688,-0.583,-0.5927,-0.5993,-0.6202,-0.63,-0.63,-0.63,-0.6358,-0.647,-0.6676,-0.6827,-0.6931,-0.7131,-0.7119,-0.6963,-0.6963,-0.6871,-0.6734,-0.6829,-0.6865,-0.6869,-0.6869,-0.6966,-0.7098,-0.7098,-0.7182,-0.7271,-0.7338,-0.7366,-0.7366,-0.7366,-0.7419,-0.7483,-0.7387,-0.7704,-0.826,-0.9131,-0.99,-1.067,-1.1552,-1.2021,-1.2305,-1.2305,-1.2003,-1.1705,-1.1578,-1.1054,-1.0761,-1.1067,-1.0631,0.0,-1.04,-1.0201,-0.9897,-0.9514,-0.9529,-0.9638,-0.9839,-0.993,-1.0049,-1.0289,-1.1064,-1.1617,-1.1856,-1.2454,-1.2357,-1.1419,-0.9326,-0.8032,-0.7649,-0.7963,-0.8032,-0.7808,-0.8351,-0.8545,-0.8468,-0.8702,-0.8797,-0.8814,-0.91,-0.9193,-0.9125,-0.9458,-0.9603,-0.9603,-0.9603,-0.9603,-0.9603,-0.9603,-0.9603,-0.9603,0.0051,0.0,0.0,0.0,0.0,-0.0072,-0.0296,-0.1213,-0.2123,-0.2792,-0.3716,-0.4586,-0.5306,-0.5512,-0.5747,-0.6151,-0.6028,-0.5975,-0.6069,-0.5803,-0.5674,-0.5749,-0.5535,-0.545,-0.5552,-0.5708,-0.5842,-0.5957,-0.6185,-0.63,-0.63,-0.6354,-0.6451,-0.6621,-0.6868,-0.7061,-0.7223,-0.7407,-0.7382,-0.7206,-0.7206,-0.7119,-0.701,-0.7037,-0.7053,-0.7053,-0.7053,-0.7149,-0.7262,-0.7222,-0.7338,-0.7503,-0.7503,-0.7503,-0.7503,-0.7503,-0.7532,-0.7556,-0.7515,-0.7638,-0.8069,-0.9315,-0.9806,-1.0355,-1.1802,-1.1978,-1.191,-1.2148,-1.1996,-1.1877,-1.2063,-1.1832,-1.1738,-1.2051,0.0,-1.1484,-1.11,-1.1137,-1.1044,-1.065,-1.0591,-1.0667,-1.0829,-1.0936,-1.1036,-1.1156,-1.1811,-1.2297,-1.2474,-1.2752,-1.257,-1.1863,-0.9493,-0.8031,-0.7568,-0.7898,-0.7992,-0.7845,-0.835,-0.8611,-0.8655,-0.8808,-0.8862,-0.8874,-0.9125,-0.9173,-0.9125,-0.9458,-0.9603,-0.9603,-0.9603,-0.9603,-0.9603,-0.9603,-0.9603,-0.9603,0.0,0.0,0.0,0.0,0.0,-0.0284,-0.1156,-0.2623,-0.3695,-0.3941,-0.4904,-0.5504,-0.533,-0.5642,-0.5854,-0.5844,-0.5932,-0.6083,-0.6276,-0.5974,-0.5732,-0.5627,-0.5484,-0.5399,-0.5412,-0.5675,-0.5806,-0.582,-0.6134,-0.63,-0.63,-0.649,-0.6583,-0.6621,-0.7007,-0.718,-0.7223,-0.7407,-0.7382,-0.7206,-0.7206,-0.7119,-0.7008,-0.7143,-0.7185,-0.7185,-0.7185,-0.7317,-0.7439,-0.7262,-0.7338,-0.7503,-0.7503,-0.7503,-0.7503,-0.7503,-0.7625,-0.7743,-0.7548,-0.8055,-0.8642,-0.8756,-0.9496,-1.0429,-1.1358,-1.1021,-1.0787,-1.1669,-1.1041,-1.0584,-1.1333,-1.1094,-1.1228,-1.2516,0.0,0.0,-1.2921,-1.3001,-1.2995,-1.2962,-1.2943,-1.2672,-1.1956,-1.2768,-1.3037,-1.2346,-1.3022,-1.3604,-1.3924,-1.3447,-1.232,-1.0519,-0.986,-0.8986,-0.7784,-0.8114,-0.8178,-0.8,-0.8407,-0.8672,-0.8785,-0.8995,-0.9076,-0.9096,-0.9413,-0.9377,-0.9125,-0.9458,-0.9603,-0.9603,-0.9603,-0.9603,-0.9603,-0.9603,-0.9603,-0.9603,0.0,0.0,0.0,0.0,-0.0489,-0.0979,-0.1343,-0.2882,-0.4071,-0.4312,-0.506,-0.5673,-0.5959,-0.5931,-0.6009,-0.6271,-0.6239,-0.6219,-0.6296,-0.619,-0.5994,-0.5732,-0.56,-0.5562,-0.5651,-0.5742,-0.5847,-0.5924,-0.6175,-0.6306,-0.6304,-0.6498,-0.6663,-0.6795,-0.7076,-0.7277,-0.7392,-0.7465,-0.7462,-0.7382,-0.7382,-0.7365,-0.7308,-0.7358,-0.7382,-0.7382,-0.7382,-0.7358,-0.7311,-0.737,-0.7358,-0.7362,-0.7605,-0.7694,-0.7695,-0.778,-0.7862,-0.7902,-0.7829,-0.797,-0.8227,-0.8603,-0.9087,-0.9669,-1.0489,-1.0532,-1.0494,-1.0862,-1.061,-1.061,-1.1475,-1.1031,-1.1059,-1.2778,0.0,-1.2272,-1.3094,-1.3347,-1.346,-1.346,-1.346,-1.3405,-1.3309,-1.2996,-1.2986,-1.3408,-1.3191,-1.3347,-1.406,-1.3874,-1.27,-1.0373,-1.0569,-0.9773,-0.7824,-0.8,-0.8199,-0.8383,-0.8605,-0.882,-0.8999,-0.9201,-0.9221,-0.9108,-0.9376,-0.9404,-0.9303,-0.9522,-0.9603,-0.9603,-0.9603,-0.9603,-0.9603,-0.9603,-0.9603,-0.9603,0.0,0.0,0.0,0.0,-0.0805,-0.1624,-0.2072,-0.3396,-0.4445,-0.4838,-0.5413,-0.588,-0.615,-0.6142,-0.6232,-0.6481,-0.6378,-0.63,-0.63,-0.63,-0.6141,-0.5817,-0.5708,-0.5701,-0.58,-0.5847,-0.5907,-0.5993,-0.6135,-0.627,-0.64,-0.6536,-0.6741,-0.7005,-0.7202,-0.7369,-0.7503,-0.7503,-0.7503,-0.7503,-0.7503,-0.7503,-0.7503,-0.7503,-0.7503,-0.7503,-0.7503,-0.7407,-0.7326,-0.7462,-0.7403,-0.735,-0.7617,-0.7751,-0.7833,-0.7963,-0.8052,-0.8089,-0.8008,-0.7971,-0.8044,-0.84,-0.8632,-0.8998,-0.9842,-1.0152,-1.0248,-1.0248,-1.0208,-1.0387,-1.1073,-1.0789,-1.1038,-1.2753,-1.2668,-1.2623,-1.3386,-1.364,-1.376,-1.376,-1.376,-1.384,-1.4089,-1.3073,-1.2889,-1.4026,-1.3222,-1.3051,-1.3913,-1.3948,-1.2826,-1.0378,-1.0875,-1.0144,-0.7971,-0.804,-0.826,-0.859,-0.8686,-0.8893,-0.9205,-0.9347,-0.9315,-0.9209,-0.9388,-0.9433,-0.9416,-0.9551,-0.9603,-0.9603,-0.9603,-0.9603,-0.9603,-0.9603,-0.9603,-0.9603,0.0,0.0,0.0,0.0,-0.0904,-0.211,-0.3588,-0.4381,-0.5037,-0.562,-0.6121,-0.6229,-0.5752,-0.6236,-0.6519,-0.6311,-0.6303,-0.63,-0.63,-0.63,-0.6144,-0.582,-0.5803,-0.5803,-0.5803,-0.5934,-0.5993,-0.5993,-0.5993,-0.6199,-0.6595,-0.661,-0.681,-0.72,-0.7407,-0.7503,-0.7503,-0.7503,-0.7503,-0.7503,-0.7503,-0.7503,-0.7503,-0.7503,-0.7503,-0.7503,-0.7503,-0.7503,-0.7499,-0.7503,-0.7503,-0.7503,-0.7507,-0.7638,-0.7841,-0.7967,-0.815,-0.8256,-0.8069,-0.8154,-0.8251,-0.8061,-0.8154,-0.8543,-0.9482,-0.9795,-0.9881,-0.9881,-0.9802,-0.9738,-0.9887,-1.0293,-1.1059,-1.2493,-1.3204,-1.3706,-1.4048,-1.4109,-1.4109,-1.4109,-1.4109,-1.4109,-1.4109,-1.3264,-1.3094,-1.4025,-1.3243,-1.2976,-1.3565,-1.3613,-1.2597,-1.0384,-1.0709,-1.006,-0.8317,-0.8313,-0.8407,-0.8594,-0.8616,-0.8894,-0.9404,-0.9404,-0.9404,-0.9416,-0.9547,-0.9527,-0.942,-0.9551,-0.9603,-0.9603,-0.9603,-0.9603,-0.9603,-0.9603,-0.9603,-0.9603,0.0,0.0,0.0,0.0,-0.1938,-0.3667,-0.422,-0.5183,-0.5992,-0.6428,-0.6513,-0.6545,-0.6543,-0.6532,-0.6522,-0.6502,-0.6374,-0.63,-0.63,-0.63,-0.6259,-0.6148,-0.602,-0.6013,-0.6141,-0.6042,-0.6066,-0.6212,-0.6212,-0.6349,-0.6607,-0.6745,-0.695,-0.7216,-0.7412,-0.7503,-0.7503,-0.7503,-0.7503,-0.7503,-0.7503,-0.7503,-0.7503,-0.7503,-0.7503,-0.7503,-0.7503,-0.7407,-0.7322,-0.7462,-0.7503,-0.7568,-0.7951,-0.8195,-0.838,-0.8407,-0.8528,-0.8627,-0.8575,-0.8714,-0.8723,-0.8154,-0.8154,-0.8373,-0.8645,-0.8858,-0.8977,-0.8977,-0.9622,-1.0397,-1.1101,-1.1347,-1.2071,-1.4007,-1.3561,-1.3303,-1.4241,-1.4215,-1.4109,-1.4109,-1.4109,-1.4109,-1.4109,-1.3849,-1.3807,-1.4088,-1.3849,-1.3832,-1.4206,-1.4234,-1.3352,-1.1407,-1.1692,-1.0832,-0.8666,-0.8566,-0.872,-0.9163,-0.9018,-0.9153,-0.9547,-0.9547,-0.9547,-0.9551,-0.9579,-0.9571,-0.9551,-0.9579,-0.9603,-0.9603,-0.9603,-0.9603,-0.9603,-0.9603,-0.9603,-0.9603,0.0,0.0,-0.0151,-0.0668,-0.2715,-0.4502,-0.5076,-0.5973,-0.6616,-0.6754,-0.6704,-0.6761,-0.6964,-0.6653,-0.6486,-0.6634,-0.6424,-0.63,-0.63,-0.63,-0.63,-0.63,-0.6192,-0.6185,-0.6296,-0.6188,-0.6223,-0.6412,-0.633,-0.6491,-0.684,-0.6904,-0.7075,-0.7334,-0.7454,-0.7503,-0.7503,-0.7503,-0.7503,-0.7503,-0.7503,-0.7503,-0.7503,-0.7503,-0.7503,-0.7503,-0.7503,-0.7483,-0.7443,-0.7491,-0.7552,-0.7695,-0.8163,-0.8387,-0.8509,-0.8647,-0.8739,-0.8814,-0.8886,-0.9011,-0.8991,-0.8552,-0.8471,-0.8483,-0.8435,-0.8842,-0.9128,-0.8755,-0.9611,-1.0494,-1.0694,-1.1367,-1.231,-1.3601,-1.3695,-1.3867,-1.4603,-1.4442,-1.4302,-1.4444,-1.425,-1.4135,-1.4249,-1.383,-1.3591,-1.3701,-1.4168,-1.4531,-1.4689,-1.4696,-1.3985,-1.243,-1.2266,-1.1312,-0.9534,-0.9117,-0.9086,-0.94,-0.9201,-0.9283,-0.9603,-0.9603,-0.9603,-0.9603,-0.9603,-0.9603,-0.9603,-0.9603,-0.9603,-0.9603,-0.9603,-0.9603,-0.9603,-0.9603,-0.9603,-0.9603,0.0,0.0,-0.0499,-0.2089,-0.3557,-0.4896,-0.6117,-0.6706,-0.6936,-0.6757,-0.6776,-0.6873,-0.7046,-0.663,-0.642,-0.6646,-0.6448,-0.6319,-0.6358,-0.633,-0.631,-0.6327,-0.632,-0.632,-0.6339,-0.6326,-0.6412,-0.6602,-0.6433,-0.6644,-0.72,-0.7077,-0.7194,-0.7503,-0.7503,-0.7503,-0.7503,-0.7503,-0.7503,-0.7503,-0.7503,-0.7503,-0.7503,-0.7503,-0.7503,-0.7503,-0.7503,-0.7609,-0.7755,-0.7597,-0.7674,-0.7906,-0.8228,-0.8338,-0.8377,-0.8702,-0.8797,-0.8858,-0.9051,-0.912,-0.9141,-0.9125,-0.8995,-0.8824,-0.8676,-0.9397,-0.9849,-0.9003,-0.9742,-1.0273,-0.942,-1.0769,-1.2031,-1.2052,-1.3565,-1.4768,-1.4884,-1.461,-1.4546,-1.4952,-1.4511,-1.429,-1.4514,-1.3549,-1.3003,-1.3247,-1.433,-1.5022,-1.5019,-1.5048,-1.4519,-1.3421,-1.2536,-1.1615,-1.0649,-0.9834,-0.9429,-0.9424,-0.9242,-0.9315,-0.9603,-0.9603,-0.9603,-0.9603,-0.9603,-0.9603,-0.9603,-0.9603,-0.9603,-0.9603,-0.9603,-0.9603,-0.9603,-0.9603,-0.9603,-0.9603,0.0,0.0,-0.1282,-0.5342,-0.5996,-0.6221,-0.702,-0.7062,-0.7008,-0.7011,-0.6937,-0.6877,-0.6874,-0.6621,-0.6442,-0.6399,-0.6341,-0.6485,-0.6906,-0.6539,-0.6371,-0.6528,-0.6491,-0.6526,-0.6692,-0.6588,-0.6563,-0.6602,-0.6716,-0.6908,-0.7203,-0.7164,-0.7275,-0.7503,-0.7503,-0.7503,-0.7503,-0.7503,-0.7503,-0.7503,-0.7503,-0.7503,-0.7503,-0.7503,-0.7503,-0.7503,-0.7503,-0.7528,-0.7597,-0.7817,-0.802,-0.8236,-0.846,-0.8529,-0.8545,-0.8623,-0.882,-0.9047,-0.9088,-0.9299,-0.9478,-0.936,-0.9295,-0.9217,-0.9046,-0.9173,-0.929,-0.9086,-0.9991,-1.0759,-1.0551,-1.1462,-1.229,-1.252,-1.2572,-1.2917,-1.3922,-1.3812,-1.3991,-1.4883,-1.4872,-1.4819,-1.4885,-1.4648,-1.453,-1.4589,-1.4834,-1.5086,-1.5291,-1.5304,-1.4932,-1.4097,-1.3079,-1.2073,-1.1086,-1.0052,-0.9567,-0.9543,-0.9506,-0.953,-0.9603,-0.9603,-0.9603,-0.9603,-0.9603,-0.9603,-0.9603,-0.9603,-0.9603,-0.9603,-0.9603,-0.9603,-0.9603,-0.9603,-0.9603,-0.9723,-0.0656,-0.0353,-0.1206,-0.5049,-0.6511,-0.7166,-0.7201,-0.7194,-0.7176,-0.7103,-0.6925,-0.6784,-0.675,-0.6536,-0.6386,-0.6307,-0.6541,-0.6685,-0.6718,-0.6542,-0.6446,-0.6457,-0.6525,-0.6621,-0.6798,-0.691,-0.6984,-0.6984,-0.7022,-0.7138,-0.7353,-0.7353,-0.7407,-0.7503,-0.7503,-0.7503,-0.7503,-0.7503,-0.7503,-0.7503,-0.7503,-0.7503,-0.7503,-0.7503,-0.7503,-0.7503,-0.7503,-0.756,-0.7703,-0.8151,-0.8284,-0.8342,-0.8533,-0.8643,-0.8706,-0.8818,-0.9034,-0.9262,-0.9328,-0.9462,-0.9579,-0.9506,-0.9486,-0.9417,-0.9157,-0.9185,-0.9242,-0.9242,-0.9788,-1.0279,-1.0279,-1.1091,-1.1819,-1.1954,-1.2141,-1.2498,-1.3188,-1.3041,-1.3327,-1.452,-1.4413,-1.445,-1.4941,-1.5113,-1.5193,-1.5193,-1.5297,-1.5444,-1.5568,-1.5581,-1.5413,-1.5034,-1.4022,-1.2974,-1.1926,-1.0886,-1.0109,-0.9603,-0.9603,-0.9603,-0.9603,-0.9603,-0.9603,-0.9603,-0.9603,-0.9603,-0.9603,-0.9603,-0.9603,-0.9603,-0.9603,-0.9916,-1.035,-1.035,-1.067,-1.1155,-0.1437,-0.121,-0.1552,-0.3915,-0.6344,-0.7753,-0.7196,-0.7286,-0.7325,-0.7132,-0.6882,-0.6726,-0.6693,-0.647,-0.63,-0.63,-0.6779,-0.6891,-0.6392,-0.6484,-0.6507,-0.6383,-0.6548,-0.6736,-0.6958,-0.7276,-0.7437,-0.7406,-0.736,-0.7394,-0.7503,-0.7544,-0.7544,-0.7503,-0.7503,-0.7503,-0.7503,-0.7503,-0.7503,-0.7503,-0.7503,-0.7503,-0.7503,-0.7503,-0.7503,-0.7507,-0.754,-0.7686,-0.7959,-0.8391,-0.846,-0.8387,-0.8541,-0.8682,-0.8826,-0.9007,-0.9217,-0.9413,-0.9539,-0.9579,-0.9603,-0.9603,-0.9603,-0.9535,-0.9291,-0.9368,-0.9486,-0.9433,-0.9547,-0.9636,-0.9607,-1.0326,-1.0935,-1.0935,-1.1639,-1.2217,-1.2412,-1.2249,-1.2588,-1.3878,-1.3754,-1.3965,-1.5042,-1.5354,-1.5471,-1.5471,-1.5668,-1.5808,-1.5808,-1.5808,-1.5808,-1.5808,-1.4825,-1.3878,-1.2974,-1.178,-1.0739,-0.9871,-0.9698,-0.9603,-0.9603,-0.9603,-0.9603,-0.9603,-0.9603,-0.9603,-0.9603,-0.9603,-0.9603,-0.9628,-0.9797,-1.0424,-1.1219,-1.139,-1.2096,-1.2974,-0.1687,-0.3143,-0.4368,-0.5099,-0.6619,-0.7715,-0.7614,-0.7489,-0.7328,-0.7122,-0.6966,-0.6836,-0.6713,-0.6453,-0.63,-0.63,-0.6779,-0.6975,-0.6664,-0.6447,-0.6463,-0.6726,-0.675,-0.7022,-0.7569,-0.7635,-0.7578,-0.7406,-0.7736,-0.7765,-0.7507,-0.7675,-0.7663,-0.7503,-0.7503,-0.7503,-0.7503,-0.7503,-0.7503,-0.7503,-0.7503,-0.7503,-0.7503,-0.7503,-0.7503,-0.7524,-0.7702,-0.7955,-0.8248,-0.8326,-0.844,-0.8554,-0.8582,-0.8682,-0.8801,-0.8826,-0.9115,-0.9408,-0.9433,-0.9506,-0.9603,-0.9603,-0.9603,-0.9628,-0.9754,-0.982,-0.9795,-0.9595,-0.973,-0.9807,-0.9632,-0.9723,-0.9821,-0.9821,-0.9941,-1.033,-1.1272,-1.1366,-1.1745,-1.2799,-1.3669,-1.4587,-1.5594,-1.5721,-1.5748,-1.5748,-1.5781,-1.5808,-1.5808,-1.5808,-1.5808,-1.5808,-1.4825,-1.4226,-1.41,-1.2174,-1.1121,-1.0979,-1.0039,-0.9603,-0.9603,-0.9603,-0.9603,-0.9603,-0.9603,-0.9603,-0.9603,-0.9603,-0.9603,-0.9698,-1.0616,-1.1077,-1.1317,-1.2169,-1.3167,-1.4076,-0.2365,-0.4647,-0.6581,-0.6581,-0.7207,-0.7692,-0.7692,-0.7529,-0.7338,-0.7115,-0.6984,-0.6859,-0.6706,-0.6589,-0.6516,-0.6516,-0.6879,-0.6992,-0.6719,-0.6549,-0.6564,-0.6798,-0.6831,-0.7119,-0.7683,-0.781,-0.7832,-0.7732,-0.7837,-0.776,-0.7503,-0.759,-0.7815,-0.8169,-0.8322,-0.8303,-0.8212,-0.8812,-0.8451,-0.755,-0.8149,-0.8035,-0.7503,-0.7503,-0.7564,-0.7695,-0.7975,-0.8179,-0.8326,-0.8431,-0.8521,-0.8606,-0.8678,-0.8832,-0.8995,-0.9111,-0.9303,-0.9506,-0.9506,-0.9636,-0.977,-0.977,-0.9851,-0.9916,-0.9917,-0.9991,-1.0015,-0.9807,-0.9758,-0.9692,-0.962,-0.968,-0.977,-0.977,-0.977,-0.9941,-1.0408,-1.0367,-1.091,-1.2509,-1.4136,-1.5302,-1.5754,-1.5808,-1.5875,-1.6066,-1.6079,-1.6146,-1.6288,-1.6295,-1.6295,-1.6295,-1.5722,-1.5129,-1.454,-1.3458,-1.2635,-1.2023,-1.0984,-1.0183,-0.9603,-0.9603,-0.9603,-0.9603,-0.9603,-0.9603,-0.9603,-0.9603,-0.9941,-1.0547,-1.1028,-1.1907,-1.3052,-1.4064,-1.4741,-1.5135]},{"header":{"parameterUnit":"m.s-1","parameterCategory":1,"la1":30.6,"la2":28.766,"lo1":-90.7593,"lo2":-88.6598,"dy":0.0162,"dx":0.0183,"nx":116,"ny":114,"refTime":"2023-09-25T12:00:00:Z","depth":0,"parameterNumber":3,"parameterNumberName":"V-component_of_WINDS"},"data":[0.0,0.0,0.0,0.0,0.0,0.0,0.0,0.0,0.0,0.0,0.0,0.0,0.0,0.0,0.0,0.0,0.0,0.0,0.0,0.0,0.0,0.0,0.0,0.0,0.0,0.0,0.0,0.0,0.0,0.0,0.0,0.0,0.0,0.0,0.0,0.0,0.0,0.0,0.0,0.0,0.0,0.0,0.0,0.0,0.0,0.0,0.0,0.0,0.0,0.0,0.0,0.0,0.0,0.0,0.0,0.0,0.0,0.0,0.0,0.0,0.0,0.0,0.0,0.0,0.0,0.0,0.0,0.0,0.0,0.0,0.0,0.0,0.0,0.0,0.0,0.0,0.0,0.0,0.0,0.0,0.0,0.0,0.0,0.0,0.0,0.0,0.0,0.0,0.0,0.0,0.0,0.0,0.0,0.0,0.0,0.0,0.0,0.0,0.0,0.0,0.0,0.0,0.0,0.0,0.0,0.0,0.0,0.0,0.0,0.0,0.0,0.0,0.0,0.0,0.0,0.0,0.0,0.0,0.0,0.0,0.0,0.0,0.0,0.0,0.0,0.0,0.0,0.0,0.0,0.0,0.0,0.0,0.0,0.0,0.0,0.0,0.0,0.0,0.0,0.0,0.0,0.0,0.0,0.0,0.0,0.0,0.0,0.0,0.0,0.0,0.0,0.0,0.0,0.0,0.0,0.0,0.0,0.0,0.0,0.0,0.0,0.0,0.0,0.0,0.0,0.0,0.0,0.0,0.0,0.0,0.0,0.0,0.0,0.0,0.0,0.0,0.0,0.0,0.0,0.0,0.0,0.0,0.0,0.0,0.0,0.0,0.0,0.0,0.0,0.0,0.0,0.0,0.0,0.0,0.0,0.0,0.0,0.0,0.0,0.0,0.0,0.0,0.0,0.0,0.0,0.0,0.0,0.0,0.0,0.0,0.0,0.0,0.0,0.0,0.0,0.0,0.0,0.0,0.0,0.0,0.0,0.0,0.0,0.0,0.0,0.0,0.0,0.0,0.0,0.0,0.0,0.0,0.0,0.0,0.0,0.0,0.0,0.0,0.0,0.0,0.0,0.0,0.0,0.0,0.0,0.0,0.0,0.0,0.0,0.0,0.0,0.0,0.0,0.0,0.0,0.0,0.0,0.0,0.0,0.0,0.0,0.0,0.0,0.0,0.0,0.0,0.0,0.0,0.0,0.0,0.0,0.0,0.0,0.0,0.0,0.0,0.0,0.0,0.0,0.0,0.0,0.0,0.0,0.0,0.0,0.0,0.0,0.0,0.0,0.0,0.0,0.0,0.0,0.0,0.0,0.0,0.0,0.0,0.0,0.0,0.0,0.0,0.0,0.0,0.0,0.0,0.0,0.0,0.0,0.0,0.0,0.0,0.0,0.0,0.0,0.0,0.0,0.0,0.0,0.0,0.0,0.0,0.0,0.0,0.0,0.0,0.0,0.0,0.0,0.0,0.0,0.0,0.0,0.0,0.0,0.0,0.0,0.0,0.0,0.0,0.0,0.0,0.0,0.0,0.0,0.0,0.0,0.0,0.0,0.0,0.0,0.0,0.0,0.0,0.0,0.0,0.0,0.0,0.0,0.0,0.0,0.0,0.0,0.0,0.0,0.0,0.0,0.0,0.0,0.0,0.0,0.0,0.0,0.0,0.0,0.0,0.0,0.0,0.0,0.0,0.0,0.0,0.0,0.0,0.0,0.0,0.0,0.0,0.0,0.0,0.0,0.0,0.0,0.0,0.0,0.0,0.0,0.0,0.0,0.0,0.0,0.0,0.0,0.0,0.0,0.0,0.0,0.0,0.0,0.0,0.0,0.0,0.0,0.0,0.0,0.0,0.0,0.0,0.0,0.0,0.0,0.0,0.0,0.0,0.0,0.0,0.0,0.0,0.0,0.0,0.0,0.0,0.0,0.0,0.0,0.0,0.0,0.0,0.0,0.0,0.0,0.0,0.0,0.0,0.0,0.0,0.0,0.0,0.0,0.0,0.0,0.0,0.0,0.0,0.0,0.0,0.0,0.0,0.0,0.0,0.0,0.0,0.0,0.0,0.0,0.0,0.0,0.0,0.0,0.0,0.0,0.0,0.0,0.0,0.0,0.0,0.0,0.0,0.0,0.0,0.0,0.0,0.0,0.0,0.0,0.0,0.0,0.0,0.0,0.0,0.0,0.0,0.0,0.0,0.0,0.0,0.0,0.0,0.0,0.0,0.0,0.0,0.0,0.0,0.0,0.0,0.0,0.0,0.0,0.0,0.0,0.0,0.0,0.0,0.0,0.0,0.0,0.0,0.0,0.0,0.0,0.0,0.0,0.0,0.0,0.0,0.0,0.0,0.0,0.0,0.0,0.0,0.0,0.0,0.0,0.0,0.0,0.0,0.0,0.0,0.0,0.0,0.0,0.0,0.0,0.0,0.0,0.0,0.0,0.0,0.0,0.0,0.0,0.0,0.0,0.0,0.0,0.0,0.0,0.0,0.0,0.0,0.0,0.0,0.0,0.0,0.0,0.0,0.0,0.0,0.0,0.0,0.0,0.0,0.0,0.0,0.0,0.0,0.0,0.0,0.0,0.0,0.0,0.0,0.0,0.0,0.0,0.0,0.0,0.0,0.0,0.0,0.0,0.0,0.0,0.0,0.0,0.0,0.0,0.0,0.0,0.0,0.0,0.0,0.0,0.0,0.0,0.0,0.0,0.0,0.0,0.0,0.0,0.0,0.0,0.0,0.0,0.0,0.0,0.0,0.0,0.0,0.0,0.0,0.0,0.0,0.0,0.0,0.0,0.0,0.0,0.0,0.0,0.0,0.0,0.0,0.0,0.0,0.0,0.0,0.0,0.0,0.0,0.0,0.0,0.0,0.0,0.0,0.0,0.0,0.0,0.0,0.0,0.0,0.0,0.0,0.0,0.0,0.0,0.0,0.0,0.0,0.0,0.0,0.0,0.0,0.0,0.0,0.0,0.0,0.0,0.0,0.0,0.0,0.0,0.0,0.0,0.0,0.0,0.0,0.0,0.0,0.0,0.0,0.0,0.0,0.0,0.0,0.0,0.0,0.0,0.0,0.0,0.0,0.0,0.0,0.0,0.0,0.0,0.0,0.0,0.0,0.0,0.0,0.0,0.0,0.0,0.0,0.0,0.0,0.0,0.0,0.0,0.0,0.0,0.0,0.0,0.0,0.0,0.0,0.0,0.0,0.0,0.0,0.0,0.0,0.0,0.0,0.0,0.0,0.0,0.0,0.0,0.0,0.0,0.0,0.0,0.0,0.0,0.0,0.0,0.0,0.0,0.0,0.0,0.0,0.0,0.0,0.0,0.0,0.0,0.0,0.0,0.0,0.0,0.0,0.0,0.0,0.0,0.0,0.0,0.0,0.0,0.0,0.0,0.0,0.0,0.0,0.0,0.0,0.0,0.0,0.0,0.0,0.0,0.0,0.0,0.0,0.0,0.0,0.0,0.0,0.0,0.0,0.0,0.0,0.0,0.0,0.0,0.0,0.0,0.0,0.0,0.0,0.0,0.0,0.0,0.0,0.0,0.0,0.0,0.0,0.0,0.0,0.0,0.0,0.0,0.0,0.0,0.0,0.0,0.0,0.0,0.0,0.0,0.0,0.0,0.0,0.0,0.0,0.0,0.0,0.0,0.0,0.0,0.0,0.0,0.0,0.0,0.0,0.0,0.0,0.0,0.0,0.0,0.0,0.0,0.0,0.0,0.0,0.0,0.0,0.0,0.0,0.0,0.0,0.0,0.0,0.0,0.0,0.0,0.0,0.0,0.0,0.0,0.0,0.0,0.0,0.0,0.0,0.0,0.0,0.0,0.0,0.0,0.0,0.0,0.0,0.0,0.0,0.0,0.0,0.0,0.0,0.0,0.0,0.0,0.0,0.0,0.0,0.0,0.0,0.0,0.0,0.0,0.0,0.0,0.0,0.0,0.0,0.0,0.0,0.0,0.0,0.0,0.0,0.0,0.0,0.0,0.0,0.0,0.0,0.0,0.0,0.0,0.0,0.0,0.0,0.0,0.0,0.0,0.0,0.0,0.0,0.0,0.0,0.0,0.0,0.0,0.0,0.0,0.0,0.0,0.0,0.0,0.0,0.0,0.0,0.0,0.0,0.0,0.0,0.0,0.0,0.0,0.0,0.0,0.0,0.0,0.0,0.0,0.0,0.0,0.0,0.0,0.0,0.0,0.0,0.0,0.0,0.0,0.0,0.0,0.0,0.0,0.0,0.0,0.0,0.0,0.0,0.0,0.0,0.0,0.0,0.0,0.0,0.0,0.0,0.0,0.0,0.0,0.0,0.0,0.0,0.0,0.0,0.0,0.0,0.0,0.0,0.0,0.0,0.0,0.0,0.0,0.0,0.0,0.0,0.0,0.0,0.0,0.0,0.0,0.0,0.0,0.0,0.0,0.0,0.0,0.0,0.0,0.0,0.0,0.0,0.0,0.0,0.0,0.0,0.0,0.0,0.0,0.0,0.0,0.0,0.0,0.0,0.0,0.0,0.0,0.0,0.0,0.0,0.0,0.0,0.0,0.0,0.0,0.0,0.0,0.0,0.0,0.0,0.0,0.0,0.0,0.0,0.0,0.0,0.0,0.0,0.0,0.0,0.0,0.0,0.0,0.0,0.0,0.0,0.0,0.0,0.0,0.0,0.0,0.0,0.0,0.0,0.0,0.0,0.0,0.0,0.0,0.0,0.0,0.0,0.0,0.0,0.0,0.0,0.0,0.0,0.0,0.0,0.0,0.0,0.0,0.0,0.0,0.0,0.0,0.0,0.0,0.0,0.0,0.0,0.0,0.0,0.0,0.0,0.0,0.0,0.0,0.0,0.0,0.0,0.0,0.0,0.0,0.0,0.0,0.0,0.0,0.0,0.0,0.0,0.0,0.0,0.0,0.0,0.0,0.0,0.0,0.0,0.0,0.0,0.0,0.0,0.0,0.0,0.0,0.0,0.0,0.0,0.0,0.0,0.0,0.0,0.0,0.0,0.0,0.0,0.0,0.0,0.0,0.0,0.0,0.0,0.0,0.0,0.0,0.0,0.0,0.0,0.0,0.0,0.0,0.0,0.0,0.0,0.0,0.0,0.0,0.0,0.0,0.0,0.0,0.0,0.0,0.0,0.0,0.0,0.0,0.0,0.0,0.0,0.0,0.0,0.0,0.0,0.0,0.0,0.0,0.0,0.0,0.0,0.0,0.0,0.0,0.0,0.0,0.0,0.0,0.0,0.0,0.0,0.0,0.0,0.0,0.0,0.0,0.0,0.0,0.0,0.0,0.0,0.0,0.0,0.0,0.0,0.0,0.0,0.0,0.0,0.0,0.0,0.0,0.0,0.0,0.0,0.0,0.0,0.0,0.0,0.0,0.0,0.0,0.0,0.0,0.0,0.0,0.0,0.0,0.0,0.0,0.0,0.0,0.0,0.0,0.0,0.0,0.0,0.0,0.0,0.0,0.0,0.0,0.0,0.0,0.0,0.0,0.0,0.0,0.0,0.0,0.0,0.0,0.0,0.0,0.0,0.0,0.0,0.0,0.0,0.0,0.0,0.0,0.0,0.0,0.0,0.0,0.0,0.0,0.0,0.0,0.0,0.0,0.0,0.0,0.0,0.0,0.0,0.0,0.0,0.0,0.0,0.0,0.0,0.0,0.0,0.0,0.0,0.0,0.0,0.0,0.0,0.0,0.0,0.0,0.0,0.0,0.0,0.0,0.0,0.0,0.0,0.0,0.0,0.0,0.0,0.0,0.0,0.0,0.0,0.0,0.0,0.0,0.0,0.0,0.0,0.0,0.0,0.0,0.0,0.0,0.0,0.0,0.0,0.0,0.0,0.0,0.0,0.0,0.0,0.0,0.0,0.0,0.0,0.0,0.0,0.0,0.0,0.0,0.0,0.0,0.0,0.0,0.0,0.0,0.0,0.0,0.0,0.0,0.0,0.0,0.0,0.0,0.0,0.0,0.0,0.0,0.0,0.0,0.0,0.0,0.0,0.0,0.0,0.0,0.0,0.0,0.0,0.0,0.0,0.0,0.0,0.0,0.0,0.0,0.0,0.0,0.0,0.0,0.0,0.0,0.0,0.0,0.0,0.0,0.0,0.0,0.0,3.2904,3.0693,0.0,0.0,0.0,0.0,0.0,0.0,0.0,0.0,0.0,0.0,0.0,0.0,0.0,0.0,0.0,0.0,0.0,0.0,0.0,0.0,0.0,0.0,0.0,0.0,0.0,0.0,0.0,0.0,0.0,0.0,0.0,0.0,0.0,0.0,0.0,0.0,0.0,0.0,2.7307,2.7661,2.8368,2.8756,2.8739,2.842,0.0,0.0,0.0,0.0,0.0,0.0,0.0,0.0,0.0,0.0,0.0,0.0,0.0,0.0,0.0,0.0,0.0,0.0,0.0,0.0,0.0,0.0,0.0,0.0,0.0,0.0,0.0,0.0,0.0,0.0,0.0,0.0,0.0,0.0,0.0,0.0,0.0,0.0,0.0,0.0,0.0,0.0,0.0,0.0,0.0,0.0,0.0,0.0,0.0,0.0,0.0,0.0,0.0,0.0,0.0,0.0,0.0,0.0,0.0,0.0,0.0,0.0,0.0,0.0,0.0,0.0,0.0,0.0,0.0,0.0,3.83,3.5522,0.0,0.0,0.0,0.0,0.0,0.0,0.0,0.0,0.0,0.0,0.0,0.0,0.0,0.0,0.0,0.0,0.0,0.0,0.0,0.0,0.0,0.0,0.0,2.7307,2.7307,2.7307,2.7307,2.7307,0.0,0.0,0.0,0.0,0.0,0.0,0.0,2.7307,2.7307,2.7307,2.7872,2.8933,3.0439,3.1374,3.121,3.011,3.0093,0.0,0.0,0.0,0.0,0.0,0.0,0.0,0.0,0.0,0.0,0.0,0.0,0.0,0.0,0.0,0.0,0.0,0.0,0.0,0.0,0.0,0.0,0.0,0.0,0.0,0.0,0.0,0.0,0.0,0.0,0.0,0.0,0.0,0.0,0.0,0.0,0.0,0.0,0.0,0.0,0.0,0.0,0.0,0.0,0.0,0.0,0.0,0.0,0.0,0.0,0.0,0.0,0.0,0.0,0.0,0.0,0.0,0.0,0.0,0.0,0.0,0.0,0.0,4.4838,4.6563,4.8247,4.849,4.9102,4.9695,4.5343,4.2417,4.0589,3.9246,0.0,0.0,0.0,0.0,0.0,0.0,0.0,0.0,0.0,0.0,0.0,0.0,0.0,0.0,0.0,0.0,0.0,0.0,0.0,0.0,0.0,2.7307,2.7307,2.7307,2.7307,2.7307,2.7307,0.0,0.0,0.0,0.0,0.0,2.7307,2.7307,2.7307,2.7307,3.0168,3.2424,3.4136,3.5587,3.6528,3.6861,3.3805,3.3611,3.5439,0.0,0.0,0.0,0.0,0.0,0.0,0.0,0.0,0.0,0.0,0.0,0.0,0.0,0.0,0.0,0.0,0.0,0.0,0.0,0.0,0.0,0.0,0.0,0.0,0.0,0.0,0.0,0.0,0.0,0.0,0.0,0.0,0.0,0.0,0.0,0.0,0.0,0.0,0.0,0.0,0.0,3.5728,3.4448,0.0,0.0,0.0,0.0,0.0,0.0,0.0,0.0,0.0,0.0,0.0,0.0,0.0,4.1736,4.2358,4.733,4.9464,4.8781,5.2713,5.4357,5.3948,5.4728,5.5155,5.5278,5.5274,0.0,4.4117,4.2548,0.0,0.0,0.0,0.0,0.0,0.0,0.0,0.0,0.0,0.0,0.0,0.0,0.0,0.0,0.0,0.0,0.0,0.0,0.0,0.0,0.0,2.804,2.8541,2.8541,3.0119,3.0438,2.8809,2.9477,0.0,0.0,0.0,2.7509,2.7509,2.7509,2.8386,3.0171,3.3388,3.6017,3.8083,3.9186,4.0338,4.1433,3.9858,3.8164,3.6436,3.5012,0.0,0.0,0.0,0.0,0.0,0.0,0.0,0.0,0.0,0.0,0.0,0.0,0.0,0.0,0.0,0.0,0.0,0.0,0.0,0.0,0.0,0.0,0.0,0.0,0.0,0.0,0.0,0.0,0.0,0.0,0.0,0.0,0.0,0.0,0.0,0.0,0.0,0.0,0.0,3.5892,3.7532,3.6509,3.7779,3.7951,0.0,0.0,0.0,0.0,0.0,0.0,0.0,0.0,0.0,4.4647,4.7191,4.8882,4.9628,5.3314,5.5226,5.5388,5.7769,5.9484,6.0614,6.0502,6.0974,6.1823,6.1248,5.8353,5.3723,4.9315,4.597,4.3413,0.0,0.0,0.0,0.0,4.2353,4.3301,0.0,0.0,0.0,0.0,0.0,0.0,0.0,0.0,0.0,0.0,0.0,0.0,2.8118,2.9384,3.0396,3.0903,3.2763,3.2959,3.0734,3.0925,3.0174,2.802,2.7818,2.7742,2.7708,2.8568,3.0729,3.4212,3.7368,4.0155,4.2546,4.3693,4.474,4.5639,4.5761,4.3217,3.8751,3.7426,3.5971,3.4374,0.0,0.0,0.0,0.0,0.0,0.0,0.0,0.0,0.0,0.0,0.0,0.0,0.0,0.0,0.0,0.0,0.0,0.0,0.0,0.0,0.0,0.0,0.0,0.0,0.0,0.0,0.0,0.0,0.0,0.0,0.0,0.0,0.0,0.0,0.0,0.0,0.0,3.7976,3.9766,3.8478,4.0661,4.1086,0.0,0.0,0.0,0.0,0.0,0.0,4.6042,4.6871,4.8523,5.1375,5.3731,5.5341,5.622,5.8425,5.9935,6.0741,6.154,6.2997,6.4965,6.4519,6.4892,6.5805,6.4777,6.3393,6.137,5.5431,5.1485,4.8931,4.6321,4.5094,4.4986,4.6636,4.7372,4.8006,0.0,0.0,0.0,0.0,0.0,0.0,0.0,0.0,0.0,0.0,0.0,2.8118,3.0291,3.1455,3.2829,3.4744,3.3955,3.3168,3.2777,3.0257,2.8706,2.8557,2.8188,2.7901,2.7691,3.094,3.4777,3.9143,4.2296,4.5171,4.7775,5.0044,5.0734,5.0101,5.0527,4.8488,4.4472,4.1512,3.9758,3.8719,3.5706,0.0,0.0,0.0,0.0,0.0,0.0,0.0,0.0,0.0,0.0,0.0,0.0,0.0,0.0,0.0,0.0,0.0,0.0,0.0,0.0,0.0,0.0,0.0,0.0,0.0,0.0,0.0,0.0,0.0,0.0,0.0,0.0,0.0,0.0,0.0,0.0,0.0,0.0,4.0636,4.5103,0.0,0.0,0.0,0.0,4.52,4.7496,4.9661,5.1505,5.3312,5.506,5.6754,5.8665,6.0044,6.086,6.2562,6.344,6.3513,6.4315,6.4764,6.4932,6.5729,6.5664,6.5009,6.5748,6.5128,6.3251,5.903,5.674,5.5661,5.3105,5.2436,5.2824,5.2191,5.2311,5.2873,0.0,0.0,0.0,0.0,0.0,0.0,0.0,0.0,2.7307,2.7307,2.8127,2.9471,3.1446,3.373,3.5777,3.7502,3.8723,3.8289,3.5647,3.415,3.2535,3.0686,2.9626,3.0109,3.2282,3.554,3.9013,4.2721,4.5869,4.8697,5.1137,5.1977,5.2769,5.3499,5.3668,5.2645,5.0484,4.5225,4.2163,4.0531,3.6925,3.5102,0.0,0.0,0.0,0.0,0.0,0.0,0.0,0.0,0.0,0.0,0.0,0.0,0.0,0.0,0.0,0.0,0.0,0.0,0.0,0.0,0.0,0.0,0.0,0.0,0.0,0.0,0.0,0.0,0.0,0.0,0.0,0.0,0.0,0.0,0.0,0.0,0.0,4.7859,5.1524,0.0,4.9457,4.8742,4.9333,5.1367,5.2506,5.4337,5.719,5.9654,6.1215,6.176,6.3449,6.4269,6.4025,6.4623,6.5001,6.512,6.5401,6.5909,6.6557,6.6307,6.6345,6.6557,6.6307,6.6178,6.5998,6.3974,6.1465,5.8766,5.7197,5.6464,5.6298,5.6578,5.7146,5.7863,0.0,0.0,0.0,0.0,0.0,0.0,0.0,0.0,2.7249,2.6945,2.8768,3.0942,3.3113,3.619,3.8902,4.0888,4.2064,4.1301,3.8026,3.6095,3.3989,3.1543,3.1201,3.2579,3.5844,3.953,4.3056,4.6424,4.9328,5.1863,5.3994,5.4269,5.4949,5.5967,5.5863,5.5506,5.4686,4.9744,4.5941,4.3006,3.9894,3.8204,3.7198,0.0,0.0,0.0,0.0,0.0,0.0,0.0,0.0,0.0,0.0,0.0,0.0,0.0,0.0,0.0,0.0,0.0,0.0,0.0,0.0,0.0,0.0,0.0,0.0,0.0,0.0,0.0,0.0,0.0,0.0,0.0,0.0,0.0,0.0,4.8105,5.2206,5.3147,5.6966,5.8353,5.5349,5.4951,5.5741,5.7777,5.8651,6.0074,6.2376,6.457,6.5468,6.4865,6.6263,6.6641,6.5807,6.5788,6.5876,6.5999,6.5999,6.637,6.7056,6.6766,6.6785,6.7056,6.6766,6.6804,6.7017,6.6437,6.466,6.2202,6.125,6.0572,6.0162,6.0738,6.107,6.1318,0.0,0.0,0.0,0.0,0.0,0.0,0.0,2.6851,2.7147,2.6228,2.9176,3.2458,3.5331,3.8821,4.2101,4.4906,4.3536,4.1674,3.9723,3.5643,3.2621,3.1107,3.2846,3.5211,3.8116,4.2765,4.6845,5.0302,5.2717,5.4713,5.6357,5.7146,5.7555,5.7563,5.7259,5.7136,5.7004,5.5023,5.13,4.661,4.4843,4.2855,4.0626,0.0,0.0,0.0,0.0,0.0,0.0,0.0,0.0,0.0,0.0,0.0,0.0,0.0,0.0,0.0,0.0,0.0,0.0,0.0,0.0,0.0,0.0,0.0,0.0,0.0,0.0,0.0,0.0,0.0,0.0,0.0,0.0,0.0,4.5956,5.2425,5.6823,5.6191,6.1306,6.3296,5.9267,6.1413,6.3391,6.4176,6.5934,6.6954,6.687,6.7892,6.771,6.5989,6.701,6.7152,6.6243,6.6243,6.6243,6.6282,6.6224,6.6205,6.6263,6.7094,6.6998,6.6243,6.7094,6.6998,6.6243,6.6205,6.6224,6.6166,6.5359,6.486,6.4613,6.4608,6.3974,6.3022,0.0,0.0,0.0,0.0,0.0,0.0,0.0,2.6103,2.6564,2.6159,3.0067,3.3863,3.6413,4.0209,4.3543,4.5988,4.3978,4.1783,3.9864,3.5794,3.3619,3.4009,3.6202,3.9512,4.4042,4.7176,5.0109,5.281,5.4686,5.6153,5.7183,5.7982,5.8669,5.9263,5.979,6.0055,5.997,5.8772,5.698,5.4483,4.9125,4.6124,4.4512,0.0,0.0,0.0,0.0,0.0,0.0,0.0,0.0,0.0,0.0,0.0,0.0,0.0,0.0,0.0,0.0,0.0,0.0,0.0,0.0,0.0,0.0,0.0,0.0,0.0,0.0,0.0,0.0,0.0,0.0,0.0,4.7603,5.1337,5.2149,5.715,6.1888,6.4981,6.7322,6.8316,6.7382,6.6912,6.6814,6.7199,6.8289,6.8725,6.828,6.9689,6.9447,6.7122,6.8524,6.8603,6.7152,6.7133,6.7462,6.8076,6.6804,6.6533,6.7133,6.6746,6.6437,6.6205,6.6456,6.6785,6.7094,6.6456,6.6572,6.7056,6.6205,6.5464,6.4886,6.4886,6.4319,6.3419,0.0,0.0,0.0,0.0,0.0,0.0,0.0,2.5623,2.6301,2.5796,3.0685,3.4968,3.7019,4.0884,4.3896,4.5301,4.321,4.0808,3.8453,3.5462,3.4392,3.5775,3.9493,4.3238,4.6921,5.0413,5.3088,5.4843,5.6172,5.7398,5.852,5.8985,5.982,6.0953,6.112,6.1391,6.164,6.0805,6.0069,5.9072,5.4777,5.1878,4.9784,4.6625,4.4632,4.31,3.9869,3.9202,3.9362,3.6065,0.0,0.0,0.0,0.0,0.0,0.0,0.0,0.0,0.0,0.0,0.0,0.0,0.0,0.0,0.0,0.0,0.0,0.0,0.0,0.0,0.0,0.0,0.0,0.0,5.328,5.7916,6.0498,6.296,6.5663,6.88,7.0267,7.0969,7.0796,6.9957,6.9502,6.9606,7.0075,7.0064,6.9333,7.0576,7.0305,6.8114,6.9319,6.9208,6.752,6.7863,6.7921,6.7694,6.7056,6.6824,6.694,6.6437,6.6205,6.6205,6.6205,6.6495,6.692,6.6417,6.6495,0.0,0.0,0.0,0.0,0.0,6.445,6.3637,0.0,0.0,0.0,0.0,0.0,0.0,0.0,2.5265,2.6156,2.5282,3.0961,3.5535,3.6716,4.0531,4.3161,4.352,4.1488,3.9025,3.6295,3.5005,3.5299,3.7436,4.2694,4.6438,4.8351,5.2828,5.5567,5.645,5.7342,5.8502,5.9895,6.0099,6.1028,6.2513,6.1882,6.206,6.2755,6.1938,6.167,6.167,6.0693,5.843,5.5322,5.2422,5.1091,5.0114,4.5077,4.3208,4.2725,4.0015,0.0,0.0,0.0,0.0,0.0,0.0,0.0,0.0,0.0,0.0,0.0,0.0,0.0,0.0,0.0,0.0,0.0,0.0,0.0,0.0,0.0,0.0,0.0,0.0,5.9134,6.4276,6.9042,6.8855,6.8659,6.9874,7.1385,7.2038,7.1268,7.1253,7.1297,7.1297,7.1297,7.0929,7.0059,7.0833,0.0,0.0,0.0,6.9247,6.7655,6.8327,6.7965,6.663,6.7114,6.6998,6.634,6.6243,6.6205,6.6205,6.6205,6.6205,6.6205,6.6205,6.6147,6.5973,6.5165,6.4798,6.472,6.472,6.4217,6.356,0.0,0.0,0.0,0.0,0.0,0.0,0.0,2.4511,2.555,2.5092,3.0449,3.406,3.3441,3.7309,4.0515,4.1889,3.8991,3.6666,3.5705,3.5386,3.7436,4.237,4.5565,4.8927,5.254,5.4871,5.645,5.7268,5.8725,5.9598,5.9932,6.1269,6.2439,6.3386,6.3888,6.4575,6.5318,6.4463,6.4501,6.5021,6.3498,6.0774,5.7497,5.6238,5.4377,5.2217,5.0482,4.9448,4.8532,4.6017,4.4108,4.2466,4.0818,3.7405,0.0,0.0,0.0,0.0,0.0,0.0,0.0,0.0,0.0,0.0,0.0,0.0,0.0,0.0,0.0,0.0,0.0,0.0,0.0,5.9574,6.3971,6.8028,7.1286,7.1503,7.1925,7.3563,7.3456,7.3003,7.2345,7.17,7.1297,7.1297,7.1297,7.0929,7.0059,7.0833,7.0208,6.7829,6.9203,6.9531,6.8559,6.8018,6.8255,6.9247,0.0,0.0,6.723,6.6514,6.6205,6.6205,6.6205,6.6205,6.6205,6.6205,6.5818,6.5146,6.4295,6.3521,6.2893,6.2893,6.2801,6.2743,0.0,0.0,0.0,0.0,0.0,0.0,0.0,2.4291,2.543,2.5265,2.9803,3.2987,3.2826,3.558,3.7677,3.8251,3.5672,3.4419,3.5423,3.7034,4.0148,4.5045,4.8779,5.189,5.4342,5.644,5.7703,5.8093,5.93,6.0118,6.0582,6.1808,6.2829,6.3646,6.4445,6.5039,6.5448,6.5448,6.5689,6.5998,6.4705,6.3121,6.1366,6.0163,5.8603,5.684,5.5199,5.4101,5.2945,4.9918,4.7839,4.6048,4.3493,4.0768,3.8031,0.0,0.0,0.0,0.0,0.0,0.0,0.0,0.0,0.0,0.0,0.0,0.0,0.0,0.0,4.9801,5.2755,0.0,6.2326,6.5276,6.904,7.1955,7.2949,7.3419,7.3664,7.3702,7.331,7.2748,7.2021,7.1562,7.1297,7.1297,7.1297,7.0929,7.0059,7.0407,6.9879,6.8192,6.8951,6.9009,6.8153,6.8153,6.8139,6.8086,6.7249,6.6843,6.6824,6.6398,6.6205,6.6205,6.6205,6.6205,6.6205,6.6205,6.5721,6.4952,6.4527,6.3555,6.2506,6.3381,6.342,6.3168,0.0,0.0,0.0,0.0,0.0,0.0,0.0,2.4162,2.5319,2.5426,2.9015,3.1726,3.2201,3.3868,3.4721,3.4196,3.3142,3.3577,3.6042,3.9126,4.2768,4.7014,5.1435,5.4249,5.5233,5.7517,5.878,5.8929,5.9913,6.0749,6.1447,6.2253,6.3052,6.3869,6.4519,6.4983,6.5318,6.5875,6.6283,6.6451,6.5281,6.4909,6.4853,6.307,6.1911,6.0927,5.8743,5.7045,5.5381,5.2441,5.0175,4.8117,4.5459,4.3745,4.1899,3.7665,3.7364,0.0,0.0,0.0,0.0,0.0,0.0,0.0,0.0,4.4208,4.6512,4.952,5.2839,5.6334,6.0078,6.4335,6.801,7.025,7.299,7.4748,7.4425,7.4516,7.411,7.2761,7.2607,7.2181,7.1161,7.12,7.1239,7.1065,7.12,7.0852,6.9827,6.9924,6.9479,6.8327,6.8462,6.8211,6.752,6.8037,6.7675,6.6456,6.6998,6.6882,6.6205,6.6205,6.6205,6.6205,6.6205,6.6205,6.6205,6.6205,6.5818,6.5223,6.5223,6.4271,6.3091,6.4488,6.4566,6.4082,0.0,0.0,0.0,0.0,0.0,0.0,0.0,0.0,2.4627,2.5157,2.7997,2.9665,2.8932,3.0678,3.1673,3.1132,3.3541,3.6117,3.8551,4.1107,4.4674,4.9494,5.2317,5.4527,5.6116,5.7833,5.904,5.9765,6.1343,6.216,6.2272,6.3089,6.3906,6.4668,6.4761,6.5633,6.6971,6.6358,6.6915,6.8029,6.5726,6.5262,6.5689,6.3312,6.1911,6.1046,6.0006,5.7239,5.4026,5.3607,5.1426,4.8902,4.9247,4.7318,4.4536,4.2521,4.0047,3.787,3.7413,3.8296,3.9955,4.2403,4.3292,4.5166,0.0,5.2855,5.4183,5.8307,6.1389,6.3978,6.593,6.9343,7.2217,7.328,7.3775,7.4521,7.592,7.4251,7.28,7.2626,7.2607,7.1949,7.031,7.0852,7.0987,7.0194,7.0871,7.0614,6.9023,6.9609,6.8918,6.6572,6.7249,6.7597,6.7501,6.6824,6.6785,6.7346,6.6669,6.6282,6.6205,6.6205,6.6205,6.6205,6.6205,6.6205,6.6205,6.6205,6.6147,6.6069,6.6069,6.5508,6.474,6.4933,6.4933,6.4972,0.0,0.0,0.0,0.0,0.0,0.0,0.0,0.0,0.0,2.4749,2.6943,2.8355,2.8045,2.9344,3.0154,2.9911,3.2017,3.4983,3.8841,4.1869,4.5918,5.1323,5.3933,5.58,5.697,5.8112,5.9096,5.9895,6.1102,6.1938,6.242,6.3219,6.3776,6.411,6.4593,6.5466,6.6599,6.6729,6.7193,6.7676,6.6153,6.5466,6.5081,6.2812,6.0727,5.8799,5.6997,5.4639,0.0,5.0748,4.9336,4.8333,4.915,4.785,4.5589,4.3517,4.2294,4.1789,4.2522,4.3812,4.5269,4.6606,4.9182,5.2201,5.5233,5.7453,5.9804,6.3161,6.5953,6.8464,7.0685,7.3133,7.4928,7.5295,7.5353,7.5256,7.4986,7.3148,7.1291,6.9802,7.0073,7.0092,6.9377,7.0054,7.0388,7.004,7.0813,7.0576,6.8888,6.9125,6.8352,6.6263,6.6553,6.6746,6.6746,6.6379,6.6379,6.6746,6.6379,6.6205,6.6205,6.6205,6.6205,6.6205,6.6205,6.6205,6.6205,6.6205,6.6259,6.6263,6.575,6.57,6.5906,6.5755,6.5088,6.4353,0.0,0.0,0.0,0.0,0.0,0.0,0.0,0.0,0.0,0.0,2.587,2.7132,2.7801,2.878,2.9402,2.9402,3.0864,3.3683,3.816,4.172,4.5937,5.1026,5.4258,5.6209,5.6793,5.8383,5.9425,5.9895,6.0955,6.1734,6.2234,6.3145,6.3571,6.3619,6.4404,6.5187,6.5952,6.6646,6.7016,6.7032,6.6094,6.5073,6.3795,6.1063,5.8072,5.5128,5.356,5.1465,4.9059,4.6637,4.5673,4.5632,4.6469,4.6074,4.5028,4.3603,4.3803,4.467,4.5662,4.7558,4.9536,5.0723,5.4535,5.8269,5.9354,6.2062,6.5037,6.7466,6.9435,7.1297,7.3187,7.4328,7.4991,7.4991,7.4991,7.456,7.3342,7.1698,6.9744,6.7423,6.7288,6.7307,6.7051,6.8622,6.9575,6.9324,7.033,7.0208,6.852,6.8675,6.7998,6.6263,6.6205,6.6205,6.6205,6.6205,6.6205,6.6205,6.6205,6.6215,6.6254,6.629,6.6176,6.5959,6.5959,6.5827,6.5584,6.5584,6.5639,6.5686,6.5048,6.5244,6.5861,6.5669,6.498,6.422,0.0,0.0,0.0,0.0,0.0,0.0,0.0,0.0,0.0,0.0,0.0,0.0,0.0,2.8876,2.9402,2.9402,3.0864,3.3224,3.6544,4.0576,4.4339,4.7701,5.2466,5.5047,5.5085,5.8605,6.0269,5.9895,6.1412,6.2011,6.1748,6.2943,6.3491,6.3529,6.4342,6.4964,6.5448,6.5852,6.6257,6.6508,6.5247,6.3749,6.1823,5.7654,5.3475,4.994,5.0706,4.8204,4.4174,4.1889,4.0587,4.0094,4.0978,4.1732,4.2506,4.3415,4.4245,4.4924,4.517,4.7734,5.1196,5.4718,5.8307,6.1843,6.5175,6.7926,7.0266,7.2046,7.2471,7.2549,7.2626,7.1988,7.1452,7.1452,7.1452,7.1452,7.1394,6.9938,6.8211,6.6456,6.4836,6.3521,6.268,6.6374,6.8482,6.7636,6.9106,6.9305,6.7636,6.8346,6.7998,6.6263,6.6205,6.6205,6.6205,6.6205,6.6205,6.6205,6.6205,6.6273,6.6408,6.6528,6.6131,6.5328,6.5328,6.4856,6.4076,6.4076,6.4079,6.4064,6.4045,6.4042,6.4088,6.4064,6.4565,6.5253,0.0,0.0,0.0,0.0,0.0,0.0,0.0,0.0,0.0,0.0,0.0,0.0,0.0,0.0,0.0,0.0,3.0381,3.2147,3.4853,3.8904,4.2415,4.5138,4.9986,5.2605,5.2605,5.5612,5.7116,5.6977,5.8269,5.8972,5.9197,5.982,6.0477,6.1122,6.1638,6.2433,6.3416,6.3557,6.3387,6.2942,6.1931,6.0641,5.8919,5.4944,5.1187,4.7589,0.0,4.1657,3.9316,3.7473,3.7024,3.7597,3.9575,3.9659,3.9547,4.2245,4.449,4.6735,4.9697,5.343,5.7103,5.9568,6.3627,6.7312,6.8453,7.0291,7.1736,7.1736,7.0382,6.9222,6.9222,6.8506,6.81,6.868,6.9261,6.9821,7.0368,6.899,6.6876,6.4014,6.4193,6.3569,6.1054,6.4134,6.6379,6.6611,6.8724,6.9266,6.7597,6.8327,6.8045,6.6377,6.6323,6.638,6.6464,6.6464,6.6464,6.6464,6.641,6.6425,6.6469,6.6505,6.6057,6.5234,6.5234,6.4768,6.399,6.399,6.4024,6.4006,6.3424,6.3616,6.4137,6.3552,6.3514,6.3747,0.0,0.0,0.0,0.0,0.0,0.0,0.0,0.0,0.0,0.0,0.0,0.0,0.0,0.0,0.0,0.0,0.0,3.0623,3.2773,3.6228,3.918,4.1408,4.564,4.8,4.8082,5.0518,5.1729,5.1617,5.3179,5.4038,5.4253,5.5806,5.6892,5.7561,5.8675,5.9575,6.0266,6.0313,5.9487,5.8034,5.6926,5.5078,5.2661,4.9296,4.5949,0.0,3.8457,3.6055,3.462,3.3572,3.3993,3.5274,3.721,3.8823,4.041,4.2716,4.5885,4.9613,5.3956,5.7579,6.0866,6.3922,6.7365,7.0156,7.0794,7.1543,7.1717,7.0247,6.8158,6.6224,6.5006,6.3555,6.3033,6.4541,6.5257,6.6127,6.7544,6.7101,6.5716,6.3201,6.3668,6.3324,6.1168,6.3201,6.4982,6.5827,6.7942,6.8625,6.7243,6.798,6.784,6.6506,6.6471,6.65,6.6566,6.6569,6.6554,6.6563,6.6571,6.6413,6.6102,6.6153,6.552,6.4407,6.4407,6.3939,6.3179,6.3179,6.3193,6.3183,6.2637,6.279,6.3307,6.2737,6.2537,6.256,0.0,0.0,0.0,0.0,0.0,0.0,0.0,0.0,0.0,0.0,0.0,0.0,0.0,0.0,0.0,0.0,0.0,0.0,3.0307,3.2698,3.4833,3.6542,3.9838,4.164,4.1719,4.3825,4.4712,4.4295,4.6635,4.7601,4.736,5.0945,5.2649,5.2796,5.5239,5.6129,5.5795,5.5932,5.4499,5.1993,5.0494,4.7583,4.3876,4.1323,3.8327,3.5269,3.3526,3.1849,3.0487,3.0579,3.1848,3.3542,3.4372,3.9241,4.4694,4.4926,4.8546,5.3405,5.7699,6.0151,6.2685,6.7631,6.9473,7.0484,7.2046,7.1698,7.0305,6.7713,6.5702,6.3386,6.0001,5.739,5.6581,5.9163,5.9811,6.086,6.3419,6.4581,6.4837,6.3911,6.3236,6.2799,6.2728,6.3544,6.4419,6.5246,6.6892,6.7511,6.6692,6.7433,6.7491,6.6698,6.6622,6.6578,6.6529,6.651,6.6522,6.6523,6.6657,6.6242,6.5402,6.5545,6.4657,6.2997,6.2997,6.2505,6.1697,6.1697,6.1697,6.1696,6.1704,6.1707,6.1696,6.1704,6.1699,6.1818,0.0,0.0,0.0,0.0,0.0,0.0,0.0,0.0,0.0,0.0,0.0,0.0,0.0,0.0,0.0,0.0,0.0,0.0,2.7817,3.0716,3.2132,3.1509,3.6386,3.8314,3.6624,4.037,4.1661,4.0278,4.2377,4.3224,4.2921,4.4139,4.5112,4.5853,4.6767,4.7321,4.7614,4.7647,4.6884,4.559,4.46,4.3329,4.1786,3.9292,3.7155,3.5269,3.3526,3.2237,3.157,3.2865,3.5757,3.8851,3.9076,4.2064,4.6113,4.9324,5.2995,5.694,6.1239,6.4561,6.7307,6.9222,7.0349,7.075,6.9957,6.8584,6.6592,6.34,5.9377,5.5591,5.2801,5.2336,5.2974,5.4889,5.8483,6.1919,6.4529,6.5652,6.5648,6.4138,6.4359,6.4171,6.2963,6.4177,6.5182,6.5507,6.753,6.8399,6.7543,6.83,6.8423,6.767,6.7018,6.6712,6.6794,6.6796,6.6797,6.6797,6.6774,6.634,6.5559,6.5584,6.4657,6.2998,6.2998,6.2508,6.1704,6.1704,6.1704,6.1704,6.1701,6.1702,6.1704,6.1701,6.1699,6.1738,0.0,0.0,0.0,0.0,0.0,0.0,0.0,0.0,0.0,0.0,0.0,0.0,0.0,0.0,0.0,0.0,0.0,0.0,0.0,2.8359,2.9468,2.9178,3.1896,3.3232,3.2826,3.4552,3.5357,3.512,3.625,3.6895,3.7109,3.802,3.8761,3.9344,4.0272,4.1055,4.1692,4.1577,4.0892,0.0,0.0,3.768,3.6355,3.4967,3.3954,3.3135,3.2157,3.3205,3.5342,3.7058,3.9796,4.2667,4.3772,4.6964,5.0964,5.4546,5.8004,6.1524,6.5417,6.8139,7.0092,7.0924,7.0672,6.9551,6.7114,6.5218,6.2472,5.7172,5.4097,5.1235,4.7576,4.7973,4.954,5.1594,5.5375,5.9367,6.3061,6.4696,6.5413,6.5219,6.5671,6.5653,6.4746,6.5839,6.6618,6.6684,6.7947,6.8473,6.7965,6.8428,6.8495,6.8062,6.7224,6.6816,6.6865,6.6858,6.6854,6.6854,6.6828,6.6376,6.5595,6.5198,6.4297,6.2989,6.2598,6.2148,6.1699,6.1699,6.1699,6.1699,6.1699,6.1699,6.1699,6.1699,6.1465,6.1133,0.0,0.0,0.0,0.0,0.0,0.0,0.0,0.0,0.0,0.0,0.0,0.0,0.0,0.0,0.0,0.0,0.0,0.0,0.0,0.0,2.7042,2.801,2.7664,2.8151,2.9654,2.8626,2.8654,2.9898,3.0016,3.0464,3.1237,3.2683,3.3359,3.3433,3.4872,3.6003,3.6804,3.6567,3.5821,3.4736,3.3754,3.2154,3.0404,0.0,3.0404,3.0423,3.0654,3.4099,3.8949,4.1535,4.3914,4.6222,4.8778,5.2859,5.7207,5.9938,6.2999,6.6152,6.9189,7.0717,7.1601,7.2123,7.0266,6.7423,6.4101,6.1485,5.7772,5.079,4.9451,4.8136,4.3476,4.42,4.637,4.9055,5.1927,5.559,6.0719,6.2993,6.4736,6.6362,6.6756,6.6881,6.6881,6.7616,6.804,6.7943,6.8193,6.8334,6.8289,6.8216,6.8119,6.7937,6.7253,6.6859,6.679,6.6801,6.6796,6.6796,6.6796,6.6328,6.5409,6.4649,6.3751,6.2794,6.2031,6.1699,6.1699,6.1699,6.1699,6.1699,6.1699,6.1699,6.1699,6.1699,6.1211,6.0568,0.0,0.0,0.0,0.0,0.0,0.0,0.0,0.0,0.0,0.0,2.3738,2.3644,0.0,0.0,0.0,0.0,0.0,0.0,0.0,0.0,0.0,2.5236,2.7187,2.7551,2.5971,2.789,2.8354,2.7262,2.7978,2.8412,2.8566,2.8854,2.8989,2.9008,2.9297,2.9874,3.0643,3.0588,3.0841,3.1266,3.1079,3.0758,3.0404,3.0404,0.0,0.0,3.1965,3.3168,3.5234,4.2631,4.8168,5.2395,5.4944,5.7806,6.0867,6.4135,6.6553,6.841,6.9653,7.1161,7.2065,7.0775,6.8047,6.4933,6.2182,5.6936,5.1695,4.8256,4.4875,4.1835,3.9511,4.1146,4.3947,4.7283,5.1229,5.5692,6.0917,6.3163,6.4644,6.5673,6.6409,6.6811,6.6823,6.76,6.7794,6.7072,6.8374,6.92,6.9178,6.8496,6.7773,6.7049,6.6893,6.681,6.6799,6.6798,6.6796,6.6796,6.6796,6.5996,6.4513,6.4376,6.3438,6.1914,6.1777,0.0,6.1699,6.1699,6.1699,6.1699,6.1699,6.1699,6.1699,6.1699,6.1602,6.1368,0.0,0.0,0.0,0.0,0.0,0.0,0.0,2.3175,2.3557,2.4635,2.4674,2.4604,2.46,2.4365,0.0,0.0,0.0,0.0,0.0,0.0,0.0,0.0,2.5968,2.6346,2.6201,2.6636,2.6918,2.701,0.0,2.6546,2.7007,2.6627,2.6444,2.6447,2.652,2.7005,2.7835,2.8277,2.8951,2.9756,3.0212,3.0404,3.0404,0.0,0.0,0.0,3.1813,3.3167,3.5182,4.0638,4.6495,5.2434,5.7632,6.106,6.3613,6.6147,6.7791,6.9062,7.0324,7.162,7.2297,7.1007,6.7467,6.3173,5.8816,5.3556,4.8233,4.346,4.1219,3.9459,3.7309,3.9794,4.2766,4.4471,4.8018,5.2555,5.8258,6.0127,6.2072,6.5224,6.6317,6.6802,6.6796,6.7595,6.7927,6.7517,6.8246,6.8718,6.8718,6.8326,6.7701,6.6823,6.6803,6.6801,6.6796,6.6796,6.6796,6.6796,6.6796,6.6386,6.5567,6.4708,6.3849,6.3008,6.209,6.1699,6.1699,6.1699,6.1699,6.1699,6.1699,6.1699,6.1699,6.1699,6.1407,6.0959,0.0,0.0,0.0,0.0,0.0,0.0,0.0,2.3601,2.4037,2.5268,2.5519,2.5457,2.5145,2.471,2.4396,0.0,0.0,0.0,0.0,0.0,0.0,0.0,0.0,0.0,0.0,0.0,0.0,2.6821,2.5455,0.0,0.0,0.0,0.0,0.0,2.522,2.5867,2.6928,2.7604,2.847,0.0,0.0,3.0404,0.0,0.0,0.0,0.0,0.0,3.2906,3.5014,3.8292,4.3023,4.8798,5.6089,6.1176,6.4696,6.6031,6.7534,6.912,7.0614,7.1529,7.1794,7.075,6.6519,6.1181,5.576,5.0635,4.5394,3.9666,3.8589,3.8069,3.6074,3.8648,4.1336,4.218,4.4906,4.9057,5.5188,5.7054,5.9602,6.4473,6.5936,6.6601,6.6777,6.7595,6.8023,6.7849,6.783,6.783,6.783,6.783,6.7517,6.6816,6.6796,6.6796,6.6796,6.6796,6.6796,6.6796,6.6796,6.6718,6.6504,6.5176,6.4473,6.42,6.2657,6.1973,6.1953,6.1777,6.1699,6.1699,6.1699,6.1699,6.1699,6.1699,6.127,6.0646,0.0,0.0,0.0,0.0,0.0,0.0,0.0,2.3601,2.4236,2.597,2.5589,2.5225,2.5438,2.5369,2.5007,0.0,0.0,0.0,0.0,0.0,0.0,0.0,0.0,0.0,0.0,0.0,0.0,2.4941,2.4852,0.0,0.0,0.0,0.0,0.0,0.0,2.6107,2.7796,2.7873,0.0,0.0,0.0,0.0,0.0,0.0,0.0,0.0,0.0,3.1377,3.1838,3.7482,3.986,4.1512,4.7637,5.5586,6.266,6.2815,6.5677,6.8985,6.9885,7.0175,6.9846,6.8255,6.342,5.8105,5.4449,4.7908,4.197,3.9829,3.7602,3.5977,3.5745,3.6627,3.8464,4.1763,4.3858,4.7195,5.3373,5.6287,5.9145,6.2813,6.4707,6.5995,6.6738,6.7595,6.7771,6.6972,6.6913,6.6913,6.6913,6.6913,6.6874,6.6796,6.6796,6.6796,6.6796,6.6796,6.6796,6.6796,6.6796,6.6425,6.5702,6.5546,6.5058,6.4259,6.3282,6.2872,0.0,6.2031,6.1699,6.1699,6.1699,6.1699,6.1699,6.1699,6.1641,6.1465,0.0,0.0,0.0,0.0,0.0,0.0,2.3369,2.3488,2.4074,2.5725,2.5836,2.5804,2.5911,2.5647,2.5041,2.3995,0.0,0.0,0.0,0.0,0.0,0.0,0.0,0.0,0.0,0.0,2.4756,2.4389,2.4432,0.0,0.0,0.0,0.0,0.0,0.0,2.5449,2.6277,2.7293,0.0,0.0,0.0,0.0,0.0,0.0,0.0,0.0,0.0,0.0,3.0854,3.3241,3.546,3.7447,3.8776,4.4945,5.2681,5.7826,6.1287,6.4077,6.694,6.884,6.9479,6.7268,6.3013,5.8202,5.3734,4.7157,4.1371,3.9166,3.7118,3.5706,3.5706,3.6398,3.762,3.9634,4.0543,4.296,4.8588,5.0686,5.3899,5.9944,6.2187,6.4199,6.6562,6.7109,6.7166,6.6835,6.6796,6.6796,6.6796,6.6796,6.6796,6.6796,6.6796,6.6796,6.6796,6.6796,6.6796,6.6796,6.6796,6.6621,6.6307,6.5819,6.5409,6.4999,6.3613,6.3008,0.0,6.2051,6.1699,6.1699,6.1699,6.1699,6.1699,6.1699,6.1699,6.1641,0.0,0.0,0.0,0.0,0.0,2.2557,2.3291,2.34,2.3872,2.5172,2.5558,2.57,2.5705,2.5076,2.4325,2.347,2.3283,0.0,0.0,0.0,0.0,0.0,0.0,0.0,0.0,0.0,2.4209,2.4201,2.4459,2.463,0.0,0.0,2.4941,2.5026,0.0,0.0,0.0,0.0,0.0,0.0,0.0,0.0,0.0,0.0,0.0,0.0,0.0,0.0,0.0,0.0,0.0,3.4021,3.303,3.6626,4.2815,5.1115,5.5853,5.9261,6.3245,6.6011,6.7326,6.5528,6.1718,5.7172,5.2515,4.6364,4.0984,3.8679,3.687,3.5696,3.5696,3.6224,3.6952,3.7899,3.8527,4.0524,4.5248,4.7094,5.0347,5.6821,5.9123,6.1524,6.496,6.6211,6.6796,6.6796,6.6796,6.6796,6.6796,6.6796,6.6796,6.6796,6.6796,6.6796,6.6796,6.6796,6.6796,6.6796,6.6796,6.6796,6.6777,6.6209,6.5839,6.5526,6.4297,6.3477,0.0,6.2343,6.1934,6.1699,6.1699,6.1699,6.1699,6.1699,6.1699,6.1699,0.0,0.0,0.0,0.0,0.0,0.0,2.3291,2.34,2.3671,2.4406,2.4515,2.4523,2.4523,2.3453,2.2725,2.2714,2.3305,0.0,0.0,0.0,0.0,0.0,0.0,0.0,0.0,0.0,2.4194,2.4194,2.5056,2.5491,2.5495,2.5569,2.5657,2.5756,0.0,0.0,0.0,0.0,0.0,0.0,0.0,0.0,0.0,0.0,0.0,0.0,0.0,0.0,0.0,0.0,0.0,0.0,0.0,3.2469,3.4731,4.247,4.9529,5.5606,5.9029,6.1195,6.2467,6.2448,5.8623,5.3942,5.0519,4.5104,4.0329,3.8563,3.6869,3.5696,3.5696,3.5763,3.6121,3.7062,3.8662,4.1015,4.4524,4.7187,5.0106,5.3639,5.559,5.7991,6.1426,6.4804,6.6796,6.6796,6.6796,6.6796,6.6796,6.6796,6.6796,6.6796,6.6796,6.6796,6.6796,6.6796,6.6796,6.6796,6.6796,6.6796,6.6796,6.6796,6.6346,6.5604,6.5585,6.4589,0.0,6.2989,6.248,6.1699,6.1699,6.1699,6.1699,6.1699,6.1699,6.1699,0.0,0.0,0.0,0.0,0.0,0.0,0.0,2.2641,2.2919,2.3654,2.3755,2.3949,2.4448,2.3714,2.3204,2.3236,2.189,0.0,0.0,0.0,0.0,0.0,0.0,0.0,0.0,0.0,2.447,2.5026,2.5303,2.5745,2.6323,2.6329,2.6085,2.5597,2.5401,2.5234,0.0,0.0,0.0,0.0,0.0,0.0,0.0,0.0,0.0,0.0,0.0,0.0,0.0,0.0,0.0,0.0,0.0,0.0,0.0,3.5853,4.158,4.771,5.1162,5.3724,5.5024,5.3375,5.1722,4.9615,4.6224,4.2643,3.955,3.7819,3.6558,3.576,3.576,3.5829,3.6551,3.8638,3.9471,4.0858,4.3719,4.6349,4.9702,5.4343,6.0022,6.4004,6.5077,6.6152,6.6796,6.6796,6.6796,6.6796,6.6796,6.6796,6.6796,6.6796,6.6796,6.6796,6.6796,6.6796,6.6796,6.6796,6.6796,6.6796,6.6796,6.6796,6.666,6.6367,6.5215,6.4395,6.381,6.2598,6.1953,6.1699,6.1699,6.1699,6.1699,6.1699,6.1699,6.1699,0.0,0.0,0.0,0.0,0.0,0.0,0.0,2.2296,2.2455,2.2919,2.2987,2.3274,2.4,2.318,2.2704,2.3018,2.1096,0.0,0.0,0.0,0.0,0.0,0.0,0.0,0.0,2.4194,2.458,2.5398,2.5705,2.6284,2.7119,2.7135,2.689,2.6373,2.5813,2.5342,0.0,0.0,0.0,0.0,0.0,0.0,2.9907,0.0,0.0,0.0,0.0,0.0,0.0,0.0,0.0,0.0,0.0,0.0,0.0,0.0,3.5621,3.9938,4.4385,4.7688,4.9505,4.7998,4.7356,4.6396,4.3631,4.1047,3.8801,3.738,3.6428,3.5839,3.5839,3.5894,3.6479,3.8103,3.8945,4.0188,4.2407,4.5547,4.9643,5.5143,6.1174,6.5019,6.5332,6.625,6.6796,6.6796,6.6796,6.6796,6.6796,6.6796,6.6796,6.6796,6.6796,6.6796,6.6796,6.6796,6.6796,6.6796,6.6796,6.6796,6.6796,6.6796,6.6621,6.6288,6.5235,6.4415,0.0,6.2637,6.1992,6.1699,6.1699,6.1504,6.1211,6.1211,6.1211,6.1211,0.0,0.0,0.0,0.0,0.0,0.0,0.0,2.2296,2.2296,2.2296,2.2296,2.2557,2.3241,2.2104,2.1556,2.2236,0.0,0.0,0.0,0.0,0.0,0.0,0.0,0.0,2.419,2.4194,2.4617,2.549,2.6227,2.7034,2.7884,2.8007,2.8011,2.7827,2.6336,2.5619,2.5565,0.0,0.0,0.0,0.0,0.0,0.0,0.0,0.0,0.0,0.0,0.0,0.0,0.0,0.0,0.0,0.0,0.0,0.0,0.0,0.0,0.0,0.0,4.2534,4.5073,4.5025,4.4588,4.3724,4.2043,3.9932,0.0,3.7198,3.6439,3.5956,3.6074,3.6033,3.6092,3.6405,3.7766,3.9381,4.1137,4.5347,5.0398,5.6175,5.9943,6.2324,6.3028,6.5332,6.6796,6.6796,6.6796,6.6796,6.6796,6.6796,6.6777,6.6718,6.6777,6.6796,6.6796,6.6796,6.6796,6.6796,6.6796,6.6777,6.6718,6.6718,6.6268,0.0,6.5448,6.4492,6.3008,6.293,6.2422,6.1699,6.1699,6.1211,6.049,6.049,6.049,6.049,0.0,0.0,0.0,0.0,0.0,0.0,0.0,0.0,0.0,0.0,2.2296,2.2364,2.254,2.2252,2.2117,0.0,0.0,0.0,0.0,0.0,0.0,0.0,0.0,0.0,2.419,2.4194,2.4905,2.6319,2.6515,2.7323,2.873,2.9353,2.8997,2.7814,2.7477,2.6398,2.4895,2.5812,0.0,0.0,0.0,0.0,0.0,0.0,0.0,0.0,3.0403,3.0436,0.0,0.0,0.0,0.0,0.0,0.0,0.0,0.0,3.0882,3.1189,3.2602,0.0,3.6069,3.5502,3.6692,3.7716,0.0,3.7024,3.7318,3.644,3.611,3.6385,3.7713,3.6894,3.7068,4.0366,4.0673,4.135,4.3746,5.0087,5.5727,5.9104,6.3106,6.5176,6.4103,6.5703,6.6796,6.6796,6.6796,6.6796,6.6796,6.6796,6.6523,6.5897,6.6484,6.6796,6.6796,6.6796,6.6796,6.6796,6.6796,6.6484,6.5878,6.5878,6.5429,6.4571,6.3906,6.3379,6.295,6.2285,6.1875,6.1699,6.1699,6.1563,6.1387,6.1387,6.1387,6.1387,0.0,0.0,0.0,0.0,0.0,0.0,0.0,0.0,0.0,0.0,0.0,0.0,0.0,0.0,0.0,0.0,0.0,0.0,0.0,0.0,0.0,0.0,0.0,2.3837,2.4151,2.418,2.4997,2.6607,2.6607,2.7616,2.9543,2.961,2.9378,2.8857,2.7805,2.6478,2.5045,2.5401,2.5879,0.0,2.7094,0.0,0.0,0.0,0.0,0.0,2.9946,3.01,0.0,3.0034,3.0219,3.0598,0.0,0.0,0.0,0.0,3.0608,3.0595,3.0595,3.2219,3.3793,3.3352,3.491,3.6421,3.5996,3.6309,3.6562,3.6094,3.5996,3.6406,3.7753,3.7225,3.7613,4.0752,4.1508,4.3161,4.7354,5.2252,5.68,6.0548,6.3399,6.5157,6.541,6.6269,6.6796,6.6796,6.6796,6.6796,6.6796,6.6796,6.6425,6.5624,6.6385,6.6621,6.6249,6.6249,6.6249,6.6249,6.6249,6.5819,6.5019,6.5429,6.5116,6.4259,6.3379,6.3008,6.293,6.2051,6.1699,6.1699,6.1699,6.1465,6.1094,6.1094,6.1094,6.1094,0.0,0.0,0.0,0.0,0.0,0.0,0.0,0.0,0.0,0.0,0.0,0.0,0.0,0.0,0.0,0.0,0.0,0.0,0.0,0.0,0.0,0.0,0.0,2.3807,2.4208,2.4196,2.4969,2.6607,2.6717,2.7892,3.0002,2.9702,2.9721,2.991,2.7689,2.6197,2.5329,2.4967,2.4923,2.5151,2.5401,0.0,0.0,0.0,0.0,0.0,0.0,0.0,0.0,2.9655,2.9938,3.0598,3.0598,0.0,0.0,0.0,0.0,0.0,3.0946,3.2903,3.4787,3.4338,3.5679,3.707,3.6934,3.6426,3.5996,3.5996,3.6113,3.6503,3.7518,3.7808,3.8487,4.0376,4.2302,4.5596,5.1375,5.3698,5.6449,6.0977,6.2501,6.3945,6.584,6.6386,6.6562,6.6425,6.6543,6.6562,6.6425,6.6425,6.6035,6.5234,6.5996,6.6035,6.5214,6.5468,6.5526,6.5409,6.5409,6.4941,6.4122,6.4863,6.4726,6.3868,0.0,0.0,6.2735,6.1992,6.1621,6.1504,6.1641,6.1172,6.0412,6.0549,6.0607,6.0607,0.0,0.0,0.0,0.0,0.0,0.0,0.0,0.0,0.0,0.0,0.0,0.0,0.0,0.0,0.0,0.0,0.0,0.0,0.0,0.0,0.0,2.2753,2.3044,2.3696,2.4753,2.4337,2.4934,2.6607,2.7273,2.8154,2.9225,3.1152,3.1023,2.9115,2.7445,2.5938,2.4663,2.4757,2.5325,2.6177,2.6337,0.0,0.0,0.0,0.0,0.0,0.0,0.0,0.0,3.035,3.0421,3.0598,3.0598,0.0,0.0,0.0,0.0,0.0,3.2479,3.4274,3.5198,3.3029,3.4351,3.6016,3.5273,3.5566,3.5995,3.5996,3.6581,3.7593,3.9197,4.0052,4.1333,4.3812,4.6851,5.0535,5.5141,5.7249,5.8889,6.0412,6.2678,6.3673,6.2597,6.4492,6.5487,6.4747,6.537,6.5468,6.4727,6.4688,6.4298,6.3438,6.4239,6.4278,6.3418,6.4863,6.5234,6.4493,6.4493,6.4044,6.3204,6.334,6.2911,6.209,0.0,6.1895,6.1895,6.1758,6.127,6.0666,6.1407,6.1172,6.049,6.1231,6.1504,6.1504,0.0,0.0,0.0,0.0,0.0,0.0,0.0,0.0,0.0,0.0,0.0,0.0,0.0,0.0,0.0,0.0,0.0,0.0,0.0,0.0,0.0,2.248,2.2879,2.365,2.4814,2.4824,2.5606,2.7255,2.7627,2.8429,2.9671,3.0791,3.0259,2.8306,2.7227,2.6163,2.5134,2.4977,2.5212,2.571,0.0,0.0,0.0,0.0,0.0,0.0,0.0,0.0,0.0,0.0,3.0151,3.0607,3.0602,0.0,0.0,0.0,0.0,0.0,3.1739,3.3577,3.4977,3.3807,3.582,3.7871,3.701,3.7127,3.7537,3.8005,3.8433,3.9231,4.0949,4.1941,4.381,4.7809,5.0967,5.3776,5.6254,5.7269,5.8401,6.0198,6.1467,6.2424,6.3047,6.4199,6.4727,6.4337,6.4669,6.4727,6.4317,6.4298,6.3907,6.3028,6.3849,6.3654,6.2304,6.3555,6.3984,6.3595,6.3595,6.3145,6.2304,6.2794,6.252,6.1699,0.0,6.1699,6.1699,6.1699,6.1465,6.1133,6.1543,6.1465,6.1153,6.1543,6.1407,6.1055,0.0,0.0,0.0,0.0,0.0,0.0,0.0,0.0,0.0,0.0,0.0,0.0,0.0,0.0,0.0,0.0,0.0,0.0,0.0,0.0,2.2296,2.2296,2.2948,2.3848,2.4956,2.523,2.6156,2.7792,2.7989,2.8906,3.0467,3.0093,2.9163,2.7767,2.6925,2.6148,2.5477,2.5129,2.5071,2.5157,0.0,0.0,0.0,0.0,0.0,0.0,0.0,0.0,0.0,0.0,0.0,0.0,0.0,0.0,0.0,3.0714,3.077,3.0906,3.1297,3.2868,3.4492,3.4901,3.7167,3.9277,3.9194,3.9038,3.9253,4.0539,4.0947,4.1413,4.2503,4.3907,4.6463,5.1239,5.4186,5.6256,5.7348,5.7678,5.8518,6.0471,6.0705,6.1486,6.3498,6.3888,6.3907,6.3712,6.3888,6.3907,6.3693,6.3498,6.3088,6.2403,6.2834,6.254,6.1407,6.2052,6.2481,6.2696,6.2696,6.2343,6.1719,6.2383,6.2324,6.1699,6.1699,6.1699,6.168,6.1485,6.1289,6.1094,6.1094,6.1094,6.1094,6.1094,6.0801,6.049,0.0,0.0,0.0,0.0,0.0,0.0,0.0,0.0,0.0,0.0,0.0,0.0,0.0,0.0,0.0,0.0,0.0,0.0,0.0,0.0,2.2296,2.2296,2.3347,2.4443,2.5528,2.5337,2.6066,2.7792,2.8552,2.9745,3.128,2.9782,2.8626,2.7748,2.6385,2.5431,2.4872,2.4968,2.5102,2.5295,2.5303,0.0,0.0,0.0,0.0,0.0,0.0,0.0,0.0,0.0,0.0,0.0,0.0,0.0,3.0795,3.0797,3.0833,3.123,3.2793,3.3359,3.3887,3.5507,3.6698,3.8084,4.0404,4.0341,4.0495,4.2939,4.4064,4.4428,4.3732,4.6246,4.9619,5.3229,5.5942,5.8208,5.9885,6.0821,6.1407,6.1582,6.1602,6.168,6.1875,6.2618,6.2755,6.1953,6.2637,6.2735,6.1934,6.1115,6.0646,6.0588,5.9865,5.9806,6.049,6.0568,6.0998,6.1797,6.1797,6.1758,6.1699,6.1758,6.1758,6.1699,6.1699,6.1699,6.1641,6.0822,6.0022,5.9299,5.9299,5.9299,5.9299,5.9299,5.9767,6.0412,0.0,0.0,0.0,0.0,0.0,0.0,0.0,0.0,0.0,0.0,0.0,0.0,0.0,0.0,0.0,0.0,0.0,0.0,0.0,2.2296,2.2296,2.2296,2.3035,2.3885,2.4832,2.5979,2.7219,2.8552,2.8858,2.9317,2.9873,2.8778,2.7871,2.714,2.623,2.5796,2.5715,2.5338,2.554,2.606,2.5519,2.5827,0.0,0.0,0.0,0.0,0.0,0.0,0.0,0.0,2.9311,2.9567,3.0433,3.0763,3.0804,3.0854,3.0878,3.1035,3.168,3.3008,3.4375,3.5036,3.6656,3.8628,4.0634,4.1705,4.2991,4.5585,4.722,4.8075,4.7747,4.962,5.1825,5.3698,5.6586,5.9026,6.0237,6.0686,6.0881,6.0881,6.0411,6.0079,6.0079,6.0372,6.0431,6.0118,6.0392,6.0431,6.0099,5.9767,5.9591,5.9591,5.9807,5.9807,5.9591,6.0139,6.0295,6.0099,6.0626,6.0881,6.0881,6.0881,6.1192,6.1699,6.1699,6.1387,6.0861,6.0549,5.9885,5.9103,5.9103,5.8772,5.8363,5.8908,5.8907,5.8742,0.0,0.0,0.0,0.0,0.0,0.0,0.0,0.0,0.0,0.0,0.0,0.0,0.0,0.0,0.0,0.0,0.0,0.0,2.2279,2.2296,2.2296,2.2296,2.3003,2.3697,2.4388,2.6099,2.7397,2.8235,2.8235,2.8235,2.8235,2.7677,2.7216,2.6828,2.6476,2.6306,2.6263,2.588,2.591,2.6137,2.5538,2.5654,0.0,0.0,0.0,0.0,0.0,0.0,0.0,0.0,2.8557,2.8822,3.0005,3.0395,3.0481,3.08,3.0898,3.0898,3.0898,3.2363,3.3945,3.4214,3.6457,3.9189,4.1411,4.3264,4.5408,4.8565,4.9676,5.0358,5.1179,5.1863,5.2762,5.4186,5.7054,5.9396,6.0276,6.0646,6.0705,6.0432,5.9866,5.9396,5.9123,5.885,5.8693,5.8693,5.8659,5.8539,5.8321,5.8466,5.8453,5.822,5.8747,5.8902,5.863,5.9215,5.9244,5.8693,5.9244,5.9675,5.9983,5.9983,6.0314,6.088,6.088,6.0548,5.9963,5.969,5.9085,5.8303,5.8303,5.7904,5.7403,5.8064,5.8014,5.7702,0.0,0.0,0.0,0.0,0.0,0.0,0.0,0.0,0.0,0.0,0.0,0.0,0.0,0.0,0.0,0.0,0.0,0.0,2.2236,2.2296,2.2296,2.2303,2.3392,2.4123,2.4388,2.5506,2.6253,2.6607,2.6607,2.6607,2.6607,2.6607,2.6712,2.6916,2.7115,2.6865,2.6333,2.6505,2.6099,2.5324,2.5324,2.5324,2.5324,0.0,0.0,0.0,0.0,0.0,0.0,0.0,2.6855,2.7192,2.8939,2.9545,2.9766,3.0625,3.0898,3.0898,3.0897,3.1483,3.2322,3.3218,3.6045,3.9515,4.2952,4.5076,4.753,5.1825,5.1335,5.0924,5.352,5.2583,5.2272,5.4869,5.7405,5.9375,6.0256,6.1114,6.1347,6.0471,6.0373,6.0021,5.9161,5.8284,5.7776,5.7776,5.7661,5.7299,5.6621,5.7108,5.7039,5.6325,5.6186,5.6589,5.7574,5.7594,5.7657,5.7776,5.7655,5.8106,5.9083,5.9083,5.9083,5.9102,5.9102,5.9083,5.9024,5.8147,5.7327,5.6605,5.6605,5.6475,5.632,5.6528,5.7018,5.7594,0.0,0.0,0.0,0.0,0.0,0.0,0.0,0.0,0.0,0.0,0.0,0.0,0.0,0.0,0.0,0.0,0.0,0.0,2.1505,2.2016,2.2377,2.2565,2.3133,2.356,2.3829,2.4452,2.5379,2.6607,2.6607,2.6607,2.6594,2.6732,2.693,2.7104,2.6726,2.6861,2.7288,2.615,2.6233,2.7082,2.6464,2.6579,2.7063,0.0,0.0,0.0,0.0,0.0,0.0,0.0,0.0,0.0,2.8277,2.9081,2.9648,2.9902,3.043,3.0898,3.0898,3.1933,3.3378,3.4859,3.7804,4.1277,4.4744,4.6399,4.8417,5.261,5.3067,5.2912,5.3585,5.3295,5.3198,5.3981,5.5738,5.7328,5.8289,5.8648,5.8726,5.8453,5.7889,5.7379,5.7016,5.6755,5.6599,5.6599,5.6567,5.6464,5.6263,5.6393,5.6391,5.6175,5.6728,5.6861,5.6544,5.7153,5.7173,5.6599,5.6564,5.7074,5.8042,5.7941,5.8239,5.8829,5.8916,5.8559,5.7836,5.7065,5.6601,5.6386,5.6386,5.6352,5.6314,5.6377,5.6465,5.6558,0.0,0.0,0.0,0.0,0.0,0.0,0.0,0.0,0.0,0.0,0.0,0.0,0.0,0.0,0.0,0.0,0.0,0.0,0.0,2.1576,2.1892,2.2675,2.2829,2.3176,2.3827,2.4079,2.4685,2.5658,2.5658,2.5805,2.6122,2.6663,2.7189,2.7724,2.7758,2.7807,2.7794,2.7094,2.7024,2.7373,2.7198,2.7431,2.7796,0.0,0.0,0.0,0.0,0.0,0.0,0.0,0.0,0.0,2.7909,2.8652,2.9219,2.9902,3.0488,3.0976,3.1288,3.2616,3.4412,3.6514,3.987,4.3534,4.6942,4.8942,5.0951,5.4108,5.4203,5.4002,5.4941,5.4278,5.3828,5.4472,5.5456,5.6465,5.7392,5.7522,5.7522,5.7519,5.7052,5.6439,5.5699,5.5304,5.4954,5.4624,5.4533,5.4387,5.409,5.4958,5.5324,5.5035,5.613,5.6343,5.555,5.6061,5.5915,5.511,5.5057,5.5349,5.5955,5.6586,5.7175,5.7667,5.7742,5.7442,5.6848,5.6397,5.621,5.621,5.621,5.621,5.621,5.621,5.6167,5.61,0.0,0.0,0.0,0.0,0.0,0.0,0.0,0.0,0.0,0.0,0.0,0.0,0.0,0.0,0.0,0.0,0.0,0.0,0.0,0.0,2.1069,2.256,2.2588,2.3078,2.4185,2.4194,2.4194,2.4194,2.4194,2.4613,2.5451,2.6465,2.7504,2.8553,2.9426,2.9084,2.7931,2.8508,2.7912,2.6676,2.7469,2.7835,2.7796,2.6928,0.0,0.0,0.0,0.0,0.0,0.0,0.0,0.0,2.7656,2.8242,2.8633,3.0293,3.084,3.1094,3.1989,3.3432,3.5382,3.8243,4.2218,4.6239,4.9309,5.1899,5.4054,5.5517,5.4679,5.4395,5.6712,5.5242,5.4142,5.5591,5.5896,5.6181,5.6926,5.7029,5.7033,5.7046,5.7046,5.6437,5.4883,5.4026,5.3249,5.2437,5.2264,5.1908,5.1231,5.3221,5.4077,5.3398,5.4742,5.519,5.4564,5.4568,5.4223,5.3566,5.3445,5.3369,5.3435,5.5089,5.5893,5.598,5.6045,5.6074,5.6097,5.6084,5.6078,5.6078,5.6078,5.6078,5.6078,5.6078,5.6078,5.6057,0.0,0.0,0.0,0.0,0.0,0.0,0.0,0.0,0.0,0.0,0.0,0.0,0.0,0.0,0.0,0.0,0.0,0.0,0.0,0.0,2.0911,2.2095,2.3179,2.3881,2.419,2.4194,2.4194,2.4194,2.4194,2.4694,2.5653,2.6661,2.7716,2.8725,2.8415,2.8133,2.7816,2.6618,2.631,2.6618,2.6794,2.7294,2.7796,2.6928,2.6592,0.0,0.0,0.0,0.0,0.0,0.0,0.0,2.6953,2.7754,2.8516,2.957,3.0351,3.1211,3.2713,3.3883,3.5815,4.0434,4.5241,4.9161,5.0406,5.1606,5.2557,5.2903,5.3778,5.4597,5.5036,5.469,5.4198,5.388,5.3846,5.3944,5.4227,5.427,5.427,5.4266,5.4266,5.4075,5.3609,5.3397,5.32,5.3026,5.2984,5.2897,5.2747,5.3209,5.3415,5.3244,5.355,5.3665,5.3523,5.3523,5.3432,5.3282,5.3254,5.3234,5.3253,5.3649,5.4256,5.5025,5.5551,5.5904,5.6087,5.5986,5.595,5.595,5.595,5.595,5.595,5.595,5.595,5.5849,0.0,0.0,0.0,0.0,0.0,0.0,0.0,0.0,0.0,0.0,0.0,0.0,0.0,0.0,0.0,0.0,0.0,0.0,0.0,0.0,2.0181,2.1742,2.3313,2.4166,2.419,2.4194,2.4194,2.4194,2.4252,2.4963,2.6298,2.7017,2.8066,2.9352,2.912,2.8593,2.7873,2.7332,2.6928,2.6637,2.7044,2.7739,2.8382,2.7571,2.751,2.7742,2.7049,0.0,0.0,0.0,0.0,0.0,0.0,0.0,2.9082,2.9961,3.0547,3.1172,3.2439,3.4019,3.6651,4.2165,4.6722,4.9923,5.0211,5.0884,5.1545,5.1913,5.3069,5.3957,5.3896,5.3876,5.3722,5.3274,5.2851,5.2757,5.3242,5.2947,5.2832,5.3256,5.3295,5.3113,5.2611,5.2582,5.2409,5.2029,5.1991,5.1991,5.1991,5.237,5.2582,5.2582,5.2986,5.3005,5.2582,5.2582,5.237,5.1991,5.1991,5.1991,5.2029,5.2837,5.3494,5.4004,5.435,5.4583,5.4705,5.4644,5.4617,5.4655,5.5061,5.5275,5.5365,5.5696,5.5831,5.5821,0.0,0.0,0.0,0.0,0.0,0.0,0.0,0.0,0.0,0.0,0.0,0.0,0.0,0.0,0.0,0.0,0.0,0.0,0.0,0.0,0.0,2.1717,2.3335,2.4194,2.4194,2.4228,2.4302,2.4459,2.4631,2.5576,2.7217,2.7415,2.8416,3.0044,3.0075,2.9351,2.8124,2.8508,2.7873,2.6656,2.7393,2.8066,2.8621,2.8177,2.8403,2.8927,2.839,2.7745,2.7249,2.8026,0.0,0.0,0.0,0.0,2.9766,3.0644,3.0898,3.1113,3.2067,3.4544,3.8105,4.3252,4.6963,4.939,4.954,5.0038,5.0707,5.1524,5.237,5.2986,5.2986,5.2986,5.2928,5.2799,5.2159,5.1947,5.2664,5.214,5.1967,5.2683,5.2779,5.2491,5.1755,5.1697,5.1414,5.0745,5.0707,5.0707,5.0707,5.1337,5.1697,5.1697,5.239,5.2409,5.1697,5.1697,5.1356,5.0707,5.0707,5.0707,5.0745,5.2145,5.2832,5.2986,5.3121,5.3197,5.3197,5.3197,5.3197,5.3294,5.4164,5.4569,5.4757,5.5449,5.5759,5.5801,0.0,0.0,0.0,0.0,0.0,0.0,0.0,0.0,0.0,0.0,0.0,0.0,0.0,0.0,0.0,0.0,0.0,0.0,1.9384,0.0,0.0,2.2597,2.3647,2.4194,2.4194,2.4311,2.4739,2.5504,2.581,2.6813,2.8442,2.7793,2.848,3.0228,2.9564,2.914,2.8857,2.7505,2.6794,2.6618,2.6736,2.6832,2.7018,2.7735,2.8065,2.8151,2.8198,2.8139,2.8054,2.8241,2.8223,0.0,0.0,0.0,2.9766,3.0644,3.0898,3.123,3.2791,3.6749,4.0902,4.297,4.5537,4.7882,4.9146,4.9495,4.9822,5.0688,5.151,5.2077,5.2077,5.2077,5.1851,5.1149,5.0938,5.0899,5.1015,5.0938,5.0899,5.1015,5.1034,5.0996,5.0861,5.0861,5.0822,5.0707,5.0707,5.0707,5.0707,5.0803,5.0861,5.0861,5.0976,5.0976,5.0861,5.0861,5.0803,5.0707,5.0707,5.0707,5.0707,5.0938,5.1414,5.212,5.287,5.3197,5.3197,5.3197,5.3197,5.3294,5.4164,5.4512,5.461,5.5411,5.5705,5.5514,0.0,0.0,0.0,0.0,0.0,0.0,0.0,0.0,0.0,0.0,0.0,0.0,0.0,0.0,0.0,1.9541,1.9954,2.0234,2.0255,2.1434,2.2348,2.2788,2.3706,2.4194,2.4194,2.4334,2.4833,2.5709,2.6038,2.7081,2.8751,2.8514,2.9337,3.1018,3.07,3.0294,2.9756,2.8525,2.7739,2.734,2.7369,2.7652,2.8104,2.8649,2.9116,2.9535,2.9666,2.9408,2.906,2.959,2.9434,2.918,3.0059,0.0,0.0,0.0,3.0898,3.1269,3.2947,3.5402,3.7994,4.0004,4.2436,4.4726,4.6202,4.7298,4.8375,4.9707,5.024,5.0644,5.1144,5.1221,5.1106,5.0765,5.0707,5.0707,5.0707,5.0707,5.0707,5.0707,5.0707,5.0707,5.0707,5.0707,5.0707,5.0707,5.0707,5.0707,5.0707,5.0707,5.0707,5.0707,5.0707,5.0707,5.0707,5.0707,5.0707,5.0707,5.0707,5.0707,5.0707,5.0707,5.0899,5.1241,5.1625,5.1798,5.1798,5.1798,5.1798,5.1875,5.2722,5.3044,5.314,5.3991,5.4299,5.4184,0.0,0.0,0.0,0.0,0.0,0.0,0.0,0.0,0.0,0.0,0.0,0.0,0.0,0.0,0.0,0.0,2.0554,2.0993,2.1664,2.2398,2.2907,2.3118,2.3821,2.4218,2.4252,2.4604,2.5126,2.5828,2.6561,2.7582,2.8891,2.9468,3.0409,3.1613,3.1455,3.1003,3.0346,2.947,2.8758,2.8234,2.8287,2.869,2.9297,2.9669,3.0177,3.0718,3.0855,0.0,0.0,0.0,3.0469,3.0039,3.0703,3.0898,0.0,0.0,0.0,3.1172,3.2439,3.3548,3.4837,3.6826,3.9063,4.1311,4.3231,4.4677,4.6216,4.8336,4.8759,4.9029,4.988,5.0399,5.0707,5.0707,5.0707,5.0611,5.0399,5.0553,5.0534,5.0091,5.0226,5.0284,5.0053,5.0245,5.0361,5.0361,5.0572,5.0592,5.038,5.0361,5.0265,5.0053,5.0034,5.0034,5.0034,5.0265,5.0476,5.0707,5.0707,5.0707,5.0707,5.0707,5.0707,5.0707,5.0707,5.0707,5.0707,5.0707,5.0707,5.0784,5.1582,5.1904,5.2,5.287,5.3197,5.3159,0.0,0.0,0.0,0.0,0.0,0.0,0.0,0.0,0.0,0.0,0.0,0.0,1.9654,2.0525,2.114,2.114,2.1372,2.207,2.3287,2.3019,2.3177,2.4002,2.4147,0.0,2.4399,2.5325,2.594,2.6165,2.7962,2.8925,2.9121,3.073,3.1555,3.1657,3.0827,3.0442,3.0346,2.947,0.0,0.0,0.0,2.9239,2.9488,3.0311,3.0668,3.0718,3.0855,0.0,0.0,0.0,0.0,0.0,3.0898,3.0898,3.0898,0.0,0.0,0.0,3.1015,3.2223,3.3654,3.4409,3.5948,3.8078,4.1224,4.2004,4.3004,4.6331,4.7024,4.7274,4.8082,4.9591,5.0707,5.0707,5.0707,5.0418,4.9591,5.0188,5.0091,4.8432,4.8952,4.9144,4.8317,4.8971,4.9471,4.9471,5.0226,5.0341,4.951,4.9471,4.9086,4.8255,4.8235,4.8235,4.8235,4.9048,4.988,5.0707,5.0707,5.0707,5.0707,5.0707,5.0707,5.0707,5.0707,5.0707,5.0707,5.0707,5.0707,5.0784,5.1582,5.1904,5.2,5.287,5.3197,5.3082,0.0,0.0,0.0,0.0,0.0,0.0,0.0,0.0,0.0,0.0,0.0,0.0,0.0,2.168,2.198,2.2151,2.2566,2.3095,2.3777,2.3707,2.3768,2.4099,2.4166,2.4519,2.5215,2.5708,2.6594,2.7861,2.8664,2.9367,2.9947,3.0546,3.0837,3.0885,3.1118,3.1234,3.1176,3.0291,0.0,0.0,0.0,0.0,0.0,0.0,0.0,0.0,0.0,0.0,0.0,0.0,0.0,0.0,3.0898,3.0898,3.0898,3.0898,3.0898,3.0898,3.0897,3.1345,3.1961,3.2674,3.3713,3.5121,3.7327,3.8619,4.0177,4.3043,4.4062,4.4874,4.6244,4.7875,4.9029,4.9029,4.9029,4.8913,4.8606,4.8836,4.8798,4.8178,4.8375,4.8432,4.812,4.8894,4.9163,4.8606,4.9375,4.949,4.8606,4.8567,4.8413,4.8101,4.8101,4.8101,4.8101,4.8413,4.8721,4.9048,4.961,4.988,4.988,5.0438,5.0707,5.0707,5.0707,5.0707,5.0707,5.0707,5.0707,5.0726,5.1015,5.1125,5.1164,5.1476,5.1611,5.1553,0.0,0.0,0.0,0.0,0.0,0.0,0.0,0.0,0.0,0.0,0.0,0.0,0.0,0.0,2.2515,2.287,2.3289,2.3676,2.4011,2.4079,2.4103,2.4123,2.4491,2.5051,2.5788,2.6524,2.7425,2.845,2.9164,2.9666,2.9964,3.0269,3.0404,3.0423,3.1028,3.1301,0.0,0.0,0.0,3.0561,0.0,0.0,3.0807,0.0,0.0,0.0,0.0,0.0,0.0,0.0,0.0,0.0,3.0898,3.0898,3.0898,3.0898,3.0898,3.0898,3.0898,3.0896,3.1005,3.142,3.1937,3.2742,3.4329,3.5525,3.7084,3.9946,4.0989,4.1989,4.3955,4.524,4.6274,4.7124,4.7259,4.7259,4.7259,4.7259,4.7259,4.7259,4.7259,4.7259,4.7259,4.8048,4.8317,4.7735,4.849,4.8586,4.7735,4.7413,4.7009,4.6451,4.6971,4.7259,4.7259,4.7543,4.7832,4.8101,4.8682,4.8952,4.899,4.988,5.0265,5.0284,5.0572,5.0707,5.0707,5.0707,5.0707,5.0707,5.0707,5.0707,5.0707,5.0707,5.0707,5.0707,0.0,0.0,0.0,0.0,0.0,0.0,0.0,0.0,0.0,2.1714,0.0,0.0,0.0,0.0,0.0,2.3342,2.3567,2.3818,2.4157,2.4182,2.4206,2.4273,2.5222,2.5853,2.6061,2.7808,2.842,2.7874,2.9504,2.9903,2.9165,3.0003,3.0404,3.0416,3.0474,3.05,3.0509,0.0,3.0571,3.0702,0.0,3.0788,3.0995,0.0,0.0,0.0,3.1855,3.1621,0.0,3.0898,0.0,0.0,0.0,3.0898,3.0898,3.0898,3.0898,3.0898,0.0,0.0,0.0,3.0655,3.0604,3.0981,3.249,3.2859,3.3817,3.7161,3.7873,3.8642,4.1158,4.1639,4.2466,4.4936,4.5436,4.5537,4.5537,4.5537,4.5537,4.5537,4.5537,4.5537,4.5537,4.6336,4.6831,4.6793,4.7562,4.7658,4.6831,4.5994,4.4782,4.3143,4.4686,4.5537,4.5537,4.6394,4.7216,4.7985,4.8043,4.8062,4.8082,4.8971,4.9356,4.9413,5.0284,5.0649,5.0649,5.0688,5.0707,5.0707,5.0707,5.0707,5.0707,5.0707,5.0707,5.0707,0.0,0.0,0.0,0.0,0.0,0.0,2.0786,2.1047,2.1394,0.0,0.0,0.0,2.323,2.4153,2.4909,2.5284,2.5544,2.5755,2.5902,2.6042,2.613,2.6144,2.6552,2.7155,2.7949,2.8488,2.9046,2.9619,3.0114,3.0263,3.0041,3.0288,3.0433,3.0477,3.0489,3.0552,3.0636,3.0583,0.0,3.0692,3.0694,3.0771,0.0,0.0,0.0,0.0,0.0,3.1094,3.0898,0.0,3.0898,3.0898,0.0,0.0,3.0898,3.0898,3.0898,0.0,3.0898,0.0,0.0,0.0,0.0,0.0,3.1081,3.1652,3.2516,3.4007,3.4818,3.5661,3.7004,3.7712,3.835,3.9042,4.1777,4.3797,4.3797,4.3797,4.3797,4.3797,4.3797,4.3797,4.3797,4.5109,4.5455,0.0,4.547,4.5667,4.4239,4.3912,4.3585,4.3104,4.3547,4.3797,4.3797,4.4605,4.5124,4.5374,4.662,4.7235,4.7255,4.8082,4.8471,4.8509,4.9375,4.9764,4.9803,5.0438,5.0707,5.0707,5.0707,5.0707,5.0707,5.0707,5.0707,5.0707,0.0,0.0,0.0,0.0,0.0,0.0,2.1206,2.1455,2.185,0.0,0.0,0.0,2.4484,2.5327,2.5937,2.6115,2.6385,2.6586,2.672,2.6826,2.693,2.7024,2.7536,2.8116,2.8727,2.9186,2.973,3.0342,3.0376,3.0404,3.0404,3.0436,3.0464,3.05,0.0,0.0,0.0,0.0,0.0,0.0,3.0772,0.0,0.0,3.1309,3.1211,0.0,0.0,0.0,3.0898,3.0898,3.0898,0.0,0.0,0.0,0.0,0.0,0.0,0.0,0.0,0.0,0.0,0.0,0.0,0.0,3.0494,3.0873,3.1472,3.2242,3.2795,3.3526,3.4737,3.5334,3.5776,3.6135,3.8292,4.0296,4.1373,4.12,4.1239,4.1935,4.1724,4.1797,4.2489,4.3431,4.3758,4.3143,4.3993,4.3974,4.2624,4.2893,4.2777,4.2051,4.272,4.2931,4.2562,4.3374,4.397,4.4316,4.5336,4.6009,4.6394,4.7216,4.7601,4.7658,4.849,4.8856,4.8933,4.9803,5.0361,5.0707,5.0707,5.0707,5.0707,5.0707,5.0707,5.0707,0.0,0.0,0.0,2.0761,2.0932,2.1271,2.1925,2.2148,2.2618,0.0,2.4211,2.495,2.6073,2.6351,2.648,2.6503,2.6746,2.6982,2.7144,2.7205,2.7299,2.7499,2.8389,2.89,2.8966,2.9858,3.0342,3.0404,3.0404,3.0393,3.0414,3.0479,3.0509,3.0521,0.0,0.0,0.0,0.0,0.0,3.0898,3.0898,3.0898,0.0,0.0,3.1562,3.0996,3.1777,3.1562,3.0898,3.0898,3.0898,0.0,0.0,0.0,0.0,0.0,3.0898,0.0,0.0,0.0,0.0,0.0,3.0738,0.0,3.049,3.0526,3.0818,3.1434,3.1561,3.2006,3.351,3.3856,3.4183,3.4942,3.5154,3.61,3.8646,3.8277,3.8315,3.9896,3.9377,3.9508,4.1081,4.1312,4.1696,4.2489,4.2527,4.22,4.1427,4.22,4.1916,4.0265,4.1916,4.2393,4.1523,4.2489,4.3316,4.4028,4.4201,4.4667,4.534,4.622,4.6601,4.6658,4.7466,4.787,4.8024,4.8894,4.9764,5.0572,5.0649,5.0707,5.0707,5.0707,5.0707,5.0707,0.0,0.0,0.0,2.0869,2.1809,2.2649,2.283,2.3691,2.4466,2.4903,2.5837,2.6864,2.7946,2.8117,2.8221,2.8435,2.8658,2.8793,2.8839,2.9131,2.9335,2.9379,2.9768,2.9995,3.0008,3.0259,3.0398,3.0404,3.0404,3.0431,3.0484,3.0483,3.0559,3.0655,3.068,0.0,0.0,0.0,0.0,3.0898,3.0898,0.0,3.0918,3.1094,3.1055,3.0918,3.1094,3.1035,3.0898,3.0898,3.0898,3.0898,0.0,0.0,0.0,3.0898,0.0,0.0,0.0,0.0,0.0,0.0,0.0,0.0,3.0679,3.1026,3.1375,3.0776,3.0654,3.075,3.1077,3.1715,3.2237,3.2407,3.2984,3.4295,3.685,3.6504,3.635,3.7331,3.6734,3.6619,3.76,3.8331,3.8815,3.8988,3.9008,3.8911,3.8757,3.9569,3.9569,3.8527,4.0127,4.0608,3.98,4.1296,4.2139,4.2293,4.3662,4.4047,4.3624,4.4432,4.4816,4.4855,4.5725,4.649,4.7197,4.8024,4.8875,4.9726,5.0438,5.0707,5.0707,5.0707,5.0707,5.0707,0.0,0.0,2.1279,2.1888,2.2584,2.3264,2.3902,2.4616,2.5306,2.5869,2.7034,2.8055,2.8731,2.8791,2.8904,2.9189,2.9286,2.944,2.9634,2.984,2.9988,3.0105,3.0232,3.0313,3.0345,3.0376,3.0404,3.0404,3.0422,3.0475,3.0503,3.0577,3.0634,3.0709,3.0765,0.0,0.0,0.0,3.0898,3.0898,3.0898,0.0,3.0898,3.0898,3.0898,3.0898,3.0898,3.0898,3.0898,3.0898,3.0898,0.0,3.0898,3.0898,3.0898,0.0,3.0898,3.0898,0.0,0.0,0.0,3.1277,0.0,0.0,0.0,3.1142,3.1127,3.1065,3.0692,3.0538,3.0962,3.1061,3.1061,3.1061,3.1388,3.2253,3.3965,3.4196,3.4349,3.4753,3.4446,3.4523,3.5372,3.5857,3.6295,3.6715,3.7119,3.735,3.735,3.818,3.845,3.8007,3.8819,3.9261,3.93,4.0123,4.0969,4.1812,4.2658,4.3066,4.3124,4.3932,4.4297,4.4359,4.5225,4.584,4.6317,4.7158,4.7755,4.8279,4.9553,5.0322,5.0707,5.0707,5.0707,5.0707,2.1399,0.0,0.0,2.3154,2.3519,2.399,2.4969,2.5494,2.6065,2.6882,2.8021,2.8833,2.9055,2.9104,2.9296,2.9678,2.9596,2.9723,3.0209,3.0132,3.0122,3.0282,3.031,3.0345,3.0404,3.0408,3.0422,3.0411,3.0489,3.0521,3.0548,3.0648,3.0712,3.0745,3.0855,0.0,0.0,0.0,0.0,3.0898,0.0,3.0898,3.0898,3.0898,3.0898,3.0898,3.0897,3.0897,3.0897,3.0897,3.0898,3.0898,3.0898,3.0898,0.0,0.0,0.0,0.0,0.0,0.0,0.0,0.0,0.0,3.1046,0.0,0.0,0.0,3.1351,3.0885,3.0615,3.1311,3.0865,3.0346,3.0173,3.0288,3.0596,3.1121,3.191,3.2487,3.2641,3.2526,3.2756,3.3625,3.3856,3.4237,3.4946,3.56,3.6042,3.6215,3.7046,3.7526,3.7526,3.7834,3.8334,3.9031,3.9223,4.0069,4.1542,4.1716,4.2081,4.2624,4.3451,4.3912,4.4105,4.4801,4.5297,4.5635,4.6342,4.6717,4.7016,4.8558,4.9687,5.0457,5.0457,5.0553,5.0707,2.2628,2.2684,0.0,0.0,2.5046,2.5748,2.5933,2.6795,2.7657,2.8298,2.8917,2.9312,2.9356,2.9509,2.9944,0.0,3.0267,3.0281,3.11,3.06,3.0289,3.0307,3.0367,3.0382,3.0404,3.0451,3.0494,3.0498,3.0554,3.0617,3.068,3.069,3.0768,3.0878,3.0898,0.0,0.0,0.0,3.0898,0.0,3.0897,3.0898,0.0,3.0898,3.0897,3.0897,3.0895,3.0895,3.0895,0.0,3.0897,3.0897,0.0,3.0897,3.0897,3.0897,0.0,0.0,0.0,0.0,0.0,0.0,3.13,0.0,0.0,0.0,3.1367,3.0695,0.0,3.0423,3.0538,0.0,0.0,2.9374,2.9907,3.0157,2.9489,3.0138,3.0962,3.1734,3.1157,3.1019,3.191,3.2622,3.3083,3.3199,3.3276,3.366,3.4433,3.5311,3.5788,3.5788,3.7234,3.8046,3.8142,3.8915,3.9742,4.0666,4.1431,4.145,4.0823,4.17,4.2504,4.3239,4.3335,4.4199,4.5528,4.5624,4.6071,4.6824,4.7857,4.8779,4.9553,4.9553,5.0034,5.0707,2.386,2.3962,0.0,0.0,2.593,2.6501,2.6959,2.771,2.8378,2.8833,2.9082,2.9278,2.9382,0.0,0.0,0.0,0.0,3.0226,0.0,0.0,0.0,3.0367,3.0379,3.0404,3.0404,3.046,3.0509,3.0501,3.0609,3.0673,3.0695,3.0771,3.0857,3.0898,3.0898,0.0,3.0898,0.0,3.0897,0.0,0.0,0.0,0.0,3.0896,3.0894,3.0893,3.0891,3.0891,3.0891,0.0,3.0894,0.0,0.0,0.0,0.0,0.0,0.0,0.0,0.0,0.0,0.0,0.0,0.0,0.0,3.1223,0.0,3.0984,0.0,0.0,0.0,0.0,0.0,0.0,0.0,3.0154,3.0269,2.9907,3.0173,3.0538,3.0904,3.0615,3.0538,3.0904,3.1253,3.1445,3.1445,3.1926,3.2352,3.2737,3.3545,3.4215,3.4737,3.5433,3.6257,3.7234,3.8104,3.8973,3.98,4.0646,4.0858,4.0535,4.1393,4.2004,4.2369,4.2829,4.3711,4.4803,4.4757,4.5227,4.598,4.6374,4.7405,4.8697,4.9163,4.9606,5.0014,2.5343,0.0,0.0,0.0,2.6739,2.713,2.7855,2.8357,2.8755,2.9078,2.9225,2.935,2.9481,3.0019,0.0,0.0,3.0814,3.0893,0.0,0.0,3.0436,0.0,0.0,0.0,3.0445,3.052,3.0558,3.0549,3.0692,3.0746,3.0767,3.0858,3.0898,3.0898,0.0,3.0897,3.0897,0.0,3.0896,3.0893,3.0895,3.0872,3.0846,3.0891,3.089,3.0866,3.0866,3.0866,3.0886,3.0887,3.089,0.0,3.0868,0.0,3.0839,0.0,0.0,0.0,3.0818,0.0,0.0,0.0,0.0,0.0,0.0,0.0,0.0,0.0,0.0,0.0,0.0,0.0,0.0,0.0,0.0,3.0327,3.008,3.025,3.0404,3.0404,3.0404,3.0404,3.0404,3.0404,3.0404,3.0404,3.0984,3.1445,3.1695,3.2256,3.2968,3.3817,3.4087,3.4895,3.6365,3.7215,3.82,3.93,3.99,4.0285,4.0516,4.1162,4.1562,4.1827,4.2409,4.3267,4.4262,4.4192,4.4643,4.5361,4.5361,4.6181,4.7458,4.8274,4.8928,4.9452,2.7205,2.6584,0.0,0.0,2.7666,2.788,2.8575,2.8682,2.8815,2.9151,2.9542,0.0,0.0,0.0,0.0,0.0,0.0,3.2908,3.2912,0.0,3.0537,0.0,0.0,3.0539,0.0,3.066,3.0691,3.0691,3.0832,3.0897,3.0898,3.0898,3.0898,3.0898,3.0898,3.0898,3.0897,3.0897,3.0894,3.0908,3.0908,3.0813,3.0719,0.0,3.0865,3.0801,3.0801,0.0,0.0,3.0886,3.0908,0.0,0.0,0.0,0.0,0.0,0.0,0.0,0.0,0.0,0.0,3.0552,0.0,0.0,0.0,0.0,3.1426,0.0,0.0,0.0,0.0,0.0,0.0,0.0,0.0,0.0,0.0,2.9868,3.0404,3.0404,3.0404,3.0404,3.0404,3.0404,3.0404,3.0404,3.0423,3.0808,3.1657,3.1715,3.2102,3.291,3.376,3.4622,3.5538,3.6346,3.7603,3.93,3.9319,3.9746,4.0496,4.0535,4.0993,4.1808,4.1752,4.2688,4.4207,4.4135,4.4583,4.5307,4.5307,4.5381,4.559,4.6459,4.7856,4.9307,0.0,0.0,0.0,0.0,0.0,2.8455,2.8905,2.9004,2.9536,3.0942,3.1245,0.0,0.0,3.4075,3.4596,0.0,0.0,3.3759,3.3175,3.2023,0.0,0.0,0.0,3.0574,0.0,0.0,3.0708,3.0695,3.0836,3.0898,3.0898,3.0898,3.0898,3.0898,0.0,3.0897,0.0,0.0,0.0,0.0,0.0,3.0698,3.0692,0.0,3.0735,3.066,3.066,3.066,0.0,3.0686,3.0708,3.0685,3.0645,3.0637,3.0634,3.0612,3.0605,3.0607,0.0,0.0,3.0535,3.0502,0.0,0.0,0.0,0.0,0.0,0.0,0.0,0.0,0.0,0.0,0.0,0.0,0.0,0.0,0.0,3.0212,3.0404,3.0404,3.0404,3.0404,3.0404,3.0404,3.0404,3.0404,3.0404,3.0538,3.0827,3.0846,3.1234,3.2083,3.291,3.376,3.4622,3.6003,3.7004,3.7584,3.8161,3.8877,3.9708,3.9708,4.0165,4.095,4.0873,4.1785,4.3335,4.3273,4.4051,4.5302,4.5302,4.5312,4.5434,4.6303,4.7393,4.8604,2.7811,0.0,0.0,0.0,0.0,0.0,0.0,0.0,0.0,0.0,3.3025,0.0,3.5143,0.0,3.6623,0.0,3.5682,3.5042,3.4173,3.3284,0.0,3.117,3.1405,3.1297,0.0,0.0,0.0,0.0,3.0858,3.0898,3.0898,3.0898,3.0898,3.0898,0.0,3.0896,3.0894,3.0847,3.0787,0.0,0.0,3.0609,0.0,0.0,3.063,3.063,0.0,3.0595,3.0595,3.0595,3.0595,3.0609,3.0562,3.0552,3.0564,3.0533,3.0522,3.0522,3.0522,3.0494,0.0,3.0462,3.0425,0.0,3.0404,0.0,3.1445,0.0,0.0,0.0,0.0,0.0,0.0,0.0,0.0,0.0,0.0,3.0404,3.0404,3.0404,3.0404,3.0404,3.0404,3.0404,3.0404,3.0404,3.0404,3.0404,3.0404,3.0404,3.0654,3.1215,3.2314,3.316,3.3721,3.5427,3.6423,3.6715,3.7566,3.8435,3.93,3.9592,4.0019,4.0489,4.043,4.1346,4.2889,4.2833,4.3787,4.5302,4.5302,4.5302,4.5364,4.5931,4.692,4.817,2.8082,2.8429,0.0,0.0,2.8941,0.0,0.0,0.0,3.2158,0.0,3.4803,3.6324,3.573,3.7947,3.886,3.7329,3.717,3.6796,3.5936,3.5061,0.0,0.0,3.2839,3.2501,3.0937,0.0,0.0,0.0,0.0,3.0898,3.0898,3.0898,3.0898,3.0898,3.0898,0.0,3.0873,3.0743,3.0696,3.0677,3.0614,3.0558,3.0499,3.0494,3.0585,3.0676,3.061,3.0582,3.0582,3.0582,3.0582,3.0589,3.0522,3.0492,3.0472,3.0419,3.0404,3.0404,3.0404,3.0404,3.0404,3.0404,3.0404,0.0,0.0,0.0,3.1445,0.0,0.0,0.0,0.0,0.0,0.0,0.0,0.0,0.0,0.0,0.0,3.0404,3.0404,3.0404,3.0404,3.0404,3.0404,3.0404,3.0404,3.0404,3.0404,0.0,3.0404,3.0404,3.0404,3.1984,3.2833,3.2833,3.4561,3.5846,3.6654,3.7456,3.8347,3.9315,4.0099,4.0468,4.0508,4.043,4.1327,4.2832,4.2814,4.3749,4.5244,4.5283,4.5302,4.5302,4.534,4.6409,4.7989,2.8529,2.9308,3.0006,0.0,2.9691,2.9291,0.0,0.0,0.0,0.0,3.6169,3.7894,3.9199,4.0006,4.031,3.9999,3.8897,0.0,0.0,0.0,0.0,3.2244,3.2311,3.1923,3.0918,3.0898,3.0898,3.0898,0.0,0.0,3.0898,3.0898,3.0898,3.0898,0.0,3.083,3.0742,3.0709,3.0631,3.0546,3.0484,3.0472,3.0492,0.0,3.0484,3.0541,3.0479,3.0457,3.0457,3.0457,3.0457,3.0452,3.0422,3.0431,3.0425,3.0413,3.0404,3.0404,3.0404,3.0404,3.0404,3.0404,3.0404,3.0404,0.0,0.0,0.0,0.0,0.0,0.0,0.0,0.0,0.0,0.0,0.0,0.0,0.0,0.0,0.0,3.0404,0.0,3.0404,3.0404,3.0404,3.0404,3.0404,3.0404,3.0404,3.0404,3.0404,3.0404,3.0404,3.1445,3.2006,3.2006,3.368,3.4968,3.5827,3.6618,3.7798,3.9227,3.9445,3.9891,4.0499,4.0437,4.1005,4.2055,4.2585,4.3405,4.4393,4.5053,4.5302,4.5378,4.5965,4.6518,4.7145,2.9343,3.0344,3.115,3.1293,0.0,0.0,3.1327,3.2532,0.0,3.5054,3.7425,0.0,3.9601,4.0725,4.1336,4.1068,3.9895,0.0,3.7882,0.0,0.0,3.3335,3.3237,3.2673,3.1484,3.1094,0.0,3.0898,0.0,0.0,3.0898,3.0898,3.0898,0.0,0.0,3.0798,3.0786,3.0686,3.0597,3.0489,3.0433,3.0425,0.0,3.0411,3.0659,3.0978,3.0545,3.0404,3.0404,3.0404,3.0404,3.0404,3.0404,3.0404,3.0404,3.0404,3.0404,3.0404,3.0404,3.0404,3.0404,3.0404,3.0404,3.0404,3.0404,3.0788,3.0981,0.0,3.0788,3.0981,0.0,0.0,0.0,0.0,0.0,0.0,0.0,0.0,0.0,0.0,3.0404,3.0404,3.0404,3.0404,3.0404,3.0404,3.0404,3.0404,3.0404,3.0404,3.0404,3.0404,3.1968,3.2602,3.2237,3.4257,3.5545,3.6038,3.683,3.7924,3.9207,3.9535,3.9985,4.0497,4.0392,4.0873,4.1734,4.2073,4.2923,4.4083,4.4953,4.5302,4.5359,4.5812,4.6216,4.6758,3.0412,3.1563,3.2396,0.0,0.0,0.0,0.0,3.5084,0.0,3.5588,0.0,4.0193,3.8795,4.073,4.1857,4.1169,4.0272,3.9371,3.8578,3.8357,3.7166,3.4729,3.4568,3.3809,3.2226,3.1348,3.0898,0.0,0.0,0.0,3.0898,3.0898,0.0,0.0,0.0,0.0,0.0,3.0658,3.055,3.047,3.0428,3.0462,3.0558,3.0436,3.0939,3.1574,3.0703,3.0475,3.0558,3.0442,3.0404,3.0404,3.0404,3.0404,3.0404,3.0404,3.0404,3.0404,3.0404,3.0404,3.0404,3.0404,3.0404,3.0404,3.0404,3.0404,3.0404,3.0404,3.0404,3.0404,0.0,0.0,0.0,0.0,0.0,0.0,0.0,0.0,0.0,0.0,0.0,0.0,3.0404,3.0404,3.0404,3.0404,3.0404,3.0404,0.0,0.0,3.0404,3.0404,3.266,3.3606,3.3083,3.5273,3.6596,3.7031,3.7629,3.8414,3.9364,4.0017,4.0351,4.0462,4.0342,4.075,4.1514,4.1633,4.266,4.426,4.4991,4.5302,4.5302,4.5302,4.5736,4.6486,3.1711,3.3203,0.0,0.0,0.0,3.6491,3.814,3.7847,3.75,3.7659,3.9492,4.0717,4.0543,4.0948,4.1226,4.1191,3.9746,0.0,0.0,0.0,0.0,3.4726,3.4004,3.3184,3.2226,3.1347,3.0898,0.0,0.0,0.0,3.0897,0.0,0.0,0.0,0.0,0.0,3.0577,3.0522,0.0,3.0414,3.0393,3.0827,3.1385,3.0611,3.0854,3.1507,3.0628,3.0823,3.1368,3.0635,3.0404,3.0404,3.0404,3.0404,3.0404,3.0404,3.0404,3.0404,3.0404,3.0404,3.0404,3.0404,3.0404,3.0404,3.0404,3.0404,3.0404,3.0404,3.0404,3.0404,3.0404,0.0,0.0,0.0,0.0,0.0,0.0,0.0,0.0,0.0,0.0,3.0404,0.0,3.0404,3.0404,3.0404,3.0404,0.0,0.0,0.0,3.0404,0.0,3.1522,3.2737,0.0,0.0,3.6028,3.8758,3.8173,3.8688,4.0119,4.0239,4.0316,4.0329,4.0316,4.0388,4.0641,4.2016,4.3558,4.5092,4.5244,4.5302,4.5302,4.5302,4.5397,4.5722,3.4167,0.0,0.0,0.0,0.0,0.0,0.0,3.9389,3.9134,3.836,3.9411,4.0103,3.9732,4.0531,4.1128,4.1191,4.043,3.9551,3.8652,3.7812,3.6562,3.4785,3.3867,3.3008,3.2168,3.1327,3.0897,3.0898,0.0,0.0,3.0897,0.0,0.0,3.0721,0.0,3.1039,0.0,0.0,0.0,3.0513,3.1357,3.1683,3.1648,3.1655,3.1888,3.2179,3.1753,3.1619,3.1514,3.0644,3.0356,3.0356,3.0356,3.0356,3.0359,3.0358,3.0345,3.0367,3.0398,3.0404,3.0404,3.0404,3.0404,3.0404,3.0404,3.0404,3.0404,3.0404,3.0404,3.0404,3.0404,3.0404,0.0,0.0,0.0,0.0,0.0,0.0,0.0,0.0,0.0,0.0,0.0,0.0,0.0,0.0,0.0,0.0,0.0,0.0,3.0615,0.0,0.0,0.0,3.4186,0.0,3.6521,3.8512,3.8108,3.8737,4.0307,4.0299,4.0299,4.0307,4.0299,4.0299,4.0436,4.2106,4.3271,4.4098,4.4958,4.5302,4.5307,4.5333,4.5348,4.5592,3.6754,3.6913,0.0,0.0,3.842,3.8681,3.9796,4.0465,4.0352,3.9031,3.9534,3.9765,3.9146,4.0349,4.1133,4.0937,4.0742,3.998,3.8437,3.8144,3.7051,3.4805,3.3867,3.2988,3.2105,3.1283,3.0852,0.0,0.0,0.0,0.0,0.0,0.0,0.0,0.0,0.0,0.0,0.0,3.2222,3.1114,3.2383,3.2593,3.2199,3.2685,3.2949,3.3036,3.2856,3.2377,3.1729,3.1033,3.0583,3.0289,3.0289,3.0289,3.0296,3.0305,3.0301,3.031,3.0351,3.0398,3.0404,3.0404,3.0404,3.0404,3.0404,3.0404,3.0404,3.0404,3.0404,3.0404,3.0404,3.0404,0.0,0.0,0.0,0.0,0.0,0.0,0.0,0.0,0.0,0.0,3.0404,0.0,0.0,0.0,0.0,0.0,3.0404,0.0,0.0,0.0,0.0,3.4375,3.4722,0.0,3.7282,3.8438,3.8238,3.8906,4.0308,4.0305,4.031,4.0308,4.0305,4.0501,4.0939,4.2254,4.3004,4.3463,4.4786,4.5302,4.5307,4.5353,4.5393,4.5619,3.8738,0.0,0.0,0.0,0.0,3.9843,4.1582,4.1293,4.0865,4.0769,4.0883,4.0955,4.0957,4.1094,4.0879,4.0098,3.9297,3.8437,3.748,3.668,3.5781,3.4746,3.3867,3.2964,3.2029,3.1152,3.0697,0.0,0.0,3.0691,0.0,0.0,0.0,0.0,0.0,0.0,0.0,3.2913,3.2872,3.2692,3.2843,3.3284,3.3796,3.3089,3.3252,3.3784,3.2993,3.2653,3.2577,3.2497,3.1515,3.0289,3.0289,3.0289,3.0292,3.0296,3.0302,3.0307,3.031,3.0348,3.0404,3.0404,3.0404,3.0404,3.0404,3.0404,3.0404,3.0404,3.0404,3.0404,3.0404,3.0404,3.0404,0.0,0.0,0.0,0.0,0.0,3.0404,3.0404,0.0,0.0,3.0404,3.0404,0.0,0.0,3.0404,0.0,0.0,0.0,0.0,3.1695,3.3337,3.4933,3.6446,3.6619,3.7863,4.0162,3.938,3.9444,4.0291,4.0306,4.0306,4.0291,4.0306,4.117,4.257,4.2737,4.3692,4.5073,4.5244,4.5302,4.5302,4.5307,4.5343,4.5547,0.0,0.0,0.0,0.0,0.0,0.0,0.0,4.1172,4.0992,4.1104,4.1131,4.1172,4.1191,4.1191,4.0859,3.998,3.957,3.8789,3.7383,3.6973,3.6152,3.4766,3.3823,3.2912,3.2017,3.1117,3.0902,0.0,0.0,0.0,0.0,0.0,0.0,0.0,0.0,3.3441,3.3037,3.4069,3.3885,3.2993,3.3995,3.4267,3.4067,3.4228,3.4186,3.4014,3.4144,3.3559,3.2695,3.2695,3.1957,3.1011,3.0972,3.0628,3.0233,3.025,3.0247,3.0244,3.0286,3.0321,3.0333,3.0336,3.0342,3.0345,3.0401,3.0404,3.0404,3.0404,3.0404,3.0558,3.108,3.075,3.0404,3.0404,0.0,0.0,0.0,0.0,0.0,3.0404,0.0,3.0404,0.0,3.0404,0.0,0.0,0.0,0.0,0.0,0.0,0.0,3.241,0.0,3.4776,3.5962,3.594,3.6918,3.8892,3.8508,3.9016,4.0306,4.0306,4.0306,4.0325,4.0807,4.1399,4.2106,4.3114,4.3916,4.4565,4.5111,4.5302,4.5293,4.536,4.5375,4.5539,4.1035,0.0,4.0491,0.0,4.0949,4.0733,4.1376,4.1212,4.108,4.1191,4.1191,4.1191,4.1191,4.1191,4.0742,3.9629,3.9512,3.8789,3.7031,3.6914,3.625,3.4743,3.3792,0.0,3.1964,3.1048,3.1006,3.1911,3.1882,0.0,0.0,0.0,0.0,0.0,3.4334,3.4266,3.3818,3.5001,3.4791,3.3738,3.4895,3.4963,3.4458,3.5043,3.489,3.443,3.4999,3.4441,3.3406,3.3158,3.2531,3.1767,3.1213,3.0663,3.0192,3.0194,3.0204,3.0217,3.0266,3.0283,3.0296,3.0305,3.0292,3.0372,3.0675,3.0748,3.0837,3.1077,3.0942,3.0962,3.158,3.0984,3.0404,3.0404,0.0,0.0,0.0,3.0404,0.0,0.0,3.0404,3.0404,3.0404,3.0404,0.0,0.0,0.0,0.0,0.0,0.0,0.0,0.0,0.0,0.0,3.5463,3.5689,3.6362,3.75,3.7697,3.8406,3.9542,3.9809,4.0057,4.0344,4.1151,4.1652,4.1991,4.3419,4.414,4.4432,4.5053,4.5302,4.5312,4.539,4.539,4.5491,4.2034,4.2047,4.2417,4.3235,4.2977,4.2638,4.2589,4.1732,4.1111,4.1191,4.1191,4.1191,4.1191,4.1191,4.0508,3.8769,3.8613,3.7871,3.6133,3.6016,3.5583,0.0,0.0,3.2822,3.1822,3.0941,3.0894,3.1705,0.0,0.0,3.2917,0.0,3.4645,3.5465,3.5481,3.5481,3.5465,3.5481,3.546,3.5363,3.5327,3.5285,3.5285,3.5222,3.5186,3.5186,3.5205,3.5186,3.5053,3.4258,3.3414,3.2394,3.0739,3.0208,3.0208,3.0208,3.0209,3.0191,3.0191,3.0241,3.0289,3.0292,3.0292,3.0538,3.1398,3.1587,3.1821,3.2692,3.2237,3.1695,3.1695,3.0984,3.0404,3.0404,0.0,0.0,0.0,3.0404,0.0,3.0404,3.0404,3.0404,3.0404,3.0404,0.0,0.0,0.0,0.0,0.0,0.0,0.0,3.2891,3.458,0.0,3.5405,3.6254,3.6623,3.6521,3.7398,3.7774,3.7755,3.8629,3.9484,4.0344,4.1151,4.1996,4.2851,4.3668,4.4508,4.5283,4.5302,4.5302,4.5307,4.5388,4.54,4.5415,4.1234,4.1147,4.1371,4.1587,4.1611,4.2009,4.3163,4.2104,4.1172,4.1191,4.1191,4.1191,4.1191,4.1191,4.0508,0.0,3.8594,3.7831,0.0,3.5923,3.5789,3.5428,3.3967,3.3004,3.2681,3.1782,3.1761,3.2659,0.0,0.0,0.0,3.4965,3.5234,3.55,3.55,3.55,3.55,3.5453,3.5382,3.5323,3.5304,3.5266,3.5226,3.5209,3.5205,3.5205,3.5205,3.4846,3.4254,3.3391,3.2569,3.1691,3.0571,3.0208,3.0208,3.0208,3.0195,3.0202,3.0202,3.0213,3.0226,3.0224,3.0674,3.1198,3.1525,3.2021,3.2671,3.3548,3.3089,3.2683,3.324,3.2218,3.1291,3.1291,3.0788,0.0,3.0404,0.0,3.0404,3.0404,3.0404,3.0404,3.0404,3.0404,0.0,0.0,0.0,0.0,0.0,0.0,0.0,0.0,3.4362,0.0,3.5405,3.6228,3.6596,3.6521,3.7938,3.8929,3.9503,4.0329,4.0559,4.042,4.2369,4.3056,4.287,4.3668,4.4508,4.5244,4.4647,4.4781,4.5307,4.5383,4.5399,4.5404,4.0991,4.1256,4.1636,4.1025,4.21,4.2986,4.2791,4.2246,4.168,4.1269,4.1191,4.1074,4.0742,4.0703,0.0,3.8711,3.8573,3.7805,3.6028,3.5872,3.5812,3.5729,3.4335,3.3393,3.3033,3.2448,0.0,3.3015,3.4145,3.4965,3.55,3.55,3.55,3.55,3.55,3.55,3.5497,3.5423,3.5364,3.5304,3.5304,3.5265,3.5205,3.5205,3.5205,3.5205,3.5205,3.4674,3.3876,3.2986,3.2164,3.135,3.0475,3.0208,3.0208,3.0208,3.0208,3.0208,3.0208,3.0208,3.0287,3.0611,3.1096,3.1666,3.2248,3.2958,3.3642,3.4204,3.3494,3.29,3.3401,3.2233,3.1161,3.1161,3.0744,3.0404,3.0404,0.0,3.0404,0.0,0.0,0.0,0.0,3.0404,3.0635,0.0,0.0,0.0,0.0,0.0,3.303,3.3108,3.4376,3.5159,3.5364,3.5868,3.6078,3.6038,3.74,3.8491,3.935,4.052,4.0941,4.086,4.3051,4.3701,4.3324,4.4145,4.4819,4.5244,4.4704,4.4819,4.5307,4.5383,4.5403,4.5418,4.1313,4.214,4.2837,4.1513,4.3866,4.4863,4.1699,4.2109,4.2402,4.1348,4.1191,4.0879,3.998,3.9804,3.9394,3.8574,0.0,0.0,3.5993,3.5811,3.5729,3.5605,3.4765,3.3873,3.301,3.2987,3.3026,3.3083,3.4715,3.55,3.55,3.55,3.55,3.55,3.55,3.5462,3.5397,3.5343,3.5246,3.5132,3.5128,3.5089,3.5033,3.5033,3.5033,3.5033,3.5033,3.4503,3.3704,3.2947,3.2126,3.1274,3.0532,3.0284,3.0284,3.0227,3.0208,3.0208,3.0265,3.0284,3.0494,3.1369,3.1607,3.2027,3.3466,3.4192,3.4598,3.4674,3.3605,3.267,3.267,3.1452,3.0474,3.0465,3.0412,3.0395,3.0367,3.0373,3.0398,0.0,0.0,0.0,3.0466,3.0533,3.0571,0.0,0.0,0.0,0.0,0.0,3.3805,3.3783,3.4568,3.5094,3.5304,3.5366,3.5384,3.5377,3.6252,3.7077,3.785,3.958,4.0764,4.1519,4.3247,4.3968,4.3987,4.4857,4.5244,4.5283,4.5225,4.5244,4.5307,4.5364,4.5398,4.5389,0.0,0.0,4.1943,4.2929,4.2715,4.2129,4.1328,4.1426,4.1504,4.123,4.1191,4.0859,3.9911,3.8811,3.7957,3.75,3.7498,3.7011,3.5813,3.5679,3.5613,3.5523,3.4683,3.4128,3.3898,3.3894,3.4218,3.4885,3.5308,3.55,3.55,3.55,3.55,3.55,3.55,3.5102,3.4428,3.4408,3.4008,3.3397,3.3345,3.3318,3.3291,3.3291,3.3291,3.3291,3.3291,3.2779,3.2153,3.2565,3.1729,3.059,3.1045,3.1197,3.1064,3.0399,3.0208,3.0322,3.0949,3.1159,3.1389,3.2203,3.2753,3.337,3.4381,3.4572,3.4529,3.4545,3.4429,3.4327,3.4327,3.3173,3.2166,3.2,3.1047,3.0279,3.0114,3.0231,3.0324,0.0,3.0915,3.1284,3.1164,3.1859,3.2247,0.0,0.0,3.3103,3.2845,3.3636,3.3949,3.3582,3.4457,3.5047,3.53,3.5909,3.6516,3.712,3.7994,3.851,3.8744,4.0444,4.0979,4.0707,4.3013,4.3648,4.3152,4.3973,4.4704,4.5225,4.4565,4.4704,4.5302,4.5317,4.5323,4.5333,4.3606,4.2842,4.2342,4.2539,4.1797,4.1191,4.1191,4.1191,4.0898,4.0035,4.064,4.0557,3.8978,3.8294,3.7556,3.654,3.6855,3.6696,3.5718,3.5212,3.4937,3.4912,3.4077,3.3433,3.3067,3.3817,3.4622,3.55,3.55,3.55,3.55,3.55,3.55,3.55,3.5463,3.5177,3.4698,3.466,3.4151,3.3344,3.3314,3.3066,3.2695,3.2695,3.2695,3.2695,3.2695,3.2413,3.213,3.2546,3.2107,3.1423,3.1901,3.2053,3.1958,3.148,3.1347,3.1442,3.1878,3.2012,3.2226,3.2925,3.3562,3.4108,3.4486,3.4371,3.4171,3.4171,3.4074,3.3989,3.3989,3.2854,3.1908,3.18,3.0793,3.0026,3.0,3.0099,3.0346,3.0839,3.1306,3.1722,3.2053,3.2467,3.2709,3.2694,3.3189,0.0,3.3361,3.3921,3.4164,3.4017,3.4474,3.5078,3.5844,3.6287,3.6515,3.6566,3.7808,3.861,3.9069,4.0735,4.1476,4.1547,4.3261,4.3739,4.34,4.4241,4.4876,4.5244,4.4781,4.4876,4.5302,4.5302,4.5302,4.5307,4.4458,4.4139,4.3495,4.2207,4.1543,4.1191,4.1191,4.1171,4.0503,3.877,3.9554,3.958,3.77,3.7797,3.7368,3.581,3.6238,3.6246,3.5435,3.4771,3.427,3.4013,3.3414,3.2718,3.191,3.3394,3.4568,3.5308,3.5442,3.55,3.55,3.55,3.55,3.55,3.5423,3.5325,3.5202,3.5132,3.4523,3.362,3.3624,3.3108,3.2336,3.247,3.2508,3.2527,3.2527,3.2604,3.2695,3.2695,3.2695,3.2714,3.2852,3.2909,3.2909,3.2909,3.2986,3.3043,3.2928,3.2966,3.3159,3.3674,3.4136,3.4403,3.4233,3.3992,3.3807,3.3807,3.3419,3.3059,3.2948,3.1904,3.1059,3.103,3.0382,2.9953,3.0216,0.0,3.0639,3.1571,3.1773,3.2152,3.2891,3.2995,3.3075,3.3265,3.3391,3.3556,3.3792,3.419,3.4519,3.4755,3.4623,3.5177,3.649,3.6755,3.6385,3.5415,3.7234,3.8419,3.9069,4.0735,4.1901,4.266,4.3591,4.393,4.3897,4.4895,4.5302,4.5302,4.5302,4.5302,4.5302,4.5302,4.5302,4.5302,4.4735,4.4684,4.494,4.543,4.3125,4.1191,4.1191,4.1012,4.045,3.9311,3.7624,3.6674,3.7057,3.6457,3.5914,3.5642,3.5014,3.4569,3.4419,3.4963,3.4645,3.316,3.3683,3.3606,3.2737,3.3683,3.426,3.4395,3.5138,3.55,3.55,3.55,3.55,3.55,3.5423,3.4988,3.431,3.4224,3.3303,3.1893,3.1889,3.1369,3.0663,3.1347,3.1633,3.1691,3.1691,3.2126,3.2695,3.2695,3.2695,3.2833,3.3566,3.38,3.38,3.38,3.4273,3.4651,3.3987,3.4162,3.4585,3.4666,3.4473,3.4251,3.4209,3.3992,3.3807,3.3807,3.3918,3.3788,3.312,3.2403,3.1853,3.168,3.1085,3.0817,3.135,0.0,3.1769,3.2006,3.2609,3.3105,3.3289,3.4569,3.5395,3.5426,3.5229,3.5435,3.6137,3.5361,3.5086,3.5524,3.5087,3.5377,3.6494,3.7903,3.7822,3.6328,3.8739,3.958,3.9069,4.0735,4.1576,4.1786,4.3324,4.361,4.3119,4.4652,4.5302,4.5302,4.5302,4.5302,4.5302,4.5302,4.5302,4.5302,4.5604,4.5625,4.5625,4.543,4.4082,4.2617,4.1387,4.0511,3.9597,3.8486,3.7603,3.6879,3.6306,3.6278,3.6092,3.5579,3.5156,3.469,3.4228,3.3728,3.3292,3.291,3.2429,3.2179,3.2256,3.3064,3.3721,3.4205,3.5061,3.55,3.55,3.55,3.549,3.5449,3.5372,3.5124,3.4745,3.4665,3.3949,3.2844,3.2844,3.2325,3.1595,3.1954,3.2126,3.2145,3.2145,3.2684,3.3394,3.3394,3.3696,3.4117,3.4522,3.4655,3.4655,3.4655,3.4904,3.511,3.4751,3.4842,3.4995,3.4758,3.4526,3.4296,3.403,3.3888,3.3807,3.3807,3.3895,3.3874,3.3505,3.2858,3.2338,3.2256,3.16,0.0,3.1656,3.2171,3.2756,3.3317,3.3718,3.4317,3.5254,3.5655,3.6007,3.6406,3.626,3.6291,3.6625,3.5599,3.5571,3.6845,3.614,3.5769,3.5793,3.7464,3.7689,3.6538,3.9079,4.0095,3.9733,4.0941,4.15,4.1576,4.2813,4.3133,4.2928,4.4614,4.5302,4.5302,4.5302,4.5302,4.5302,4.5302,4.5302,4.5302,4.6308,4.6308,4.5898,4.4609,4.4394,4.373,4.1757,4.0431,3.9279,3.814,3.8159,3.7691,3.6175,3.6342,3.6286,3.5566,3.5309,3.5001,3.4529,3.291,3.2179,3.2602,3.1192,3.0712,3.1388,3.2372,3.324,3.3894,3.4965,3.55,3.55,3.547,3.5453,3.5402,3.5335,3.5297,3.5304,3.5226,3.4732,3.3991,3.3991,3.349,3.2714,3.2928,3.3005,3.3005,3.3005,3.3543,3.4258,3.4067,3.4522,3.5205,3.5205,3.5205,3.5205,3.5205,3.5339,3.5454,3.5263,3.5176,3.504,3.4689,3.4696,3.4678,3.4275,3.4359,3.4527,3.4485,3.4352,3.4249,3.4184,3.3354,3.2807,3.3109,0.0,3.2151,3.2699,3.3346,3.4055,3.4834,3.4913,3.5441,3.6779,3.6482,3.6452,3.7068,3.6968,3.6953,3.7079,3.595,3.5931,3.734,3.7126,3.651,3.5511,3.7158,3.7597,3.681,3.9179,4.0401,4.0611,4.1437,4.1805,4.1863,4.2928,4.3157,4.2928,4.4614,4.5302,4.5302,4.5302,4.5302,4.5302,4.5302,4.5302,4.5302,4.6308,4.6308,4.5762,4.4062,4.3769,4.3417,4.2386,4.1401,4.0457,3.957,3.8714,3.7962,3.7336,3.6263,3.5576,3.5518,3.4751,3.4606,3.5365,3.3772,3.2506,3.1811,3.0904,3.0423,3.05,3.208,3.2929,3.3006,3.4676,3.55,3.55,3.5446,3.5409,3.5402,3.5327,3.5293,3.5304,3.5226,3.4732,3.3991,3.3991,3.349,3.2795,3.3605,3.3895,3.3895,3.3895,3.4426,3.4999,3.4258,3.4522,3.5205,3.5205,3.5205,3.5205,3.5205,3.5778,3.6233,3.5415,3.5063,3.4903,3.4875,3.5287,3.5634,3.5349,3.6048,3.671,3.6521,3.6042,3.5588,3.5337,3.4018,3.3377,3.4623,0.0,0.0,3.5744,3.6026,3.607,3.6165,3.6172,3.6288,3.6592,3.7082,3.7464,3.7718,3.7552,3.7761,3.8517,3.707,3.61,3.5872,3.7535,3.7794,3.6424,3.8071,3.8476,3.7636,3.9446,4.0688,4.1442,4.2316,4.2698,4.2794,4.4404,4.4232,4.2928,4.4614,4.5302,4.5302,4.5302,4.5302,4.5302,4.5302,4.5302,4.5302,4.6308,4.6308,4.543,4.2637,4.2673,4.2743,4.1717,4.0581,3.9773,3.957,3.8438,3.7681,3.7755,3.6415,3.5788,3.6496,3.561,3.5157,3.5481,3.4885,3.3888,3.2506,3.1657,3.1445,3.1945,3.2564,3.316,3.3702,3.4907,3.5201,3.4646,3.5166,3.5096,3.4553,3.5074,3.5273,3.5249,3.5213,3.5014,3.4732,3.4732,3.4556,3.4288,3.4617,3.4732,3.4732,3.4732,3.4617,3.4487,3.4674,3.4617,3.4636,3.5683,3.6003,3.6103,3.6604,3.6986,3.7177,3.6833,3.6323,3.5725,3.5074,3.5456,3.5929,3.5698,3.6357,3.6977,3.6891,3.67,3.6476,3.6255,3.58,3.5546,3.5775,0.0,3.5766,3.6221,3.6732,3.7044,3.7044,3.7044,3.7272,3.7845,3.7809,3.7916,3.8328,3.8444,3.8556,3.8696,3.812,3.7147,3.5732,3.795,3.8304,3.6515,3.7636,3.8572,3.9331,4.0482,4.1495,4.2335,4.3171,4.3266,4.2851,4.3992,4.4126,4.3648,4.48,4.5302,4.5302,4.5302,4.5302,4.5302,4.5302,4.5302,4.5302,4.6308,4.6308,4.5215,4.1797,4.218,4.2527,4.1257,4.06,4.0184,3.9942,3.8981,3.8479,3.8832,3.733,3.6384,3.6638,3.5942,3.55,3.55,3.55,3.4715,3.2987,3.2372,3.2333,3.2891,3.316,3.3606,3.4205,3.4795,3.489,3.4529,3.4841,3.4782,3.4431,3.5009,3.5234,3.5205,3.5205,3.5205,3.5205,3.5205,3.5205,3.5205,3.5205,3.5205,3.5205,3.5205,3.4846,3.4464,3.5014,3.4827,3.4579,3.574,3.6271,3.6653,3.7464,3.7884,3.8056,3.7774,3.7502,3.7047,3.6026,3.6393,3.6947,3.6732,3.7316,3.7917,3.7917,3.7685,3.7534,3.7684,3.7319,3.7043,3.717,3.7054,3.6987,3.703,3.754,3.787,3.787,3.787,3.8091,3.8644,3.8443,3.8382,3.8667,3.895,3.8863,3.8355,3.8322,3.7516,3.5751,3.7925,3.8531,3.7302,3.7827,3.8858,4.0306,4.0864,4.1839,4.319,4.3739,4.3706,4.3209,4.405,4.426,4.4064,4.4934,4.5302,4.5302,4.5302,4.5302,4.5302,4.5302,4.5302,4.5302,4.6308,4.6308,4.5234,4.1836,4.249,4.2956,4.127,4.19,4.2161,4.0964,4.0655,4.0619,4.0768,3.9096,3.7326,3.5677,3.5519,3.55,3.55,3.55,3.4734,3.3006,3.291,3.291,3.291,3.376,3.4205,3.4205,3.4205,3.4605,3.5367,3.4509,3.453,3.5289,3.5226,3.5205,3.5205,3.5205,3.5205,3.5205,3.5205,3.5205,3.5205,3.5205,3.5205,3.5205,3.5205,3.5205,3.5186,3.5205,3.5205,3.5205,3.5224,3.5836,3.6691,3.7483,3.8343,3.8839,3.796,3.8362,3.882,3.7922,3.8362,3.8937,3.8659,3.9286,3.9908,3.9908,3.9223,3.8877,3.9746,3.8329,3.7485,3.8882,3.8213,3.7786,3.8597,3.8699,3.8699,3.8699,3.8699,3.8699,3.8699,3.8935,3.8993,3.873,3.8943,3.8641,3.7588,3.7529,3.6976,3.5769,3.7424,3.8553,3.9026,3.9007,3.9446,4.0325,4.032,4.1619,4.4006,4.4006,4.4006,4.4064,4.4914,4.4819,4.4083,4.4934,4.5302,4.5302,4.5302,4.5302,4.5302,4.5302,4.5302,4.5302,4.6308,4.6308,4.5976,4.4961,4.4958,4.4419,4.2368,4.1651,4.1168,4.0726,3.8535,3.748,3.8709,3.7284,3.6988,3.8854,3.6855,3.55,3.55,3.55,3.5269,3.4753,3.4141,3.4103,3.4715,3.4375,3.451,3.5119,3.5119,3.4896,3.449,3.4802,3.4741,3.4408,3.4965,3.5205,3.5205,3.5205,3.5205,3.5205,3.5205,3.5205,3.5205,3.5205,3.5205,3.5205,3.5205,3.4846,3.4445,3.5014,3.5205,3.5511,3.7307,3.8453,3.9212,3.9446,4.0119,4.0697,4.0449,4.0998,4.1036,3.8362,3.8362,3.8974,3.8894,3.9547,4.0181,4.0181,4.0273,4.0382,4.0458,3.9983,3.9791,4.0394,3.9453,3.884,3.9462,3.9056,3.8699,3.8699,3.8699,3.8699,3.8699,3.8773,3.8788,3.8707,3.8773,3.8924,3.9163,3.9174,3.9194,3.9214,4.086,4.1419,4.0769,4.0191,4.0917,4.2879,4.2311,4.3061,4.4914,4.4914,4.4914,4.4934,4.5187,4.5149,4.4934,4.5187,4.5302,4.5302,4.5302,4.5302,4.5302,4.5302,4.5302,4.5302,4.6308,4.6308,4.6074,4.5327,4.439,4.3518,4.2884,4.1999,4.1191,4.0634,3.876,3.7858,3.8873,3.6905,3.632,3.8356,3.6668,3.55,3.55,3.55,3.55,3.55,3.5003,3.4965,3.5481,3.4984,3.4958,3.546,3.5117,3.481,3.4584,3.4711,3.4676,3.4503,3.4976,3.5205,3.5205,3.5205,3.5205,3.5205,3.5205,3.5205,3.5205,3.5205,3.5205,3.5205,3.5205,3.511,3.5018,3.5148,3.5435,3.6103,3.83,3.935,3.9924,4.0573,4.1113,4.1576,4.192,4.2393,4.2297,4.0234,3.9852,3.9909,3.958,4.0091,4.0648,4.075,4.1218,4.1607,4.1536,4.1337,4.1229,4.1397,4.0563,3.9988,4.0328,3.968,3.9294,3.9617,3.9085,3.8836,3.9148,3.8987,3.8988,3.9301,3.953,3.9856,4.0359,4.0377,4.0402,4.0499,4.1914,4.2404,4.1817,4.177,4.2517,4.3987,4.3171,4.3673,4.5302,4.5302,4.5302,4.5302,4.5302,4.5302,4.5302,4.5302,4.5302,4.5302,4.5302,4.5302,4.5302,4.5302,4.5302,4.5302,4.6308,4.6308,4.5759,4.3993,4.1978,4.1175,4.2847,4.264,4.1871,4.0653,4.0492,4.0396,4.0089,3.7603,3.5836,3.5536,3.5771,3.5953,3.5946,3.5673,3.5558,3.5654,3.5615,3.5615,3.5612,3.5535,3.546,3.5405,3.4602,3.4582,3.5289,3.4496,3.4492,3.5205,3.5205,3.5205,3.5205,3.5205,3.5205,3.5205,3.5205,3.5205,3.5205,3.5205,3.5205,3.5205,3.5205,3.5702,3.629,3.5645,3.6008,3.6997,3.8606,3.9121,3.9412,4.0941,4.15,4.1786,4.2584,4.2908,4.3004,4.2928,4.2316,4.1514,4.0707,4.0907,4.1323,4.1575,4.209,4.2587,4.2824,4.2404,4.2043,4.2118,4.1594,4.1203,4.1244,4.0554,4.0307,4.1012,3.98,3.9195,3.9945,3.956,3.9579,4.0321,4.0819,4.1132,4.1195,4.1205,4.1001,4.0552,4.1569,4.2241,4.2515,4.3572,4.4121,4.4102,4.3362,4.3825,4.5302,4.5302,4.5302,4.5302,4.5302,4.5302,4.5302,4.5302,4.5302,4.5302,4.5302,4.5302,4.5302,4.5302,4.5302,4.5302,4.6308,4.6308,4.6076,4.535,4.2667,4.1015,4.2233,4.2345,4.1879,4.067,4.0504,3.9503,3.6864,3.8279,3.8369,3.572,3.7891,3.9411,3.9419,3.6965,3.5904,3.6788,3.6577,3.6432,3.6441,3.5765,3.5412,3.5405,3.5165,3.5128,3.5308,3.5116,3.5074,3.5205,3.5205,3.5205,3.5205,3.5205,3.5205,3.5205,3.5205,3.5205,3.5205,3.5205,3.5205,3.5205,3.5205,3.532,3.5645,3.6776,3.7731,3.8644,3.9694,4.0019,4.0095,4.0458,4.1495,4.2565,4.2756,4.3749,4.459,4.3916,4.361,4.3247,4.2445,4.2358,4.2452,4.2517,4.2955,4.3353,4.3424,4.3152,4.3127,4.3752,4.2699,4.1922,4.2299,4.1657,4.1143,4.1099,4.0791,4.0645,4.0828,4.0727,4.0749,4.0914,4.1034,4.1379,4.2011,4.2047,4.2388,4.3146,4.3629,4.3999,4.4258,4.4764,4.501,4.5015,4.4843,4.4958,4.5302,4.5302,4.5302,4.5302,4.5302,4.5302,4.5302,4.5302,4.5302,4.5302,4.5302,4.5302,4.5302,4.5302,4.5302,4.5256,4.6265,4.6288,4.6039,4.5187,4.3895,4.2822,4.2321,4.2144,4.1493,3.99,4.0169,3.9222,3.5874,3.7065,3.7408,3.5657,3.857,3.9814,3.8223,3.6984,3.6327,3.6385,3.6194,3.6276,3.668,3.6182,3.5929,3.5929,3.5504,3.5281,3.5257,3.5257,3.5226,3.5205,3.5205,3.5205,3.5205,3.5205,3.5205,3.5205,3.5205,3.5205,3.5205,3.5205,3.5205,3.5205,3.5205,3.5473,3.6141,3.8243,3.8973,3.914,4.0038,4.0554,4.096,4.1375,4.2388,4.3457,4.3883,4.4633,4.5187,4.4723,4.4628,4.4303,4.308,4.3095,4.3362,4.3362,4.3923,4.4412,4.4412,4.4176,4.4108,4.4517,4.3777,4.323,4.3473,4.2824,4.2347,4.2469,4.1783,4.1233,4.112,4.1452,4.1672,4.1672,4.2029,4.2433,4.2845,4.2882,4.315,4.3738,4.4053,4.4332,4.4605,4.491,4.5132,4.5302,4.5302,4.5302,4.5302,4.5302,4.5302,4.5302,4.5302,4.5302,4.5302,4.5302,4.5302,4.5302,4.5302,4.5194,4.5057,4.5057,4.4982,4.4844,4.6208,4.6215,4.5872,4.4751,4.4965,4.4684,4.2857,4.2128,4.115,3.9319,3.9661,3.9014,3.6223,3.5668,3.55,3.55,3.8569,3.9204,3.6138,3.6538,3.6554,3.5743,3.5654,3.6016,3.6869,3.6787,3.6655,3.6502,3.5974,3.5548,3.5205,3.5396,3.5396,3.5205,3.5205,3.5205,3.5205,3.5205,3.5205,3.5205,3.5205,3.5205,3.5205,3.5205,3.5205,3.5224,3.5377,3.6065,3.7245,3.937,3.9694,3.935,4.0076,4.0845,4.1633,4.2374,4.3247,4.4164,4.4876,4.5187,4.5302,4.5302,4.5302,4.4977,4.3711,4.3954,4.4388,4.426,4.4914,4.5455,4.5321,4.5062,4.4898,4.4898,4.4701,4.4526,4.4472,4.3889,4.363,4.4016,4.2806,4.1812,4.154,4.2113,4.2506,4.2506,4.3121,4.3506,4.3506,4.3506,4.3506,4.3506,4.383,4.4098,4.4332,4.4644,4.4946,4.5224,4.5262,4.5302,4.5302,4.5302,4.5302,4.5302,4.5302,4.5302,4.5302,4.5302,4.5302,4.5297,4.524,4.504,4.4788,4.4745,4.4559,4.4332,4.6141,4.6026,4.5886,4.5634,4.4787,4.4036,4.3737,4.2608,4.1427,4.0392,3.9131,3.8162,3.7708,3.6365,3.55,3.55,3.8569,3.9685,3.7796,3.6446,3.5967,3.6514,3.653,3.6876,3.7625,3.7632,3.7245,3.6502,3.7092,3.6627,3.5224,3.6207,3.615,3.5205,3.5205,3.5205,3.5205,3.5205,3.5205,3.5205,3.5205,3.5205,3.5205,3.5205,3.5205,3.5301,3.6042,3.7326,3.8701,3.9064,3.9599,4.0134,4.0267,4.0845,4.1519,4.1633,4.277,4.4025,4.414,4.4723,4.5302,4.5302,4.5302,4.5416,4.5889,4.6074,4.596,4.5264,4.5774,4.6137,4.5436,4.5256,4.5235,4.5235,4.5189,4.5081,4.4795,4.465,4.4512,4.4362,4.3938,4.3519,4.321,4.3267,4.3341,4.3341,4.3433,4.3506,4.3506,4.3506,4.3506,4.3506,4.383,4.4028,4.4048,4.4558,4.4812,4.4868,4.5167,4.5302,4.5302,4.5302,4.5302,4.5302,4.5302,4.5302,4.5302,4.5302,4.5302,4.5262,4.4975,4.4843,4.4763,4.4539,4.4275,4.4056,4.6092,4.5898,4.574,4.574,4.4716,4.3902,4.3902,4.2701,4.1485,4.0612,3.9861,3.915,3.8522,3.8344,3.8297,3.8297,3.9642,3.9781,3.8104,3.7023,3.6524,3.668,3.6197,3.6519,3.7761,3.7755,3.7551,3.7173,3.7071,3.6409,3.5205,3.5706,3.5618,3.5037,3.5001,3.5005,3.5047,3.5344,3.5372,3.5235,3.5563,3.5508,3.5205,3.5205,3.5492,3.6103,3.7421,3.8376,3.9064,3.9561,3.9981,4.0382,4.0826,4.1552,4.2316,4.2751,4.3768,4.4723,4.4723,4.5335,4.5965,4.5965,4.6347,4.6653,4.6533,4.6877,4.6991,4.6137,4.5908,4.5722,4.5378,4.5665,4.5965,4.5965,4.5965,4.5908,4.5765,4.5354,4.4904,4.4445,4.3996,4.3666,4.3505,4.3506,4.369,4.414,4.4176,4.436,4.4828,4.4846,4.4846,4.4846,4.4553,4.449,4.4666,4.4453,4.443,4.4579,4.4887,4.5115,4.5302,4.5302,4.5302,4.5302,4.5302,4.5302,4.5302,4.5302,4.5189,4.5011,4.4856,4.463,4.4329,4.4019,4.3817,4.3724]}]]